GFSSW_con_3kmhel_000.txt.gz
Helicity
87 87 92 101 110 109 101 103 86 86 74 92 65 63 95 133 161 189 190 214 188 171 287 159 116 92 91 68 53 65 65 58 50 58 109 125 221 110 66 72 53 41 31 9 94
55 53 56 55 66 63 62 71 79 78 68 65 87 70 90 134 153 141 140 134 197 186 259 191 117 109 111 80 83 83 55 22 39 69 82 127 136 255 89 101 58 45 61 95 178
41 36 12 5 20 50 51 57 62 66 56 51 58 61 82 115 131 2 78 96 133 181 181 238 180 132 107 115 93 70 52 36 83 82 91 70 100 105 85 30 7 -11 42 96 133
19 12 1 -2 -7 18 40 53 71 59 37 35 49 65 80 123 143 -7 26 48 98 154 214 181 202 195 145 124 80 73 39 42 71 103 101 45 50 40 49 3 12 42 36 148 111
0 -6 -5 10 7 32 42 37 63 66 43 37 43 62 113 175 172 64 258 66 71 174 192 182 209 184 149 106 87 66 46 1 54 84 57 60 5 27 3 34 35 12 46 106 85
-9 5 1 5 11 22 34 36 30 48 42 38 42 51 135 135 99 30 359 194 120 197 178 179 208 160 109 97 80 62 43 11 11 38 15 32 20 18 -1 45 57 27 28 57 67
8 5 2 7 9 0 8 26 26 26 37 30 42 74 122 111 96 -21 248 323 167 134 157 180 148 150 126 102 77 54 44 -2 7 38 36 35 35 38 142 90 41 46 40 28 21
15 -3 -12 9 5 -7 -22 -31 24 25 37 30 23 82 110 36 92 119 237 344 247 198 169 126 160 142 152 135 117 82 65 47 60 25 15 54 59 101 128 100 39 30 111 93 76
1 9 9 4 -16 -9 -25 -26 -12 20 19 34 67 113 97 10 71 107 141 292 308 157 131 130 203 198 105 115 124 105 56 51 88 17 55 70 55 44 111 125 140 128 100 139 176
-35 -39 -15 33 33 20 -3 -18 -42 -26 30 53 92 93 88 102 73 60 86 221 287 139 111 173 159 149 139 163 104 79 87 64 68 39 63 96 18 82 69 62 112 153 174 190 192
-8 -38 -25 -2 -23 -4 7 -34 0 -28 59 149 94 127 66 83 104 43 106 135 202 226 185 85 208 194 141 123 77 75 87 88 122 48 78 67 80 42 52 121 158 177 174 175 147
7 -4 -21 9 5 14 -34 -42 -25 36 60 89 100 89 103 144 178 183 92 184 217 178 169 165 87 129 115 112 78 69 54 72 91 34 34 55 50 46 89 81 100 109 111 100 95
66 31 15 15 8 0 5 -11 -12 47 44 33 104 30 119 139 127 156 65 160 155 201 160 274 171 116 119 86 92 90 59 58 46 62 41 43 61 86 131 138 123 119 92 92 106
94 28 -12 24 -9 -15 -17 -37 -51 -17 48 38 54 75 100 111 47 65 71 171 324 227 179 134 162 120 108 91 119 64 39 68 66 47 53 43 57 99 124 97 98 74 91 105 110
60 10 -13 34 -97 -65 -57 -32 -24 46 63 42 44 21 115 167 94 143 90 404 243 269 279 261 175 114 112 33 88 60 74 86 78 46 59 70 77 50 148 86 99 54 86 100 114
23 -3 -27 -31 94 -96 -63 -80 44 43 53 46 14 38 74 280 125 157 211 330 267 348 291 205 172 152 102 98 98 84 137 157 117 77 81 62 98 40 158 123 125 74 86 110 116
-7 7 66 158 230 175 94 -5 75 12 88 39 63 80 76 152 188 126 361 286 372 345 268 316 213 185 165 206 199 167 178 158 141 143 82 98 136 41 63 90 176 151 117 142 131
-33 35 67 206 189 240 138 106 31 8 37 106 68 108 148 166 195 85 372 317 388 344 386 283 273 166 154 119 122 122 126 160 123 124 116 140 106 66 36 63 226 203 168 150 135
27 68 102 168 332 247 30 76 -11 19 103 28 116 157 205 205 131 149 184 260 340 343 290 179 257 208 161 185 135 120 108 60 131 138 146 113 83 49 77 203 227 243 186 126 103
8 44 34 221 271 63 61 22 14 14 28 136 91 86 240 153 214 157 149 236 179 153 198 160 156 179 154 154 130 100 85 127 136 120 109 121 88 60 68 151 222 203 127 93 79
1 -32 5 156 48 9 10 47 15 2 66 72 39 4 46 144 141 241 159 194 253 72 97 129 117 201 153 121 90 119 116 119 104 90 81 96 63 57 44 119 160 83 70 94 127
-23 -31 50 68 17 15 26 69 41 12 117 190 85 157 125 113 126 144 171 222 154 71 94 144 98 190 126 97 76 59 49 85 84 63 71 49 47 52 33 60 85 68 92 108 122
-25 -41 4 -2 41 64 17 35 91 123 100 44 198 252 232 212 198 242 150 154 116 104 100 104 115 192 131 98 90 62 80 82 103 83 48 50 47 65 110 80 116 140 81 100 204
-27 -17 24 18 83 68 21 34 47 89 291 179 151 171 237 281 195 163 84 120 94 92 90 83 81 69 72 43 83 82 87 97 99 84 67 78 79 88 97 134 120 64 25 178 247
-21 -4 15 54 62 29 4 29 49 82 72 111 153 86 39 112 145 45 67 93 96 117 95 65 53 59 88 63 75 64 89 86 96 103 59 53 47 66 82 71 26 27 137 207 206
-14 -14 38 50 58 67 56 29 36 52 67 93 93 98 61 38 45 80 100 112 96 112 95 103 75 82 83 84 59 50 58 49 53 66 47 48 -5 54 75 76 103 109 111 117 134
21 -2 15 56 39 28 51 27 5 29 91 97 57 164 139 113 104 125 117 123 124 141 138 109 95 111 82 85 55 28 30 61 74 80 43 5 57 77 79 85 102 51 72 128 217

GFSSW_con_3kmhel_003.txt.gz
Helicity
102 92 107 110 105 78 91 93 107 89 98 82 61 40 50 87 123 130 145 140 153 166 238 150 135 124 127 103 79 74 68 35 53 44 66 92 140 133 167 132 76 43 2 8 27
84 75 76 59 70 95 123 137 129 113 125 107 97 76 45 70 96 102 107 94 152 215 250 164 157 148 127 95 101 119 67 19 34 38 63 102 108 162 115 172 102 56 33 55 99
49 51 47 28 20 25 43 84 94 99 93 93 84 69 80 87 83 -39 48 66 121 179 214 230 188 163 131 112 117 106 65 53 54 17 40 47 63 39 85 73 107 39 36 42 103
68 46 28 26 11 21 15 32 54 67 73 59 53 63 69 102 90 13 23 20 49 163 249 195 263 204 150 133 127 105 56 47 54 20 20 43 17 -10 35 60 68 41 35 61 88
69 37 14 27 16 -1 -6 26 33 47 65 67 51 58 111 140 153 68 202 142 79 152 183 164 222 229 161 133 127 94 51 41 36 26 -8 28 -16 -6 -35 52 56 45 10 20 77
52 19 9 8 -1 -8 -16 3 21 36 64 56 35 43 130 71 58 11 91 234 134 143 144 155 145 200 144 118 124 63 52 47 33 22 2 12 5 -26 -23 39 27 19 48 46 57
43 14 7 -3 -7 6 12 4 14 17 40 36 44 85 90 64 69 60 69 185 149 142 129 135 179 167 146 116 88 69 51 34 4 42 24 43 2 -24 65 64 17 29 53 81 64
44 26 17 -3 11 12 16 -2 -4 24 28 25 24 79 67 25 33 171 213 123 153 191 109 104 129 155 152 142 116 89 71 29 12 41 20 89 63 45 77 51 126 84 107 110 109
36 3 -12 -9 22 22 15 3 -17 15 28 32 74 81 23 20 57 110 153 150 120 194 122 123 147 126 179 139 128 114 22 35 80 9 40 63 87 102 72 85 134 120 142 128 110
31 4 -35 -14 8 37 5 0 -30 -59 58 86 79 64 52 70 50 98 81 156 166 211 149 173 210 171 174 157 101 89 59 70 72 51 41 56 85 85 40 37 78 110 119 134 153
41 13 -36 -29 3 12 3 22 -28 -79 -67 116 62 99 59 82 39 102 76 178 184 258 169 160 253 193 109 67 115 65 63 94 69 65 -2 30 44 46 14 -3 117 115 128 131 150
60 15 -15 -32 13 40 98 94 36 -73 -29 -40 67 19 67 75 120 132 90 198 229 216 211 221 107 82 94 120 84 85 66 63 62 57 -1 9 15 35 28 62 91 118 116 103 110
55 38 -32 -31 14 59 73 44 38 -55 18 -53 23 25 60 86 120 149 111 185 222 230 188 198 147 137 98 101 71 65 49 47 42 77 12 13 2 71 85 103 97 98 105 113 106
29 12 -25 41 24 38 92 32 -43 -33 48 66 58 83 57 144 87 110 77 151 279 187 152 163 189 153 105 103 93 74 55 47 54 48 24 28 10 28 83 109 79 104 98 94 85
39 20 4 81 -7 -42 -3 16 -105 -110 -34 42 77 84 77 134 46 32 108 142 159 276 272 250 175 106 97 138 140 31 30 46 49 52 31 52 45 -2 98 85 74 78 70 77 72
28 38 -26 125 -10 -77 2 -48 -146 26 -17 49 64 57 76 90 26 26 66 80 179 279 265 215 172 107 95 59 79 59 123 141 99 59 16 60 104 34 99 105 121 92 61 71 70
26 32 111 141 186 85 3 -20 24 16 4 -2 48 37 62 32 -33 73 83 123 234 248 205 266 185 149 184 161 137 140 172 147 106 109 31 53 93 44 28 74 149 144 82 70 80
26 45 103 245 177 186 22 33 18 -25 25 27 49 74 53 24 83 88 133 184 239 260 380 262 223 109 163 133 137 159 124 132 70 65 33 123 72 49 51 35 82 183 128 103 72
-17 52 151 201 279 143 89 61 -13 -42 -14 54 89 82 87 61 130 118 245 353 262 204 344 314 242 275 208 209 175 199 152 88 100 95 83 91 70 54 57 80 126 196 160 83 65
19 50 67 140 215 83 86 11 -37 -4 -10 41 75 101 186 101 92 116 403 367 278 216 284 258 292 293 233 207 256 138 135 151 158 98 76 111 74 65 72 54 85 161 111 48 101
38 25 24 126 91 -3 -3 -18 -43 10 9 39 37 103 115 131 48 128 249 190 223 173 186 172 177 270 178 155 154 223 169 192 114 103 85 90 63 41 42 37 62 92 27 81 122
-7 -40 30 28 13 20 2 7 -44 -62 2 30 48 77 146 178 130 69 184 165 242 176 204 201 111 194 193 145 122 131 99 135 124 84 88 47 24 44 36 60 82 34 109 118 102
-6 0 1 -2 30 61 22 5 -32 26 23 16 34 83 149 180 190 178 154 219 180 137 158 133 134 160 203 159 141 99 104 112 113 88 23 45 30 71 82 69 65 97 121 136 151
-7 -3 13 11 33 27 33 14 18 77 81 110 107 52 112 133 197 214 213 219 176 138 98 105 93 82 141 88 110 119 109 112 121 74 64 78 71 75 102 117 149 178 123 144 207
-8 4 13 17 8 -1 14 22 23 122 91 143 181 157 35 131 167 200 205 208 143 109 108 84 60 84 129 95 112 93 150 172 159 157 107 60 78 109 117 123 104 98 119 133 184
-1 6 32 33 20 9 10 40 13 101 78 110 134 115 133 129 189 177 138 156 112 130 119 109 69 98 119 133 94 80 88 115 129 105 82 75 63 71 142 178 169 125 101 121 164
11 13 1 34 13 4 39 4 20 3 23 62 60 87 83 179 233 41 66 110 81 101 119 99 76 95 91 93 90 79 51 87 106 101 89 86 87 185 156 124 129 112 60 47 96

GFSSW_con_3kmhel_006.txt.gz
Helicity
75 102 108 94 84 77 101 118 114 131 126 125 91 77 46 49 78 76 105 102 102 137 255 176 125 123 127 126 113 91 82 45 47 38 58 75 69 48 78 82 161 71 34 24 23
57 68 58 73 87 62 66 85 102 106 74 65 79 80 70 89 57 38 60 63 102 155 215 233 154 151 149 133 126 111 66 15 36 36 38 94 41 68 36 95 151 142 65 47 29
54 41 43 53 41 37 46 53 69 87 117 122 118 116 113 126 30 -37 -17 23 59 154 193 272 235 174 127 135 115 89 59 51 55 33 -2 59 75 -18 9 33 89 106 64 12 12
37 15 52 49 34 23 29 44 51 66 81 111 123 109 108 148 4 12 29 17 35 114 172 218 263 214 138 140 124 84 57 55 51 37 12 37 45 29 -19 27 79 76 34 11 17
26 34 43 49 38 35 34 39 51 45 55 56 63 80 142 132 84 46 85 299 126 145 145 199 253 208 158 137 137 94 70 48 44 45 -0 -7 45 47 -63 27 54 34 16 16 5
24 35 56 68 34 21 20 24 33 44 56 46 54 72 140 61 25 60 6 157 214 160 140 170 196 188 138 104 115 36 53 57 30 25 -0 -4 39 -51 6 36 27 -8 -27 22 24
18 35 41 52 26 -1 15 15 26 35 43 39 61 107 86 33 32 96 29 57 196 137 104 110 155 187 141 129 81 93 55 43 15 3 16 -20 -20 48 137 106 37 14 -43 67 92
31 68 51 27 11 -5 6 9 13 20 12 21 35 140 51 -0 23 77 121 111 121 118 79 111 73 182 154 128 120 107 77 16 -15 49 39 11 104 181 84 67 61 63 48 113 145
72 85 48 23 -3 9 49 25 11 23 3 18 89 102 6 8 16 20 84 156 82 129 138 80 110 166 135 118 110 99 40 26 82 49 27 21 8 54 66 88 88 64 82 106 158
63 56 38 9 -17 2 48 49 24 67 23 83 123 84 48 45 44 41 57 129 97 127 147 135 156 171 174 151 156 105 76 60 70 78 29 15 55 122 72 74 55 39 84 113 146
67 65 37 11 -43 -5 71 106 183 100 119 153 126 147 78 41 31 56 91 104 116 191 214 153 206 186 154 117 106 80 89 72 100 70 7 38 27 99 65 17 26 60 97 130 155
38 39 51 5 -21 17 178 220 187 69 73 2 71 24 12 -42 45 82 87 132 185 194 210 181 162 102 144 146 108 105 91 74 64 72 -30 19 19 66 31 8 28 85 111 110 108
27 35 14 3 -16 57 194 185 148 109 28 20 -8 8 36 11 61 61 86 146 177 174 154 213 115 87 140 154 96 73 45 49 54 30 -29 -27 -42 41 55 79 84 123 126 103 96
44 77 90 -5 70 65 130 134 67 177 -16 1 21 18 32 64 75 67 67 143 147 133 148 208 111 180 166 132 108 51 22 47 81 33 -15 -1 -34 29 44 79 108 124 103 81 72
54 43 103 28 -7 62 82 218 28 -82 114 39 58 29 67 90 77 66 63 91 139 201 251 228 89 108 136 79 99 30 13 14 52 18 -15 -9 17 -22 49 76 75 93 86 47 60
39 59 43 51 43 13 75 52 -38 32 64 59 35 71 77 42 100 116 118 77 102 165 200 154 140 147 150 127 88 77 68 89 93 52 -7 -1 69 24 39 104 125 102 78 46 64
44 37 138 116 132 21 69 54 126 199 59 63 48 74 42 70 70 41 44 82 156 251 155 163 127 169 115 144 152 182 126 89 89 102 47 39 51 70 24 38 88 128 78 51 57
37 45 128 199 137 134 96 152 141 89 52 23 80 69 57 61 65 61 114 91 132 203 328 213 169 149 140 134 121 111 140 137 103 70 29 59 36 24 41 36 26 105 128 86 64
8 48 143 143 197 216 143 183 56 40 21 -0 79 100 33 -99 98 66 13 84 124 160 319 253 234 212 170 142 152 109 103 97 111 90 33 36 50 48 56 61 72 145 181 91 72
61 57 61 115 213 253 108 78 38 77 75 74 69 86 96 89 176 86 85 75 57 130 227 237 209 236 231 167 184 95 127 150 157 77 52 54 48 48 64 67 60 119 137 116 99
52 61 51 140 52 179 77 81 -13 64 -1 32 90 65 -7 142 97 148 99 139 157 158 181 203 215 247 173 157 202 243 223 207 145 132 85 70 59 17 36 44 46 57 114 120 101
45 59 48 81 -17 95 33 15 -23 -11 46 55 65 64 83 187 89 101 168 168 140 174 205 209 136 233 259 211 175 176 155 182 153 141 124 60 34 11 5 15 113 120 128 92 80
39 51 36 17 26 110 6 20 -57 -86 16 22 48 55 104 152 86 64 187 185 182 162 141 143 152 256 240 190 240 170 182 188 160 139 75 71 57 46 64 90 96 119 95 96 146
35 17 36 28 2 40 47 26 -29 -40 2 23 38 43 119 158 126 85 82 129 175 164 151 144 127 121 146 123 158 137 169 194 189 112 93 87 62 53 78 116 129 134 139 116 171
38 11 21 -0 17 56 54 81 16 30 22 40 16 69 100 204 241 106 147 178 126 114 161 119 110 118 123 119 188 144 157 195 169 144 120 55 87 93 100 132 138 129 125 138 147
27 39 20 10 -0 68 9 -3 81 115 38 53 -55 83 123 176 159 158 179 202 180 131 104 128 122 150 124 137 120 115 123 154 208 208 198 155 113 118 138 139 160 178 191 128 131
34 46 17 23 3 15 22 10 20 70 44 104 134 168 112 135 128 164 121 171 146 100 131 109 98 93 100 88 97 98 64 121 171 183 180 165 127 143 180 179 205 211 149 120 99

GFSSW_con_3kmhel_012.txt.gz
Helicity
49 47 56 68 78 94 119 130 160 151 161 117 114 77 67 65 95 60 85 83 68 66 177 188 181 134 140 144 125 119 104 58 35 58 67 45 72 74 34 49 73 59 67 95 71
35 53 58 67 65 74 88 103 108 123 126 99 113 128 104 105 60 60 42 38 45 83 134 166 160 144 155 158 143 124 98 39 48 47 54 44 77 96 57 47 85 53 37 68 81
30 48 63 74 81 80 73 72 89 88 93 112 133 134 145 80 119 53 17 13 38 67 100 135 211 217 111 141 150 120 59 50 35 33 55 56 55 51 59 24 53 86 97 107 112
27 40 49 71 67 67 76 63 59 58 52 69 94 118 109 102 177 114 127 116 68 44 97 130 169 250 194 127 114 118 64 69 44 44 38 42 42 49 51 42 75 94 79 90 75
19 9 3 50 63 66 73 65 57 42 43 44 64 124 156 193 183 124 83 94 112 94 67 93 154 196 163 113 84 84 59 43 42 41 37 50 32 39 15 128 89 85 66 30 62
23 25 17 27 10 51 52 43 41 39 24 32 53 97 127 169 111 90 120 156 87 60 98 100 178 114 187 112 77 56 56 36 44 40 42 36 49 -19 37 93 56 43 42 33 31
26 37 61 77 54 39 50 38 29 28 21 30 48 70 117 84 86 88 92 90 90 72 62 90 74 190 160 109 91 55 46 20 56 38 35 30 21 8 74 42 68 60 42 54 60
25 36 51 75 60 61 61 27 22 24 32 50 76 87 137 77 40 88 109 93 66 79 65 85 108 189 213 158 69 73 56 49 43 18 41 25 25 34 35 25 74 90 103 91 75
27 37 62 82 73 53 55 22 26 30 50 85 125 149 126 116 92 51 51 70 95 82 46 119 122 151 136 193 122 97 65 39 74 17 48 18 34 50 27 61 63 72 111 91 88
32 30 59 95 104 79 49 43 53 134 113 127 135 152 140 79 66 46 32 47 66 83 84 128 106 155 165 207 167 106 102 66 55 50 49 27 25 58 58 54 43 66 65 70 81
46 29 50 93 106 113 93 139 283 233 241 264 131 280 198 49 59 26 63 80 77 100 121 89 163 59 109 125 145 83 51 29 49 80 106 83 59 63 96 50 36 43 63 69 93
51 30 47 54 82 106 112 276 237 198 235 154 233 119 158 104 49 27 66 99 74 18 72 95 84 89 102 123 138 103 81 35 61 78 75 104 39 75 93 43 46 52 66 80 102
56 47 48 67 71 133 155 126 128 258 173 149 194 209 134 25 48 26 48 30 4 30 42 117 6 88 145 45 93 108 73 64 91 82 65 56 41 43 43 55 87 76 82 94 108
65 55 61 80 102 140 156 223 247 332 131 138 196 127 37 50 -12 19 28 51 29 -29 -41 107 110 112 93 113 58 85 127 79 82 111 79 93 63 65 64 45 37 64 101 150 165
73 62 71 108 141 149 181 221 237 157 240 145 166 59 37 72 19 32 34 38 51 -71 54 127 94 112 60 98 46 87 57 63 94 116 53 45 45 87 92 58 36 76 102 151 162
70 84 94 93 81 102 204 250 246 182 313 170 115 132 67 12 19 70 40 55 46 -14 17 97 150 97 90 81 42 45 86 112 92 90 51 49 49 106 108 83 47 68 102 109 116
65 89 133 118 89 180 290 228 200 257 219 163 139 111 46 26 16 12 11 36 16 65 84 71 109 135 118 122 159 82 106 152 106 102 81 71 52 44 44 40 -8 32 42 65 83
67 87 116 142 100 149 363 274 222 171 301 140 74 39 24 24 11 32 29 -4 -128 229 59 128 127 104 139 78 155 144 89 194 135 118 59 76 77 77 72 75 26 24 64 94 88
58 137 152 146 179 222 369 325 263 251 244 226 128 21 14 9 -9 36 45 -3 -69 192 30 198 254 221 128 231 115 186 152 156 133 110 105 66 68 37 34 35 43 46 118 117 89
99 86 84 94 219 261 347 256 191 233 59 89 52 0 3 14 25 46 -5 -83 -51 148 188 16 259 146 214 232 252 100 108 128 131 99 97 81 84 83 71 95 47 63 93 109 97
67 82 71 166 282 430 335 194 143 176 168 66 -10 -1 11 8 43 48 -47 -93 -26 111 104 53 227 283 95 117 104 178 165 149 133 111 95 94 58 78 123 96 52 27 67 97 102
75 79 167 305 250 327 271 160 87 48 55 14 -2 -8 20 -17 35 89 -9 47 29 124 121 88 131 210 245 164 82 60 66 81 104 86 130 153 74 54 91 78 36 41 69 85 96
66 96 166 203 132 247 154 131 54 54 33 -12 60 35 -6 9 13 99 -11 34 2 70 142 146 127 143 144 142 141 109 99 40 56 116 53 80 66 104 54 47 52 40 72 107 124
80 94 112 120 106 116 120 31 -15 -11 9 52 17 20 -9 19 78 49 51 14 30 20 132 144 113 87 88 116 103 87 63 55 58 71 76 62 67 40 32 17 36 31 49 84 119
69 67 61 82 109 134 52 -11 -21 -20 -61 35 7 8 8 7 27 32 67 42 37 -10 22 171 136 92 111 96 0 41 112 117 107 88 85 26 28 19 46 59 35 69 121 151 154
68 71 47 28 -13 96 77 15 2 -6 -78 -10 12 -13 -17 25 37 17 64 21 50 -4 -32 142 136 128 77 87 61 62 66 89 87 55 33 52 28 66 94 83 92 119 169 163 146
59 45 43 8 10 8 94 92 43 -6 -40 -10 18 11 13 51 51 20 20 50 56 70 -19 45 97 97 101 89 88 75 54 67 66 59 67 58 8 79 102 108 106 149 157 146 134

GFSSW_con_3kmhel_015.txt.gz
Helicity
20 32 48 38 44 69 95 117 142 153 151 175 161 76 69 63 83 45 84 101 132 137 112 140 123 107 106 113 129 121 108 69 48 47 66 50 40 79 61 50 88 68 74 92 42
21 25 49 44 40 47 80 105 125 127 133 172 151 137 114 111 59 56 42 66 62 103 150 150 189 90 107 91 109 137 105 53 52 65 66 76 48 62 59 87 74 82 36 25 31
18 10 33 38 43 43 60 84 124 140 124 123 128 119 76 74 62 76 6 17 21 48 66 142 174 286 118 79 83 86 84 56 54 56 87 85 72 63 44 53 69 89 140 123 83
18 8 14 21 29 30 52 75 101 121 110 101 115 132 108 87 150 150 129 122 66 70 74 82 139 231 223 109 65 80 69 52 67 50 57 50 49 65 49 31 77 90 102 86 69
21 15 16 19 8 12 29 61 82 110 103 80 79 106 120 184 140 112 81 76 57 62 54 56 84 147 157 162 89 85 54 57 60 90 54 49 39 20 42 45 58 46 52 62 53
27 26 23 36 20 21 22 28 54 94 106 91 75 74 115 163 59 72 99 144 95 35 33 54 84 83 138 114 130 141 45 57 43 65 42 38 32 35 26 42 61 82 53 45 46
37 34 35 36 24 5 28 31 39 74 104 94 76 69 127 81 83 73 62 75 79 77 60 32 49 101 123 174 115 70 88 36 77 60 75 48 19 23 28 44 34 52 38 36 59
47 39 47 39 38 12 9 35 47 58 85 99 93 68 184 29 29 57 72 65 51 51 85 100 36 94 121 213 241 101 103 78 75 33 49 60 24 58 26 55 27 26 74 63 62
48 47 49 60 62 38 23 20 41 56 81 95 95 106 114 98 62 34 30 62 82 89 50 80 106 129 143 133 159 147 131 48 84 38 42 27 21 32 30 46 51 50 49 78 85
58 62 56 56 68 70 50 55 86 97 116 108 91 139 80 54 31 39 53 62 93 129 140 141 181 184 148 166 233 159 114 66 28 64 46 51 14 52 67 51 51 54 45 71 66
68 73 62 65 64 95 89 132 211 288 344 304 128 142 161 45 97 78 45 96 118 162 222 151 257 178 72 54 108 98 62 71 42 -4 74 46 27 42 33 49 49 43 60 72 86
62 72 64 72 61 74 105 186 242 256 304 142 109 90 107 187 149 98 87 144 185 209 124 124 173 119 50 122 117 184 56 65 66 34 63 67 39 41 52 52 44 45 56 89 127
54 65 65 83 114 122 98 104 251 269 246 216 112 135 162 213 215 118 68 63 114 76 84 61 40 47 71 95 68 222 108 107 100 60 46 86 43 37 39 38 84 69 82 118 105
47 65 71 142 162 71 101 109 264 192 271 301 229 224 196 337 204 18 45 42 53 31 -2 22 -8 127 49 61 64 93 124 124 104 121 69 52 42 2 55 77 75 81 137 169 158
53 49 85 141 176 111 121 169 245 133 343 190 174 84 131 301 130 56 29 14 17 -28 144 -29 -120 93 43 7 39 153 48 150 141 122 163 70 82 76 27 61 72 67 112 163 158
61 41 89 121 90 81 149 167 146 269 483 191 168 137 169 123 94 30 54 20 11 42 -35 -58 -44 75 -48 -84 112 194 162 171 168 142 86 76 45 122 33 41 43 73 129 197 181
64 63 124 110 78 216 211 211 249 397 318 223 205 178 120 129 2 19 37 -10 -24 -54 -21 -129 23 104 0 36 77 80 278 325 196 142 107 87 67 52 78 106 86 44 98 116 140
65 65 107 81 113 202 267 296 338 313 321 278 211 132 114 44 -11 2 12 -2 -6 -28 14 2 65 27 -5 97 96 117 111 250 248 129 82 62 67 75 96 100 61 39 67 94 91
74 77 199 117 184 230 359 331 428 292 291 232 170 134 60 29 29 3 3 5 -18 -42 26 66 37 53 35 80 125 210 136 165 267 268 120 44 70 15 64 77 62 56 90 97 81
129 126 153 155 231 277 340 412 279 222 216 187 139 60 41 32 4 -12 -15 -4 -17 -74 49 20 49 165 101 253 237 205 154 187 267 148 150 65 73 91 38 59 34 42 81 105 104
127 94 98 191 231 320 375 399 199 206 230 167 27 0 3 4 -5 -5 -6 -84 -98 33 106 72 258 298 320 174 187 117 217 183 205 216 175 90 79 139 98 68 29 25 80 97 124
94 75 125 185 218 292 317 344 143 89 202 54 -11 -38 18 16 16 18 1 25 -80 -14 40 62 18 430 421 196 65 72 102 106 132 104 201 199 102 79 86 76 35 34 45 92 110
98 93 107 188 139 203 276 180 132 105 47 25 -12 -6 14 22 41 18 28 -29 -5 22 33 1 131 215 256 195 216 162 105 38 87 126 72 82 79 69 52 41 21 24 41 103 106
105 59 137 170 81 92 191 128 104 61 11 -14 -16 -2 27 42 93 10 21 -10 19 23 63 75 122 148 80 89 115 103 62 19 34 77 63 55 87 41 54 46 21 17 54 80 91
124 69 91 80 51 76 165 117 -9 -11 -37 -1 6 11 33 35 65 42 9 -15 23 39 87 109 175 127 129 122 -11 -13 7 23 18 14 37 25 29 52 31 18 43 35 42 73 94
97 85 74 54 -5 45 147 230 4 -58 -35 -31 9 42 61 44 41 49 10 17 25 29 56 102 145 101 94 97 70 20 -3 -7 36 28 10 19 38 87 142 125 79 61 75 93 110
113 82 84 35 -16 -5 52 195 9 -22 -45 -62 19 16 26 45 31 52 8 10 23 17 28 84 170 103 68 52 74 64 30 41 28 6 21 37 17 35 78 76 58 61 77 88 129

GFSSW_con_3kmhel_018.txt.gz
Helicity
25 29 24 21 17 26 46 59 76 93 124 143 188 159 140 91 67 46 86 58 145 120 114 126 149 126 102 116 122 132 180 122 72 50 54 50 62 35 68 48 95 95 85 7 -16
25 27 25 29 27 32 42 54 64 72 96 150 152 157 183 124 80 57 23 38 63 90 97 106 149 116 110 118 134 187 190 125 82 42 68 50 55 52 95 55 103 118 89 55 5
31 33 28 27 22 32 46 51 50 61 67 103 140 185 178 148 115 42 30 3 29 65 71 109 160 207 209 116 103 116 142 126 65 63 63 72 139 123 79 67 68 100 97 134 123
31 46 39 31 21 31 44 65 70 65 64 74 102 131 137 161 123 135 125 123 116 86 69 74 92 164 199 125 87 99 87 83 89 45 57 101 81 65 58 47 67 119 71 104 149
29 40 48 44 28 34 36 42 50 50 53 63 81 116 185 222 152 145 108 51 11 57 75 53 77 116 140 225 121 86 106 68 65 98 94 75 64 32 27 44 43 69 85 60 49
22 35 46 50 39 37 37 45 40 29 41 54 69 95 162 139 93 104 104 88 120 103 62 74 98 89 162 124 148 171 85 98 81 78 72 103 59 46 26 36 48 44 95 82 58
19 29 38 52 45 39 31 38 36 26 31 47 67 91 147 112 111 108 132 55 54 75 120 33 48 105 143 158 178 141 124 91 71 84 107 30 32 21 23 25 34 53 51 47 144
28 24 33 41 49 45 51 41 46 30 34 44 58 81 175 75 48 52 110 60 31 44 71 109 124 73 104 136 178 217 159 134 53 151 79 77 22 23 40 54 51 70 59 108 136
32 33 31 32 56 58 60 57 71 48 56 61 82 115 117 100 76 49 51 50 52 45 46 47 127 130 143 150 190 131 203 114 117 138 107 56 20 23 27 27 76 84 66 102 101
26 42 39 40 59 75 77 78 88 108 96 100 106 141 87 45 51 11 38 29 52 84 103 82 134 159 159 205 207 224 184 170 123 115 127 66 31 68 70 114 79 48 68 153 134
37 45 54 53 58 99 122 114 149 157 213 275 118 148 189 74 92 64 27 53 70 94 133 130 196 193 161 149 96 132 133 95 101 101 45 35 6 47 56 62 56 67 73 155 218
38 64 66 59 56 88 134 150 134 173 134 133 103 163 53 170 113 68 81 116 110 117 122 153 155 135 124 116 82 96 115 126 87 47 54 1 48 39 58 42 66 74 79 144 300
47 53 66 68 83 106 103 96 135 158 171 230 201 194 155 125 134 86 105 108 118 106 137 195 169 82 107 130 145 98 78 96 68 19 121 96 79 50 52 56 74 88 74 243 316
49 51 75 140 110 74 66 41 136 142 176 244 265 194 169 274 252 115 133 134 185 140 113 132 75 103 132 126 149 133 22 81 63 49 169 100 56 -6 61 49 47 74 153 307 345
58 53 81 101 110 80 116 113 137 82 205 192 199 106 101 290 284 84 211 135 160 130 160 201 157 122 86 80 103 91 26 19 36 82 216 161 66 37 77 66 67 144 114 317 381
51 53 81 60 62 127 105 87 106 204 293 285 262 186 191 171 201 223 109 34 61 35 51 58 75 73 -9 39 31 15 -39 69 50 99 143 103 78 41 104 131 144 137 193 348 399
49 60 104 119 88 222 140 150 194 261 287 244 202 178 126 170 162 119 115 45 125 146 76 20 -25 -1 -32 -48 -68 47 -63 6 149 232 111 83 83 60 107 230 103 162 265 344 415
48 63 97 119 193 257 185 183 206 185 342 357 244 185 151 154 108 96 87 39 38 2 -28 -63 -40 1 -4 2 -24 -66 -34 113 105 377 300 194 101 75 113 129 171 218 268 337 331
57 81 156 172 255 212 191 250 301 265 353 273 231 187 164 93 36 51 -10 -22 3 10 -13 -52 -13 -49 -70 13 -13 -245 -113 44 213 166 258 203 147 148 129 216 141 158 241 234 213
94 127 152 223 327 255 211 293 300 323 354 240 144 102 121 79 65 11 -13 -5 25 -38 -14 -74 47 -43 -18 -73 49 75 103 115 236 188 164 103 95 87 93 95 117 150 193 184 170
105 104 86 278 323 253 337 249 305 415 309 156 135 80 16 87 48 -3 -8 9 -2 -26 29 40 47 61 107 -28 -18 74 74 163 90 210 202 226 202 79 66 70 47 116 183 195 183
109 117 101 165 202 283 309 273 359 274 185 81 101 53 -6 31 43 21 53 5 -5 -19 66 29 58 114 74 64 20 140 153 216 257 195 232 181 177 113 97 73 48 36 175 192 200
106 123 118 161 140 214 256 231 294 241 108 87 39 24 16 6 25 47 31 4 -61 66 -30 47 93 97 107 90 226 70 115 210 304 204 199 272 148 62 79 63 34 44 164 201 219
131 93 131 154 156 131 114 166 211 137 78 77 -19 6 36 8 25 -1 44 26 -11 97 32 -15 146 113 107 53 78 81 -8 72 141 179 213 211 101 56 63 39 11 25 97 198 228
125 87 90 64 59 108 128 75 79 33 49 51 -41 -7 17 25 40 71 -18 4 9 25 28 46 67 119 242 107 93 83 12 13 46 40 91 105 84 17 38 19 -16 11 113 182 189
101 104 94 59 44 3 59 158 126 29 -31 -21 -20 -32 36 47 47 29 -1 40 33 -5 4 80 82 235 52 32 101 63 22 45 28 38 37 43 65 46 102 71 34 48 94 145 148
157 106 112 71 -8 18 24 124 73 42 -104 -36 44 28 25 71 52 11 -29 -25 12 5 -12 24 57 113 73 47 75 100 52 36 19 40 34 37 10 58 129 148 88 89 110 158 161

GFSSW_con_3kmhel_024.txt.gz
Helicity
2 7 26 31 38 30 30 37 45 67 100 122 134 122 68 77 108 89 63 48 67 68 84 117 129 169 164 151 167 201 237 188 154 125 45 91 161 117 70 62 52 84 75 77 54
2 6 14 27 35 32 35 43 51 69 92 100 128 155 162 136 110 82 47 49 42 49 84 96 151 224 212 187 194 235 255 219 178 118 60 48 62 109 104 114 69 82 131 100 81
13 8 13 26 38 41 44 46 52 63 79 92 117 156 147 126 116 48 12 13 44 87 89 99 111 156 172 159 203 208 200 215 146 75 82 16 83 73 154 89 73 57 113 188 125
23 15 15 28 39 48 55 52 50 56 64 85 111 138 146 135 77 81 56 80 43 76 119 115 127 148 164 171 140 154 175 155 99 92 80 47 6 173 148 109 71 64 67 133 148
19 21 17 27 40 50 57 53 47 47 59 69 81 101 126 133 149 151 142 128 86 56 70 89 126 145 148 138 132 129 95 125 81 33 49 56 27 43 75 110 97 63 56 40 64
21 28 24 28 40 54 61 56 48 44 48 49 63 81 88 86 60 84 111 153 113 75 56 84 89 108 131 123 140 203 217 107 101 64 66 63 33 33 23 77 63 46 27 41 36
36 39 41 35 38 51 59 61 54 54 49 48 49 51 66 51 62 148 107 82 114 78 91 66 47 201 189 156 134 97 86 94 135 104 65 92 -30 -93 61 89 69 36 33 55 47
47 61 54 42 39 49 55 71 76 71 60 65 71 70 51 36 50 16 66 107 79 72 40 72 125 189 176 175 195 151 103 96 133 137 67 84 -121 81 81 96 73 23 24 35 56
59 71 63 48 44 47 69 75 80 71 67 74 98 81 53 54 74 64 93 89 103 74 37 41 114 146 202 175 130 134 136 163 147 98 138 152 -32 55 58 75 65 45 25 51 79
44 68 61 45 44 49 75 89 90 104 97 93 118 94 63 85 62 53 106 85 123 152 151 144 235 200 204 215 180 125 149 133 149 138 122 68 31 69 77 65 48 41 32 53 87
43 49 48 41 50 67 142 125 123 120 152 153 89 105 101 64 66 84 78 136 146 216 235 186 257 229 133 149 153 132 143 127 154 139 131 119 48 39 9 -2 54 46 34 67 85
46 52 49 41 55 96 150 128 99 120 85 65 57 84 104 138 162 115 130 187 216 191 195 242 207 137 95 103 127 125 122 105 98 66 107 108 94 66 34 4 33 56 42 114 138
45 57 48 61 95 127 91 80 87 99 78 49 100 129 113 142 161 127 163 165 195 163 177 188 182 72 119 118 150 125 117 116 105 68 42 62 37 51 14 29 65 23 0 117 191
43 55 67 142 174 134 85 72 82 85 77 30 82 39 34 37 90 84 139 158 174 150 111 143 88 162 95 134 142 133 112 95 90 101 126 169 50 46 24 57 63 39 62 88 176
31 25 143 204 126 130 69 92 104 66 161 63 64 19 43 37 82 45 50 157 160 183 238 225 146 100 89 96 98 96 122 109 114 129 119 92 145 -43 7 63 66 38 81 114 249
59 41 164 219 157 96 102 108 88 157 136 78 76 54 59 35 84 111 75 57 104 143 170 182 244 171 143 78 132 156 113 126 119 123 152 76 147 -65 51 60 56 57 108 150 277
69 55 160 168 109 128 151 144 177 169 91 85 55 24 66 80 72 93 123 153 217 213 239 237 176 303 205 143 131 141 169 221 205 230 205 22 142 81 49 40 48 77 161 204 312
61 47 162 226 165 208 179 198 157 101 119 106 33 39 95 90 97 83 113 125 81 153 202 174 164 206 184 146 178 121 139 286 203 218 82 86 109 15 -113 -131 46 8 63 334 482
171 -27 217 196 225 196 227 182 103 83 108 66 55 56 87 67 81 77 87 98 92 134 117 137 95 149 134 179 169 146 180 77 210 144 133 77 57 52 13 -17 -44 55 217 367 512
93 93 318 255 259 228 216 131 86 115 148 103 46 48 109 80 96 72 78 54 82 105 81 63 81 70 128 161 12 44 127 164 195 187 204 130 103 -22 -30 42 42 151 220 325 384
34 172 173 198 230 277 259 128 119 126 138 82 41 95 95 111 114 76 45 12 70 47 123 80 2 -52 3 -37 -16 -41 -48 4 133 91 13 -84 -151 -71 25 94 123 164 222 311 359
95 100 158 274 308 279 137 152 108 103 119 127 92 102 101 93 65 52 49 36 39 43 138 135 21 -14 81 50 -8 6 62 -22 -85 -146 -144 -77 -108 29 34 149 122 173 179 269 312
39 186 150 169 182 193 136 99 121 133 125 73 93 96 58 63 18 58 61 53 33 69 25 170 32 108 60 49 113 -51 -15 -73 -48 -212 -345 -54 64 -3 90 105 140 256 230 257 299
180 105 242 173 168 160 119 98 91 63 84 136 158 81 65 -6 -15 -1 17 14 53 27 86 47 58 150 38 -4 -39 28 7 -27 -108 -257 -150 94 94 142 96 83 133 165 208 217 205
184 189 175 110 121 66 74 -3 41 40 31 49 41 55 14 19 6 21 67 8 -31 19 127 92 166 164 271 191 69 -3 76 148 138 31 139 78 40 146 32 29 54 112 147 171 173
166 174 177 101 91 90 43 20 12 59 69 87 49 10 36 28 15 6 47 42 50 114 210 228 243 209 261 109 59 7 90 139 113 120 101 493 232 51 58 87 69 73 119 137 170
62 151 155 58 57 39 73 64 -25 32 43 32 44 25 16 21 18 51 46 5 20 117 217 152 287 250 113 -29 -19 44 123 225 155 170 253 109 44 68 58 46 21 27 68 118 164

GFSSW_con_3kmhel_027.txt.gz
Helicity
19 14 7 13 23 30 29 37 46 48 51 63 110 109 34 57 73 92 70 74 56 41 70 83 93 108 110 140 173 199 227 134 119 126 104 37 123 144 142 146 134 97 74 63 77
10 12 5 8 17 24 26 35 47 55 47 60 102 145 120 94 102 78 15 40 35 62 107 115 119 131 134 145 196 234 236 179 161 137 69 48 76 127 150 162 123 101 81 87 106
3 18 9 6 16 22 23 30 34 46 41 59 90 132 137 140 89 43 23 28 40 80 109 128 125 133 149 160 211 231 189 171 164 94 64 27 35 13 92 104 103 73 63 69 118
12 19 20 12 17 22 26 32 31 38 38 58 79 97 135 127 47 54 37 51 35 123 121 125 137 152 146 164 150 193 157 129 105 87 78 56 22 62 115 111 137 160 82 94 95
38 25 23 21 19 27 31 37 38 41 45 58 60 93 132 104 76 93 121 120 72 83 82 112 169 173 154 127 132 147 90 101 86 58 40 38 42 44 55 95 115 130 140 79 52
50 51 35 33 26 31 33 40 42 46 50 48 50 68 96 69 56 73 128 166 139 116 108 108 113 112 145 129 127 130 124 75 91 77 35 35 20 40 1 41 112 119 135 107 48
35 59 52 48 36 35 38 42 46 51 59 58 57 66 69 45 68 93 129 105 149 129 109 90 98 172 230 123 110 109 84 74 64 91 61 68 -38 13 25 15 57 83 116 92 73
30 43 80 62 41 40 41 43 57 67 71 68 77 76 38 59 77 27 76 108 106 66 77 86 92 185 180 188 173 138 103 74 62 100 109 91 -54 62 80 60 47 61 94 75 47
32 22 49 58 46 47 50 60 79 85 77 69 100 79 40 77 88 55 91 111 134 110 102 92 143 195 209 190 152 137 137 116 108 96 124 115 20 14 46 116 80 61 72 59 17
47 20 55 72 45 54 51 108 97 107 103 85 117 80 65 83 85 69 58 95 142 165 166 171 206 207 230 224 226 155 150 95 66 102 144 107 7 8 25 93 115 55 67 50 41
42 40 32 81 75 56 139 169 145 119 138 136 64 52 86 99 101 107 101 175 189 247 194 222 277 287 185 159 163 145 130 112 132 131 81 66 13 2 30 25 78 34 46 32 8
171 48 39 81 87 99 197 179 109 116 91 33 78 64 118 161 142 147 141 208 223 212 221 266 207 212 166 144 132 145 126 112 61 55 105 75 9 20 61 48 44 53 35 26 38
224 77 53 76 100 188 114 120 86 94 93 76 102 104 96 117 132 123 158 190 182 215 234 212 236 116 187 158 159 145 127 111 87 85 74 53 -18 26 70 74 50 50 63 39 48
179 56 48 47 200 194 134 112 81 85 131 64 94 106 114 135 72 86 116 169 194 173 174 194 162 138 175 156 151 122 102 95 109 120 139 146 -68 -11 97 93 76 73 80 13 41
140 202 111 202 242 252 135 159 99 106 162 88 109 62 70 66 79 81 54 116 157 195 250 218 157 140 143 123 97 138 97 70 97 137 126 120 141 -156 -62 98 72 82 115 88 61
42 63 169 301 263 178 145 172 145 213 179 89 77 75 77 44 65 103 87 72 162 164 153 175 129 163 168 92 135 166 110 115 146 175 198 131 177 -158 -26 55 62 70 91 85 89
3 117 77 312 271 155 200 232 254 213 118 103 99 89 60 59 70 86 134 146 185 176 186 196 159 258 207 146 126 116 179 261 251 290 288 89 137 127 67 93 50 57 95 101 133
-30 77 52 329 172 178 209 345 234 123 159 53 97 82 58 72 87 88 122 112 117 174 225 204 203 228 281 245 263 225 206 335 302 302 174 70 133 132 -9 -8 27 183 51 92 164
84 -44 -48 242 198 177 248 265 138 135 114 96 101 67 58 39 84 64 89 94 111 127 163 180 192 188 164 227 294 245 154 106 258 219 176 140 114 36 44 41 30 28 73 175 154
3 -93 4 210 179 184 243 170 148 122 117 85 81 28 51 71 80 72 73 54 69 182 123 103 118 100 43 17 84 132 131 170 191 179 172 120 77 27 24 22 91 70 43 156 233
11 -16 39 310 340 230 194 156 97 78 96 83 71 72 50 97 102 106 61 32 57 46 154 104 95 19 93 131 174 110 104 212 176 181 198 93 1 -49 -64 1 58 135 114 170 221
79 56 224 405 274 240 241 115 78 67 90 111 74 49 73 81 75 85 62 41 32 90 119 149 133 81 129 121 117 158 136 175 154 207 175 75 -71 -13 -63 1 40 147 145 136 190
59 54 264 237 292 279 147 113 72 98 76 45 46 37 57 93 47 78 57 1 80 104 62 131 33 75 63 87 82 146 18 12 -33 -30 -58 -17 64 35 38 40 63 158 165 201 213
65 165 298 171 178 185 138 77 83 79 86 93 80 52 72 48 47 21 -21 -8 10 90 108 110 85 222 213 109 32 96 129 79 86 79 127 119 225 -19 209 161 29 119 154 199 205
59 139 197 122 154 128 85 35 49 44 23 36 22 63 65 47 -5 -6 -49 -5 -41 64 82 165 193 253 301 246 75 89 -5 106 250 141 135 43 156 98 46 95 81 78 196 196 160
115 87 123 129 93 108 44 29 5 5 30 20 21 47 27 24 12 22 27 -6 -12 65 131 170 188 221 319 286 218 96 23 34 87 51 -4 46 186 150 285 218 98 128 121 118 112
27 122 159 65 99 58 68 20 4 43 -23 1 -11 31 -5 99 53 3 30 9 35 53 204 191 275 315 343 37 -25 69 117 67 222 145 177 280 411 296 172 127 164 73 69 80 93

GFSSW_con_3kmhel_030.txt.gz
Helicity
-4 7 19 21 18 32 33 33 42 46 47 44 62 93 71 18 38 75 44 36 49 30 82 98 85 103 115 137 156 149 185 105 102 110 102 49 78 107 136 138 160 118 92 71 72
25 -2 9 21 16 24 28 29 39 50 48 47 50 92 94 44 52 66 34 11 54 69 122 111 96 99 105 109 146 162 153 90 78 82 66 53 71 105 173 174 186 157 114 84 69
23 13 -6 18 15 22 22 30 39 46 43 39 50 85 106 109 38 5 -9 -16 14 50 98 108 106 114 100 126 161 189 159 139 116 87 82 39 34 25 89 97 147 169 194 130 86
27 28 -5 8 20 19 23 30 46 49 41 38 49 69 93 113 43 49 42 54 51 101 117 117 112 107 104 121 126 185 173 123 86 91 69 33 46 69 75 96 83 142 178 184 115
28 15 29 3 14 18 27 32 41 48 45 37 48 58 79 76 59 86 102 103 42 105 92 84 118 109 98 103 135 165 160 132 113 86 47 26 20 33 41 86 101 113 133 170 158
32 24 37 34 13 22 29 32 43 47 46 43 42 50 64 65 44 100 91 123 129 91 85 109 91 97 110 115 127 150 149 149 106 66 48 29 9 67 13 1 97 121 139 151 149
47 25 28 52 35 26 26 37 43 52 50 53 50 59 55 25 53 71 147 121 131 107 102 102 97 135 154 102 117 111 107 107 107 99 77 47 4 60 57 63 86 83 116 141 153
107 40 27 41 66 18 23 34 39 57 61 64 63 63 26 37 47 45 75 121 113 103 120 97 84 140 170 160 161 114 114 119 113 96 120 94 30 78 132 64 109 121 111 128 137
193 138 62 17 70 55 18 40 74 88 72 65 81 52 26 69 60 67 87 101 123 121 105 95 126 154 210 191 151 165 133 125 146 170 120 102 96 31 105 102 95 110 108 93 115
206 109 105 34 52 71 32 92 129 116 119 102 94 69 64 67 61 66 64 107 142 145 153 162 163 180 224 203 208 194 141 102 108 97 145 128 86 44 7 46 53 98 107 106 87
151 125 80 77 36 105 165 195 177 143 148 109 92 75 87 66 69 80 70 172 179 199 149 179 205 231 184 157 137 150 166 131 138 128 98 96 63 32 -16 -3 15 32 43 49 91
155 168 108 176 37 160 264 203 154 91 98 42 83 79 96 153 125 102 94 160 188 172 211 226 152 157 169 185 172 164 144 119 94 73 106 63 9 11 -3 8 12 35 54 35 63
114 183 198 206 43 277 192 119 165 91 90 90 82 102 130 95 96 94 103 163 170 213 186 192 180 137 193 222 230 210 173 159 127 124 106 90 -69 -8 3 22 66 93 94 72 71
48 163 193 113 71 294 233 191 145 88 135 72 92 98 135 139 80 98 143 178 181 125 158 126 137 155 205 241 206 142 161 98 107 123 97 87 -56 -53 32 50 65 91 108 123 124
98 141 207 179 62 355 245 139 95 120 159 82 120 128 109 149 134 120 72 121 141 145 206 172 147 135 158 211 231 249 121 119 109 150 139 153 162 -58 -113 4 62 87 98 102 109
76 75 85 155 94 315 263 173 158 251 195 78 81 90 119 66 116 86 67 84 148 107 128 126 143 188 181 143 149 198 184 182 177 163 168 150 169 -146 21 -30 9 118 144 85 80
13 -23 51 39 219 275 244 241 301 236 157 103 102 88 104 112 83 71 92 124 139 137 146 158 149 215 207 181 144 180 244 249 222 313 293 89 87 146 66 83 11 54 66 62 75
23 -4 -6 51 154 242 247 360 250 140 180 36 136 142 116 87 80 69 104 103 103 156 184 183 142 120 180 177 194 167 216 287 298 266 210 153 128 107 -56 -37 6 18 147 97 86
63 30 27 -20 165 282 272 340 225 166 141 134 87 109 74 53 73 58 67 119 126 150 195 110 109 137 130 120 187 225 237 174 239 223 216 214 139 38 -21 37 53 62 -12 60 76
42 11 43 -5 301 209 297 248 200 178 151 126 143 92 101 83 63 68 84 77 85 126 134 141 99 97 131 142 69 173 173 191 263 242 240 175 139 97 116 89 116 119 101 28 40
-5 52 -26 67 205 263 207 276 177 113 113 97 105 94 87 65 56 89 90 68 56 72 165 126 93 14 138 168 151 157 183 212 232 266 265 220 112 9 -58 61 53 -4 59 151 189
14 -18 5 90 152 164 219 130 123 104 121 82 75 93 61 51 63 83 77 70 69 149 106 67 19 101 134 200 193 173 110 154 234 281 279 276 51 71 -3 -58 -6 -20 16 106 191
48 107 8 256 122 226 188 135 79 91 61 46 60 41 29 40 61 65 76 23 106 121 40 88 119 13 38 65 141 267 278 247 104 56 95 211 75 -41 -11 -8 -57 -116 -1 124 206
120 89 188 152 178 179 167 143 103 97 40 51 44 35 35 51 70 46 25 36 33 66 82 140 172 174 219 182 219 254 282 279 335 298 249 217 346 121 48 2 -36 -70 16 139 139
92 69 180 112 171 172 170 80 68 61 51 12 9 7 46 49 55 53 -12 -29 -26 -11 101 136 140 255 373 383 313 305 263 294 218 316 337 162 267 291 41 -56 -36 25 119 131 121
72 7 201 81 136 130 134 53 33 71 4 68 38 -8 -32 50 63 3 2 -52 -22 23 167 155 202 184 455 458 307 278 280 268 254 193 213 246 231 118 -47 -17 57 157 196 186 148
28 62 154 10 122 84 51 32 27 64 5 20 -38 -24 -9 27 12 33 20 32 8 -28 40 158 186 225 412 258 107 154 184 191 223 176 239 397 504 136 278 301 272 245 200 116 85

GFSSW_con_3kmhel_033.txt.gz
Helicity
9 13 5 -8 -5 10 24 35 51 48 35 36 60 85 117 41 48 87 74 54 48 38 79 98 110 128 138 157 170 174 212 168 120 104 76 57 61 86 112 125 150 138 133 117 91
19 -4 19 -6 -1 3 20 39 40 41 45 46 66 93 122 60 50 35 62 27 21 32 80 87 98 108 140 161 188 201 182 103 93 80 45 49 74 107 141 173 173 202 158 127 74
22 11 8 10 -18 -4 20 38 41 37 49 55 61 88 106 93 55 32 17 -9 -5 45 67 99 101 114 128 138 148 155 110 108 80 66 81 52 59 42 112 129 121 183 215 192 149
121 43 12 35 -4 -9 13 35 33 40 48 63 54 69 98 104 84 55 62 81 39 79 85 101 117 134 136 140 138 138 73 44 36 60 57 51 57 79 87 66 93 124 191 196 235
142 108 52 22 28 2 1 32 38 43 57 61 65 67 92 84 80 66 44 69 44 112 93 96 111 99 96 113 131 146 111 81 50 60 58 56 36 53 44 32 80 122 154 182 178
118 111 114 42 33 30 -8 21 36 47 58 63 59 53 74 75 50 85 80 94 91 47 88 91 59 80 66 91 111 122 107 98 90 49 54 63 45 91 25 12 36 96 120 134 148
219 167 113 82 30 44 7 9 33 41 53 57 53 59 62 40 42 68 113 84 86 86 81 73 103 103 96 96 105 100 82 60 47 58 65 56 30 51 67 67 63 87 117 141 140
125 212 133 123 78 38 44 8 10 38 53 60 50 60 48 46 40 36 48 84 87 94 97 82 101 116 118 121 104 82 86 79 118 123 80 102 62 98 101 66 62 67 108 126 128
87 184 226 89 124 31 65 36 26 40 52 58 75 46 56 59 54 49 58 72 94 107 112 102 105 120 135 119 104 100 106 93 82 125 136 109 76 77 129 162 124 108 116 167 143
107 86 184 199 97 61 84 83 105 138 100 102 59 64 74 66 70 83 91 104 120 135 144 125 121 124 141 143 130 91 105 90 87 92 140 103 56 62 71 66 77 79 98 130 178
71 111 125 152 71 127 182 277 216 162 144 80 76 130 101 81 98 97 76 130 132 139 114 125 128 122 104 122 134 134 110 88 129 115 84 76 17 68 59 59 44 35 42 55 98
50 56 104 137 122 95 335 324 183 34 69 45 84 78 83 93 101 86 69 98 119 114 152 149 83 90 134 129 118 100 81 79 74 66 98 68 -9 29 70 87 89 69 71 67 69
26 57 63 154 126 31 321 201 191 140 86 89 72 97 102 96 107 76 75 117 119 147 117 146 107 99 99 145 138 141 138 131 116 104 100 81 -27 -20 -9 52 76 78 72 71 76
24 24 68 123 113 1 239 238 140 140 112 71 96 82 128 151 75 85 94 123 132 79 118 93 90 134 135 155 137 108 130 104 109 134 107 104 11 26 25 44 76 77 83 73 79
4 39 31 87 139 126 327 289 111 131 111 84 119 129 106 160 109 103 120 181 138 126 147 103 85 110 87 75 185 165 144 127 131 143 120 109 141 -4 41 18 46 50 42 55 67
97 60 20 57 40 110 317 263 204 232 149 82 83 125 135 125 133 140 99 105 98 99 93 95 130 135 117 107 129 166 171 136 138 146 214 149 144 -41 -29 -77 -56 -17 68 68 73
67 68 26 47 1 26 270 271 422 195 126 100 95 84 96 127 144 121 116 91 116 124 89 87 80 149 177 163 149 176 195 175 152 201 281 135 49 161 6 70 17 40 129 138 68
110 35 29 11 -50 94 380 485 305 194 186 74 109 116 113 130 98 99 100 85 59 121 113 88 90 107 75 56 132 196 224 242 199 218 187 186 171 126 -37 -73 -10 38 16 30 57
138 26 22 5 104 206 320 412 208 120 153 138 123 152 108 75 90 64 61 70 83 157 124 97 69 51 64 103 94 206 222 129 217 178 185 273 217 139 61 70 41 15 55 58 77
11 39 14 61 59 202 284 335 260 171 162 130 145 81 105 56 75 43 42 56 84 139 126 140 93 67 92 146 94 151 205 256 327 358 368 396 251 251 88 73 8 -6 63 105 98
-5 48 8 69 75 205 297 313 231 179 134 159 136 127 93 78 69 66 47 56 36 64 96 112 113 96 111 124 164 227 242 312 318 374 470 331 310 243 26 -35 -14 37 39 52 146
58 80 54 74 197 220 143 196 186 172 167 116 100 95 77 63 40 43 32 60 65 128 87 77 -61 -23 114 202 180 213 219 298 320 327 543 454 316 174 131 49 -28 -133 -39 41 41
48 66 69 236 162 185 215 205 154 147 131 114 100 79 65 44 25 29 49 63 111 108 -39 88 76 -8 -11 97 130 244 280 350 343 277 420 446 169 128 110 33 -13 -17 -88 0 26
52 112 110 84 96 111 146 157 151 149 89 75 50 52 41 21 10 28 37 56 -15 -5 32 74 133 202 160 206 238 296 453 459 366 289 396 577 361 202 104 52 -13 -67 -97 29 73
92 63 61 58 20 80 121 85 109 74 69 43 12 22 24 25 13 36 68 -20 -28 -27 -14 84 95 183 327 327 302 415 393 374 530 509 360 348 390 357 203 126 62 -11 -58 28 108
87 74 64 62 24 69 101 31 55 84 49 36 44 5 -6 17 5 -5 52 -5 -16 -27 60 100 139 139 331 341 363 412 338 248 347 416 324 300 291 278 197 64 -41 -15 18 139 127
86 62 39 7 82 82 24 33 39 65 19 14 -2 16 -8 17 -28 -37 5 25 5 -4 83 79 68 85 249 109 213 259 204 178 145 322 155 160 196 100 68 2 51 179 233 197 170

GFSSW_con_3kmhel_036.txt.gz
Helicity
88 32 24 7 10 -9 -12 4 18 28 39 50 63 74 101 92 78 121 63 83 59 38 65 102 139 97 120 128 156 174 141 112 65 44 57 76 60 45 102 113 114 114 161 160 115
109 94 25 17 29 3 -6 -3 21 32 44 50 67 85 115 113 52 73 44 30 15 39 38 71 105 86 112 129 142 142 133 70 103 72 70 64 83 112 120 85 89 102 120 153 128
88 114 86 39 18 34 3 -8 18 34 41 55 66 93 107 104 75 60 46 -9 -2 22 72 100 113 111 102 119 130 139 107 96 86 85 103 84 66 80 99 127 98 113 144 173 178
109 126 98 97 48 39 16 -1 14 30 45 61 65 78 94 83 98 89 117 88 36 55 67 114 119 124 105 112 130 128 78 81 77 62 75 35 48 40 58 37 138 176 185 206 191
136 152 134 145 104 32 47 21 16 31 44 66 70 75 82 75 76 45 55 106 67 32 51 74 102 104 87 114 114 110 80 75 62 47 39 38 -7 -5 21 26 67 94 128 184 198
125 163 173 102 121 69 49 31 9 32 47 64 67 65 72 60 68 108 91 72 48 24 49 64 81 113 98 80 81 108 94 75 72 41 37 23 -17 -10 -24 13 17 49 91 112 159
116 112 169 188 133 125 42 53 14 31 47 57 70 64 60 70 56 92 84 100 91 39 54 115 113 95 51 43 65 64 44 41 24 28 33 26 -10 -17 -11 7 -23 19 62 89 95
124 108 122 164 251 136 87 53 38 42 46 51 64 65 70 63 48 49 70 87 88 89 42 77 99 108 74 94 47 62 58 66 63 72 53 46 -2 41 99 40 54 33 48 96 104
116 122 114 144 174 108 154 40 78 48 51 56 71 71 81 60 59 47 42 66 83 107 107 93 108 124 81 54 47 29 59 32 51 61 67 36 38 41 105 88 81 99 102 129 163
54 55 91 145 157 86 101 29 88 106 102 81 82 84 60 72 75 80 83 74 113 104 100 89 96 73 43 61 61 42 6 16 21 28 55 35 20 33 43 65 63 56 72 76 96
39 52 58 79 161 183 7 311 337 297 169 100 82 142 62 116 52 86 85 120 109 61 49 67 61 48 25 25 32 66 57 44 38 46 45 27 16 40 41 35 46 54 57 52 66
31 41 43 78 120 110 52 216 320 145 91 86 70 64 106 66 95 86 54 72 60 37 61 54 30 14 36 30 24 26 33 40 45 42 64 46 -6 34 42 44 54 53 56 52 48
19 20 17 39 72 49 69 76 125 158 106 80 75 94 75 65 90 55 26 80 45 49 14 38 60 43 18 39 30 21 30 36 45 83 66 36 29 -16 56 54 55 47 43 56 54
-21 32 36 20 17 45 14 33 182 255 126 43 82 69 79 94 69 71 49 79 81 22 41 22 33 79 73 50 38 43 84 50 59 74 77 110 83 90 81 78 49 51 50 56 71
-41 -10 59 39 56 77 13 128 177 128 80 58 147 100 94 94 72 108 93 95 59 72 85 72 50 40 25 -7 61 81 81 60 76 86 102 93 149 96 89 56 39 9 12 57 53
-24 33 93 27 14 45 105 217 246 236 144 87 139 132 133 93 116 112 88 132 95 89 87 71 114 90 43 54 57 149 106 83 88 126 158 66 125 93 57 31 -36 3 124 109 66
-21 81 102 49 47 40 78 296 311 266 94 106 91 122 110 141 127 87 88 82 97 110 66 58 27 80 106 98 117 127 155 163 118 177 187 176 127 194 122 138 70 74 52 14 39
6 118 19 29 41 -4 136 329 195 240 167 61 90 77 136 121 136 99 92 89 48 80 113 71 60 47 66 77 116 73 123 164 150 127 120 268 234 280 95 60 47 4 42 53 71
69 6 11 18 31 64 204 206 183 181 111 52 91 139 127 96 128 117 81 78 49 54 70 56 65 79 54 79 67 136 127 64 103 102 137 233 172 127 93 20 -70 -25 29 29 83
31 11 22 24 30 119 215 197 260 146 113 42 97 75 100 56 94 55 54 48 26 47 35 88 66 78 110 89 66 84 136 196 246 232 180 149 120 161 79 64 50 11 -46 42 62
-25 59 34 47 158 191 225 264 239 88 79 108 82 116 119 73 54 51 55 51 9 34 41 96 98 71 95 78 90 147 194 238 216 277 343 204 252 225 95 33 -10 63 81 61 48
51 36 46 71 133 130 201 219 144 73 118 131 140 122 64 63 63 38 29 43 40 71 66 85 82 61 78 29 66 88 128 166 297 287 459 370 278 240 95 67 80 29 11 -20 -6
42 115 81 125 75 82 160 221 184 104 117 108 129 117 91 62 55 14 35 38 65 68 73 96 33 18 7 54 54 120 143 203 376 320 401 463 579 276 255 119 48 29 61 76 -34
60 97 85 114 118 71 75 108 164 123 81 97 79 68 70 65 50 16 15 21 24 34 35 70 28 16 30 25 99 203 310 308 346 391 427 586 500 297 258 52 18 47 21 28 22
93 77 78 41 96 103 93 112 52 70 66 87 64 47 32 11 20 31 11 16 28 -22 -17 15 30 28 122 124 136 225 305 323 244 448 361 434 234 181 43 30 35 66 47 27 35
102 63 31 42 60 89 66 43 36 69 41 43 32 6 9 14 18 14 -8 -1 -6 -18 -22 42 37 11 160 164 160 314 278 177 129 132 210 236 106 97 87 35 12 55 46 51 15
122 78 54 35 48 62 51 16 17 41 50 38 -0 -0 14 1 5 -10 14 12 -1 10 -19 21 43 54 134 105 189 37 100 122 104 138 44 67 52 30 42 17 27 36 17 41 46

GFSSW_con_3kmhel_039.txt.gz
Helicity
161 91 78 81 39 16 18 -1 4 20 25 45 56 63 78 106 90 77 62 98 63 55 84 103 103 94 106 128 165 149 146 100 71 46 64 98 140 70 118 126 102 77 85 124 125
115 118 128 96 77 29 24 12 7 19 27 33 46 61 73 103 42 46 55 70 68 41 71 99 106 88 98 101 151 168 120 85 78 74 67 121 58 88 123 71 106 101 99 116 114
76 117 132 161 94 69 32 17 5 12 26 27 42 61 75 110 49 44 -3 30 28 26 29 61 123 88 95 100 116 103 70 67 116 198 188 149 102 91 120 123 70 63 79 74 151
116 128 112 162 107 105 75 35 20 16 24 30 44 59 81 106 93 138 121 50 4 24 18 46 67 94 104 110 94 90 93 82 148 91 99 84 79 64 49 68 110 93 134 217 155
74 107 130 156 143 133 125 22 46 21 27 38 46 68 75 98 102 25 42 64 43 27 28 31 60 71 98 76 132 92 85 72 90 86 54 75 71 63 79 66 99 187 154 159 133
28 98 106 149 169 170 183 52 52 32 32 43 45 65 70 61 119 59 33 70 58 27 48 81 119 101 165 113 116 165 123 99 57 54 32 38 40 61 47 27 23 29 88 86 97
47 69 140 130 147 154 176 93 50 57 42 43 46 47 60 86 81 83 92 84 77 71 58 50 83 113 96 114 101 146 66 52 26 22 19 10 -5 23 11 1 -48 4 -8 -3 36
36 76 104 122 143 146 129 74 22 49 53 49 41 53 86 91 77 75 89 80 79 45 74 119 139 104 150 133 47 59 41 74 38 65 59 63 -3 70 34 10 36 20 35 -1 14
24 65 87 86 120 153 204 137 54 106 66 69 65 82 80 66 81 59 65 65 89 84 91 77 108 114 113 69 70 47 93 32 69 3 70 28 44 75 71 93 69 72 71 65 41
13 31 25 33 55 106 152 192 64 138 105 89 120 99 54 93 94 84 69 62 68 81 127 117 108 112 53 55 98 78 34 67 77 38 6 48 31 38 63 36 49 65 69 76 77
6 6 30 44 54 71 101 72 60 193 213 179 60 178 59 97 90 101 74 51 64 52 83 69 88 50 31 30 54 100 125 102 79 64 38 48 21 29 35 29 31 51 62 66 66
11 9 21 35 30 37 46 132 140 301 188 125 103 150 83 77 111 117 86 77 62 46 74 77 34 16 36 54 34 40 43 42 37 31 42 33 40 32 29 38 43 45 56 59 61
5 -13 -20 27 41 24 64 74 69 176 223 88 83 68 90 87 90 57 29 63 35 19 26 26 43 58 21 28 29 18 32 39 48 76 47 24 36 -19 24 43 28 42 45 36 45
13 -20 -9 24 -21 14 10 39 -17 -40 266 159 114 133 105 109 97 49 18 80 97 27 33 22 24 32 35 18 13 36 32 48 49 42 15 56 5 65 108 70 78 36 35 49 67
30 5 -15 15 32 26 15 25 47 124 242 80 165 84 72 104 85 75 41 87 59 61 72 41 34 14 4 6 43 52 109 72 70 78 98 72 97 69 108 33 11 -8 23 81 88
14 15 9 16 -0 6 14 78 131 184 192 170 159 127 129 112 108 93 95 131 132 69 34 55 57 50 33 62 52 128 78 54 58 71 80 16 57 94 81 98 130 102 89 113 75
11 35 12 -6 11 11 27 165 129 176 36 104 130 143 122 137 111 70 88 100 80 93 54 27 26 43 61 75 81 87 102 76 8 92 142 116 138 262 127 94 94 61 52 48 49
-0 52 9 5 50 55 141 200 246 91 132 68 83 92 172 129 86 61 37 59 42 54 63 50 53 22 76 55 85 51 107 91 117 82 120 205 182 160 99 144 73 46 21 40 89
26 20 1 23 29 -5 113 99 138 117 111 80 98 146 184 95 122 84 44 37 45 42 84 80 96 82 62 73 72 101 89 70 130 111 157 184 98 62 32 32 45 33 28 2 28
54 30 15 21 19 100 138 72 172 134 52 56 104 70 87 96 123 86 62 52 76 17 33 102 80 58 95 94 62 62 132 167 188 132 104 122 77 138 118 87 137 61 56 65 53
36 16 39 26 59 103 72 107 120 75 80 73 18 54 34 36 70 65 72 101 16 28 19 51 70 69 96 52 56 97 114 169 155 226 183 103 215 253 302 290 226 123 23 154 90
-0 -7 43 79 135 59 95 124 88 107 122 78 35 40 28 37 85 77 85 93 27 22 31 37 54 54 27 38 39 69 84 46 190 165 242 285 365 209 125 128 183 119 73 77 77
22 61 73 136 129 92 227 147 100 92 114 79 72 82 61 40 88 63 60 47 20 14 20 75 34 40 60 57 17 64 29 56 200 180 328 306 522 369 233 174 252 200 144 66 73
60 88 118 82 109 91 155 199 141 94 76 61 68 40 46 43 79 33 31 29 20 25 146 74 56 43 -33 -0 25 74 100 135 196 330 295 506 294 262 117 120 138 147 99 67 100
83 76 124 29 129 115 84 75 119 58 33 62 85 70 80 52 31 39 32 26 25 53 64 75 33 17 42 46 21 26 62 107 108 213 331 341 136 139 1 -5 29 13 -2 15 48
88 119 103 49 27 41 68 17 23 63 44 53 44 35 45 42 48 14 7 16 17 45 52 49 41 27 64 23 28 85 39 41 90 114 135 106 128 70 46 21 5 3 26 9 36
104 54 79 51 24 46 35 21 24 40 63 65 33 19 46 47 19 32 38 40 36 27 -0 33 42 11 40 49 96 7 48 86 44 65 79 61 51 19 34 19 -7 -23 -25 -15 -7

GFSSW_con_3kmhel_042.txt.gz
Helicity
71 96 131 156 125 92 59 21 23 21 22 32 36 47 53 65 83 71 42 49 44 56 60 57 89 115 122 143 121 112 180 140 88 76 46 73 70 150 189 123 79 72 73 62 116
40 56 64 110 143 147 112 61 29 27 20 25 36 48 54 69 76 51 10 26 101 69 68 68 80 105 129 117 185 208 180 154 102 76 78 54 89 105 158 98 92 134 119 43 64
54 60 66 59 111 151 151 115 26 32 12 21 29 50 56 77 69 49 -8 19 41 49 32 56 101 91 132 139 137 159 133 113 100 129 85 174 273 172 235 222 115 99 108 114 45
32 64 75 88 81 132 133 137 63 31 27 19 24 46 72 105 96 65 5 -9 18 19 34 67 118 145 159 136 128 107 128 97 86 216 140 77 175 269 174 125 109 110 103 146 148
49 39 74 89 121 114 142 153 156 33 48 24 29 57 92 94 104 25 52 83 42 24 13 13 60 101 136 142 131 106 108 86 107 207 208 91 110 146 177 169 79 96 201 167 188
61 54 54 74 140 137 150 137 147 39 47 31 38 64 108 87 118 -4 -9 23 38 36 23 -4 64 96 201 193 90 96 121 88 105 101 99 75 49 84 117 59 42 88 164 231 235
48 51 21 50 108 144 150 163 190 107 60 30 41 60 86 71 87 66 53 47 71 19 33 55 121 137 187 203 254 191 131 92 81 80 83 56 34 57 42 41 50 64 61 99 134
27 25 24 48 74 105 131 182 192 185 55 84 61 73 98 110 92 55 66 70 85 97 107 99 123 168 215 202 128 84 56 81 23 31 47 53 17 63 54 67 52 44 60 67 83
30 16 7 41 32 24 95 164 161 61 39 62 102 100 93 72 78 50 52 66 64 54 108 118 137 171 122 104 93 62 98 71 78 64 72 87 43 48 111 114 108 76 78 86 70
24 6 -3 11 36 51 51 112 108 12 64 61 135 122 98 85 90 65 61 82 106 83 113 95 124 125 119 123 117 63 63 115 105 73 63 45 40 53 81 71 61 80 100 116 114
3 6 8 8 41 43 27 8 47 -37 197 249 94 221 55 145 109 82 66 76 74 78 140 140 142 113 51 37 44 178 204 171 203 200 107 60 47 46 45 57 58 82 103 105 91
11 -8 -18 -36 4 40 31 32 138 50 110 153 149 131 112 65 107 88 70 120 102 90 121 159 85 44 67 86 81 81 72 73 57 60 58 39 48 47 68 78 87 78 108 114 101
4 7 -16 -19 -13 8 -4 32 -66 24 175 106 114 126 85 101 97 82 69 98 66 76 73 70 81 18 56 65 54 65 60 65 69 55 17 46 63 17 101 23 8 26 53 69 105
11 31 8 -6 -30 60 13 2 6 15 235 103 140 107 101 163 80 53 50 121 83 38 31 39 52 50 49 38 40 55 57 51 58 62 46 113 34 49 36 44 44 33 68 87 97
35 30 21 1 -32 -13 35 7 3 29 308 105 185 77 70 145 134 86 29 139 68 89 104 60 48 50 33 33 42 54 73 100 76 66 61 26 61 -21 -4 34 38 73 112 89 72
2 17 12 -30 -25 12 18 34 110 115 310 175 218 119 182 108 164 136 141 147 215 131 83 53 60 50 41 39 62 105 83 24 42 59 58 -3 22 4 -17 86 68 175 82 50 113
7 4 -9 16 -9 13 44 89 -140 264 61 143 227 135 144 173 165 120 140 120 112 116 77 51 39 27 78 68 75 71 60 42 14 42 50 61 63 147 84 32 51 96 123 115 155
15 75 47 13 23 131 133 62 157 -16 69 84 113 133 157 151 99 78 79 80 81 102 46 39 37 31 65 64 63 44 82 67 83 96 105 152 157 146 40 4 147 113 94 67 97
95 64 19 29 57 104 88 57 55 53 37 83 90 193 173 128 116 82 57 47 51 61 75 40 63 56 70 50 36 92 46 112 135 100 118 116 181 109 6 33 61 91 121 100 108
72 34 21 16 21 55 116 -68 64 51 54 30 126 104 138 95 103 75 57 29 49 26 43 91 66 51 60 49 34 50 81 149 156 105 80 116 92 85 200 278 283 300 252 183 101
52 16 28 24 54 89 119 73 97 -3 -42 68 32 80 55 112 78 80 36 27 34 32 23 61 90 84 111 40 75 85 90 118 170 153 121 96 122 221 209 154 140 124 104 201 256
18 22 48 50 62 81 -35 154 29 124 56 50 26 35 41 67 101 75 58 114 35 46 42 42 68 64 49 40 17 69 91 75 130 99 194 229 94 167 92 202 235 146 163 93 132
45 97 50 66 138 23 9 135 135 172 80 56 50 29 31 36 133 150 125 77 64 43 42 63 46 48 51 83 58 91 60 88 137 130 226 286 385 388 233 102 87 152 179 154 113
72 139 120 108 -6 136 85 70 109 189 101 69 33 30 11 74 53 60 81 45 39 63 117 60 56 45 53 82 74 25 48 75 80 168 218 456 310 377 127 21 27 95 109 6 16
82 113 82 66 204 91 97 35 99 107 63 69 74 18 22 73 55 43 51 39 26 51 58 77 42 48 53 11 -14 -39 -6 29 98 148 213 194 153 140 71 76 126 62 107 77 80
56 74 96 89 73 54 131 55 50 59 84 73 55 81 116 57 73 16 30 13 17 39 45 75 40 65 -3 44 14 39 82 50 57 80 130 119 140 113 88 114 231 141 34 4 -3
48 53 49 72 70 49 63 27 21 36 82 106 46 41 63 81 54 56 72 19 27 36 40 46 46 12 -1 35 36 -4 10 70 156 141 98 167 111 61 41 48 104 84 28 16 -8

GFSSW_con_3kmhel_045.txt.gz
Helicity
45 55 59 71 88 116 113 110 100 25 23 17 24 33 44 64 72 73 57 47 36 80 120 128 105 103 156 165 160 140 199 128 102 69 68 47 78 81 129 174 198 215 56 73 62
45 67 64 64 72 114 133 114 136 114 31 30 22 29 38 59 69 60 41 37 15 29 85 81 89 108 190 135 212 228 189 141 138 61 52 71 37 114 129 159 180 153 107 85 84
26 43 70 82 93 81 103 136 100 137 29 36 28 30 44 67 59 39 -11 -26 -18 62 76 73 105 118 157 173 209 182 172 137 103 67 62 61 121 125 254 264 169 123 145 100 83
40 43 63 79 90 91 123 127 113 146 115 35 42 36 53 74 73 88 59 -26 -6 50 68 64 118 161 165 174 172 187 142 95 82 52 96 91 131 221 206 285 303 226 176 162 110
52 69 78 87 83 85 123 123 137 131 158 47 40 55 91 96 77 68 41 -9 52 53 13 23 103 125 146 120 150 149 137 126 135 117 111 101 106 137 178 243 261 148 144 228 212
67 47 38 32 33 62 100 138 151 131 132 46 62 69 119 95 64 47 30 86 60 53 29 7 75 83 110 124 151 133 119 169 156 123 145 65 53 92 114 191 130 82 14 129 233
29 36 35 32 28 47 88 139 131 173 146 50 93 95 123 72 91 56 40 16 48 59 56 -11 87 114 150 165 179 201 194 164 110 58 68 84 26 103 72 65 61 37 46 9 147
52 58 31 26 19 31 27 73 119 139 146 106 94 124 127 70 79 85 77 71 53 85 85 70 114 135 150 167 177 174 120 90 61 80 90 136 48 52 39 95 118 90 61 13 -21
44 34 18 17 17 22 52 39 81 145 110 74 223 188 92 106 92 66 48 88 75 120 106 39 187 190 211 161 183 146 115 71 115 39 84 111 54 9 58 74 109 95 98 84 -9
18 20 10 20 14 19 52 52 69 114 -67 97 206 177 97 123 95 88 63 102 109 97 145 135 145 159 126 165 136 103 116 153 126 137 96 107 100 92 76 62 58 78 97 86 84
12 14 3 -32 -44 -9 17 5 31 81 -6 134 118 253 118 45 85 85 66 110 128 105 134 134 136 98 56 88 82 124 177 163 113 189 137 92 60 62 54 58 21 15 54 45 31
-9 3 10 3 -8 -10 -8 15 26 78 -140 108 161 151 116 153 130 101 139 171 127 139 150 178 111 57 56 52 87 133 93 66 35 93 69 65 17 9 56 102 106 51 70 42 30
-17 24 30 12 6 28 32 3 -8 -51 23 100 166 73 120 91 139 87 134 141 68 120 124 131 98 61 70 107 74 88 64 53 51 -3 -5 1 23 53 64 43 12 1 36 73 84
-18 4 21 19 1 28 20 19 20 -9 112 117 222 158 108 135 145 78 120 127 140 87 75 93 88 114 90 70 75 80 73 65 67 50 58 39 64 61 41 39 32 33 36 39 74
-17 -19 9 -19 -30 -23 17 27 1 13 245 100 204 95 104 193 127 83 74 171 91 96 100 62 63 63 65 65 67 60 60 62 67 61 33 47 80 4 -46 10 -13 23 -9 -1 14
-14 1 16 6 56 50 20 3 30 65 288 123 205 155 176 47 165 121 172 173 135 106 78 62 108 80 57 70 92 68 69 57 45 43 73 55 87 21 -21 -51 -14 47 69 -6 11
20 53 56 26 8 27 6 31 65 150 228 212 232 132 140 176 186 171 156 147 135 128 101 79 40 53 78 81 89 91 76 87 58 63 32 90 59 113 13 -39 -20 9 13 66 43
71 80 58 15 20 46 3 123 -44 233 247 145 178 176 199 160 135 159 137 140 129 110 120 54 51 61 50 85 46 87 55 63 38 42 46 82 35 -7 -54 -36 20 45 66 82 66
20 42 16 -12 25 33 57 -81 -1 149 82 158 211 178 185 168 131 114 114 91 79 73 58 57 73 41 51 69 95 56 53 79 85 79 94 91 109 73 32 137 158 210 252 241 187
32 17 42 -2 39 76 84 -76 15 26 60 111 241 156 112 117 108 90 76 32 45 27 63 84 59 50 55 61 38 61 67 99 102 57 55 71 94 83 61 80 97 110 133 161 131
-23 36 48 7 17 61 95 -1 61 -6 -3 150 108 114 110 134 86 87 38 37 63 32 50 75 73 81 78 48 53 80 76 93 112 108 71 62 37 76 116 86 41 57 67 48 59
37 42 55 65 94 57 50 77 40 25 117 71 26 67 100 128 80 91 52 71 15 63 56 75 61 66 31 25 70 104 102 109 109 77 121 148 149 32 39 125 82 -13 -62 -11 81
78 108 62 71 0 9 191 144 124 38 28 28 43 56 51 132 92 86 96 104 49 58 61 71 51 80 58 84 82 66 68 95 12 116 131 145 198 198 213 47 43 65 91 82 83
94 152 130 115 27 64 121 118 150 106 49 34 21 -3 2 73 86 56 93 83 91 90 40 65 42 31 17 59 92 61 59 66 165 171 109 381 301 283 162 90 52 64 85 137 72
102 62 18 139 100 70 41 79 121 83 72 32 0 -33 24 87 88 102 88 79 73 97 92 79 40 33 9 -7 -7 2 -12 17 106 175 210 272 222 168 106 82 95 170 206 138 42
21 7 22 61 35 31 74 140 91 73 65 79 99 89 93 66 64 40 52 41 40 69 95 95 51 50 18 12 -17 -19 16 20 43 104 228 220 271 113 117 72 114 171 80 88 19
49 30 20 60 47 77 53 46 49 50 105 86 46 68 111 84 58 83 59 38 30 54 56 58 30 28 22 41 -28 -12 6 47 97 165 182 102 61 71 76 78 161 127 16 36 22

GFSSW_con_3kmhel_048.txt.gz
Helicity
60 77 64 33 48 88 127 130 152 163 123 33 32 25 34 53 67 77 57 49 42 86 126 133 123 132 174 214 209 182 202 168 103 89 62 47 54 87 98 104 160 193 135 86 79
53 46 70 70 78 50 113 137 123 152 149 156 29 32 36 55 63 47 39 15 17 30 121 122 113 150 216 185 242 232 206 132 101 86 73 47 44 64 176 179 173 209 189 217 170
44 52 39 57 97 76 65 126 165 129 138 136 32 37 55 63 49 45 17 -9 8 25 59 111 149 163 190 201 238 215 166 127 98 83 82 82 108 80 168 201 186 193 154 192 160
81 88 69 62 41 68 68 62 124 125 149 163 91 50 61 84 66 82 97 -7 -17 58 89 104 143 216 183 207 195 192 146 137 77 61 60 60 90 118 176 183 189 191 261 248 143
60 29 58 33 24 29 51 57 80 147 172 153 136 85 124 114 71 80 70 10 21 78 76 85 133 159 184 159 168 149 185 146 94 94 86 96 71 84 105 178 217 193 200 231 249
6 36 41 22 26 12 23 61 72 130 167 176 92 136 140 83 78 77 38 51 67 92 68 85 100 87 129 142 151 137 93 109 111 102 99 86 47 89 86 93 158 87 152 197 238
28 57 57 49 43 32 25 38 89 123 169 171 161 134 146 44 116 69 56 51 65 61 79 15 61 133 127 159 135 163 170 191 147 90 95 90 -6 58 63 32 75 78 42 81 115
31 37 26 30 22 21 20 37 39 54 154 96 12 93 135 44 90 123 94 60 77 75 42 11 60 91 107 151 158 155 171 138 102 76 74 107 21 47 46 60 53 35 20 -0 40
27 27 17 7 10 15 20 30 51 52 142 112 67 198 122 115 66 51 80 77 72 143 118 89 98 151 122 156 194 196 154 121 130 70 91 134 70 23 68 93 85 60 67 62 75
15 15 6 5 -22 -30 -12 40 47 12 75 61 121 179 167 107 80 75 36 108 114 117 160 125 149 228 181 179 164 115 127 113 101 153 134 141 121 88 99 88 89 90 68 53 77
13 -24 -6 15 -2 -21 -40 -9 30 39 123 146 113 201 164 72 112 81 66 94 141 149 140 128 139 156 267 106 120 113 139 135 116 107 83 88 73 37 32 41 38 17 9 8 -15
-11 -38 -32 17 21 14 68 21 24 28 80 148 198 244 273 151 116 72 67 128 142 159 141 150 104 65 54 43 61 83 108 80 50 60 54 45 14 -0 41 101 147 90 11 2 16
-31 -41 -29 17 2 45 17 -20 1 8 -3 -42 110 127 103 127 132 121 87 108 111 148 137 136 114 71 74 71 69 90 83 51 42 27 -6 10 13 70 93 61 65 76 82 71 67
-18 -9 21 55 48 55 -4 6 24 44 -0 82 77 101 172 108 154 149 114 123 149 114 115 100 106 100 97 107 96 100 42 9 31 40 60 72 40 48 61 37 8 11 43 58 87
10 -0 -8 4 61 33 -9 3 -12 55 151 71 110 57 137 137 108 95 182 158 150 165 143 110 104 114 123 77 86 67 55 42 33 27 28 48 74 38 41 58 63 84 69 24 12
-4 16 22 25 37 16 -8 -12 30 202 220 160 162 157 162 136 176 157 184 167 145 129 127 108 106 95 71 103 88 68 77 70 29 17 74 34 85 34 17 46 4 29 85 101 24
41 33 30 35 26 12 18 -8 83 194 328 293 241 160 153 194 174 158 129 184 149 161 139 119 106 92 95 105 119 88 83 84 91 99 58 40 49 11 9 -54 2 9 52 100 100
-15 -0 11 18 24 20 -2 105 144 391 201 265 194 173 191 191 151 114 140 162 165 122 171 92 77 59 68 58 32 83 49 52 52 52 58 51 24 7 34 37 50 93 133 196 204
6 54 46 72 33 56 92 3 252 266 232 233 181 202 198 209 157 129 120 104 84 76 64 89 72 73 43 90 72 63 61 46 72 73 60 57 54 7 56 105 153 184 196 177 210
50 38 48 102 26 26 75 170 92 209 164 186 210 141 166 157 139 127 88 41 73 58 83 61 58 52 65 77 72 54 66 84 91 40 23 36 27 -8 -0 77 99 105 84 54 -8
25 55 87 57 33 50 85 59 127 43 167 189 110 148 156 149 95 108 48 68 16 49 52 74 50 81 59 45 71 90 64 61 67 56 31 40 -0 46 43 82 49 -17 -37 -69 -34
47 126 99 65 63 95 143 95 105 145 256 168 72 94 129 130 96 69 47 85 45 48 68 78 52 54 41 59 44 82 59 82 56 40 72 52 90 5 3 66 45 -44 7 44 54
62 110 99 42 204 202 159 111 108 131 134 52 42 49 128 111 63 65 76 104 -13 69 82 59 56 75 67 58 61 49 61 70 99 57 99 98 40 69 67 21 11 31 26 74 74
83 43 67 64 125 118 138 208 111 91 59 49 44 63 138 113 74 73 97 96 88 72 46 55 38 35 23 23 47 46 55 56 126 63 72 211 218 141 161 101 -11 38 61 153 128
44 -37 43 44 43 54 85 138 63 69 52 18 -2 -8 36 91 86 79 82 86 116 95 73 49 25 29 13 2 21 19 10 72 81 162 137 195 104 150 79 10 74 98 125 114 64
-16 -38 55 39 55 70 79 84 55 41 7 -20 -44 13 32 52 87 46 55 70 53 91 82 87 37 43 24 14 8 -0 -11 9 36 74 188 257 257 148 149 53 115 76 48 32 48
35 41 -4 11 35 56 70 57 64 62 79 52 14 79 86 69 72 63 40 35 19 77 139 75 47 48 30 47 16 10 32 61 33 123 175 177 108 7 -13 46 110 29 21 23 37

GFSSW_con_3kmhel_051.txt.gz
Helicity
40 38 38 28 83 73 66 103 148 157 146 146 120 46 31 37 63 76 62 56 49 60 143 141 144 169 190 216 218 214 231 209 169 117 87 87 134 117 83 139 118 120 87 92 211
65 55 60 54 37 73 51 37 109 154 142 125 121 139 41 44 65 48 45 23 28 51 153 138 152 171 208 199 231 252 230 190 138 101 41 69 55 94 127 172 157 148 137 197 256
88 70 53 48 63 59 59 68 56 96 147 126 151 97 57 103 54 31 36 11 21 51 90 140 158 184 198 213 245 226 182 186 133 98 61 40 100 52 111 146 139 163 187 222 204
123 67 37 37 46 28 25 34 69 73 112 130 161 69 83 150 51 69 68 21 4 49 82 145 208 217 221 222 228 194 154 144 57 81 47 24 58 57 83 101 139 204 208 201 167
47 37 42 51 50 34 58 28 30 46 118 134 173 121 150 206 92 -1 121 69 26 80 56 122 195 221 193 156 198 163 193 128 79 91 54 37 47 45 45 78 135 174 208 229 237
33 27 35 39 44 34 34 34 18 50 98 151 175 104 78 96 38 52 69 62 81 87 50 116 131 150 139 140 137 131 99 94 107 80 60 40 41 67 42 52 146 106 166 193 210
14 27 29 26 25 23 23 15 14 26 45 135 193 95 69 30 58 121 66 52 75 76 114 106 94 145 158 151 117 145 124 109 86 78 79 39 11 76 70 44 38 38 85 150 153
11 23 25 11 16 -4 -2 -5 2 36 39 105 160 133 47 44 72 149 88 76 73 79 81 60 89 127 135 155 172 153 160 142 127 98 89 75 -16 79 47 94 66 43 5 32 97
13 18 1 -19 -4 7 23 15 19 49 40 87 70 134 34 55 40 82 148 80 75 72 73 64 67 114 134 166 198 187 163 156 137 85 110 121 29 -5 22 102 89 87 50 2 56
12 9 -31 -27 -3 1 3 34 50 21 -3 43 90 103 69 104 68 76 136 96 117 115 128 99 85 139 151 169 181 173 129 130 134 153 130 123 62 43 63 84 82 87 63 33 30
4 -17 -33 -21 -2 13 11 -19 52 4 31 167 131 95 130 117 115 94 105 110 89 148 148 131 99 124 124 92 116 116 136 143 141 111 89 44 21 38 19 39 38 24 22 22 17
-19 -8 -0 10 17 -2 75 -21 -36 9 123 105 225 158 163 184 137 103 93 110 111 137 135 159 93 52 160 175 137 140 139 112 99 71 56 36 -4 13 9 29 63 74 65 60 74
-18 12 7 -9 13 74 63 -65 -3 11 141 30 199 180 203 84 113 107 67 119 132 173 170 104 93 84 92 153 92 112 77 93 73 67 15 20 -15 47 47 62 77 65 72 72 61
11 9 9 2 38 65 -39 -12 -2 50 45 177 163 165 237 120 131 139 71 104 142 128 112 101 109 39 36 -29 47 53 49 41 59 75 59 58 4 30 69 74 60 52 50 69 101
12 -4 22 13 67 71 -12 15 25 115 197 124 166 128 218 208 124 120 134 117 126 158 127 124 101 112 103 75 90 83 62 49 30 27 28 54 51 44 68 92 109 127 182 154 151
32 -5 15 12 21 10 5 19 73 184 185 165 104 180 186 148 215 158 162 167 137 154 147 111 130 125 108 132 95 49 87 59 29 29 76 51 88 59 57 134 123 119 81 147 196
43 9 22 28 31 13 13 84 205 105 218 160 130 143 157 131 170 172 205 169 144 180 161 133 161 148 114 148 155 96 96 97 108 120 68 31 60 -1 61 91 45 49 103 168 187
29 25 40 39 41 34 18 126 155 197 190 208 185 163 178 116 162 121 169 155 139 109 173 92 107 87 88 74 44 96 71 75 118 112 78 41 43 11 40 47 63 95 102 126 150
48 62 99 82 59 55 107 404 337 306 281 182 198 174 210 149 144 129 111 116 99 88 66 101 99 77 67 82 64 53 66 46 14 26 38 41 28 -4 60 83 87 133 130 99 39
73 94 112 76 53 35 128 179 317 334 181 220 183 117 118 124 131 88 117 58 65 82 75 68 82 81 77 81 99 39 42 65 81 36 45 47 24 22 32 35 78 78 50 -19 -55
74 85 113 47 14 58 160 247 303 239 230 141 105 143 119 150 94 109 70 65 67 59 73 77 55 85 67 43 53 79 72 72 54 45 27 40 12 18 49 17 47 46 -40 -108 -8
68 34 80 45 134 157 198 165 138 196 206 151 83 142 100 123 93 97 40 62 25 50 52 67 34 61 59 47 24 45 35 69 53 38 84 44 26 20 14 -46 -19 -45 1 9 53
42 85 96 115 40 128 110 116 125 139 118 66 53 64 83 70 61 52 32 51 25 48 26 37 53 69 71 40 53 40 47 83 87 75 58 60 12 22 -26 -5 12 -8 26 46 23
12 12 74 91 107 125 94 96 97 74 56 40 51 74 106 100 85 60 82 81 42 63 49 47 28 26 27 19 33 54 46 104 120 79 65 93 101 79 90 25 60 67 50 5 -17
-19 3 14 13 68 73 57 69 59 58 63 64 63 74 88 66 73 56 86 80 107 78 94 46 3 20 18 16 16 6 10 58 117 101 85 72 77 166 71 32 41 61 -0 -35 -22
-4 -4 26 -19 85 92 76 61 53 49 12 33 31 49 44 82 57 46 58 78 49 70 62 85 29 32 24 29 11 5 -24 -2 22 14 107 152 198 135 10 37 46 37 9 -21 -0
-29 2 11 -14 6 40 69 34 62 41 59 26 7 35 84 93 61 54 44 64 21 72 105 55 46 37 28 49 29 18 35 72 52 67 71 101 154 39 -23 -13 38 30 5 -4 -1

GFSSW_con_3kmhel_054.txt.gz
Helicity
80 77 75 79 93 90 65 51 20 61 143 136 123 46 180 40 47 77 53 69 50 30 201 115 129 172 212 232 234 241 236 167 130 91 72 43 87 124 121 130 141 93 131 98 89
90 101 116 96 50 51 62 63 53 29 54 143 106 149 98 164 77 64 78 31 26 58 144 131 153 197 222 220 249 262 215 160 143 118 60 90 82 126 172 186 162 163 170 144 146
79 72 62 52 24 16 33 52 34 24 45 75 124 123 91 65 119 40 35 25 30 59 95 135 134 177 199 224 245 238 189 219 167 113 103 64 105 94 111 148 126 164 196 208 200
46 35 29 18 23 25 46 73 78 46 18 29 101 121 141 19 80 19 54 24 9 70 81 139 166 191 199 214 232 186 169 180 144 127 109 75 85 94 73 71 87 122 167 199 172
32 12 24 24 26 33 38 46 36 17 23 27 106 183 135 67 111 37 55 141 60 82 72 141 188 226 172 187 204 161 167 129 109 132 72 44 44 37 58 51 88 143 174 204 193
24 19 21 27 30 24 25 18 -2 2 15 24 82 204 111 73 61 34 36 67 110 96 69 133 169 204 169 140 168 108 117 119 109 74 43 17 20 35 26 31 67 93 145 155 177
24 22 20 19 13 2 -9 -15 -11 10 15 16 75 125 119 106 31 76 67 34 88 101 89 111 151 154 116 166 101 160 113 124 56 55 65 6 24 74 48 60 69 62 85 129 136
11 17 26 14 -13 -16 -5 20 29 18 12 39 36 39 83 73 59 152 130 68 123 120 73 92 114 126 134 145 171 155 121 133 97 81 94 64 11 48 69 45 59 59 33 71 115
10 11 17 -7 -28 -24 -17 14 44 42 17 42 43 54 136 -22 54 114 121 64 90 77 66 55 109 122 146 155 191 181 137 152 138 48 99 118 3 11 97 82 73 84 65 48 61
5 -1 -13 -14 -8 -1 -0 3 29 5 17 12 41 82 118 -35 79 73 107 100 117 90 91 98 94 129 152 163 193 167 176 123 122 106 110 110 58 22 45 27 39 70 64 64 41
-11 -18 -3 3 -0 15 28 32 23 10 21 45 122 162 65 116 137 94 108 120 122 136 128 134 124 108 90 147 132 105 122 132 128 115 85 57 10 11 34 30 40 44 44 50 47
-1 2 1 10 2 -7 65 67 32 -17 56 35 148 79 121 56 117 122 93 105 130 118 73 201 139 80 72 107 134 145 140 123 127 102 62 38 -12 11 35 56 71 70 73 58 33
-2 13 -0 4 -7 39 65 45 32 -4 92 4 67 96 176 165 105 135 111 115 121 109 115 62 70 60 94 167 114 171 113 101 93 95 31 16 -47 53 49 51 68 91 74 87 83
2 23 15 3 40 38 43 27 9 17 152 156 131 33 118 220 202 130 104 113 136 137 108 97 45 15 80 41 160 125 57 68 91 93 69 85 -4 64 79 153 137 223 231 202 159
28 12 15 38 74 52 -9 -3 4 110 199 145 123 127 54 258 122 145 91 152 112 198 123 148 74 49 14 15 -15 47 58 62 41 30 48 80 54 78 110 160 160 202 208 188 182
44 11 32 36 35 16 10 34 54 202 176 151 116 138 86 126 163 175 138 183 164 156 124 105 113 97 77 102 41 43 107 83 59 48 85 71 72 81 99 159 136 129 164 169 169
46 33 58 60 55 68 65 79 94 184 200 125 134 163 120 120 170 181 164 172 128 165 156 139 137 108 100 171 155 108 102 99 97 119 73 63 79 54 64 86 48 46 109 145 99
61 71 48 60 33 26 34 106 239 237 177 117 129 111 242 172 156 157 146 172 140 116 143 88 99 91 91 73 42 105 74 76 106 117 87 66 81 51 50 40 29 57 71 88 94
53 85 91 73 44 51 99 287 300 229 188 165 172 163 154 162 144 141 153 128 120 89 71 78 94 101 95 85 87 74 94 68 51 72 101 57 44 31 54 34 53 111 116 76 17
59 66 73 42 53 131 153 191 277 244 189 120 129 84 58 121 100 91 85 91 61 83 89 68 81 84 72 85 131 70 43 87 96 87 99 58 55 46 90 96 71 86 33 -18 -54
54 47 112 79 76 99 133 198 220 172 109 66 65 66 42 86 83 90 66 70 85 81 63 64 58 79 71 49 52 86 76 83 58 55 48 65 43 28 70 85 19 -6 -49 -27 13
80 59 112 97 46 56 101 127 183 158 117 53 49 86 55 65 90 84 63 38 60 42 56 62 45 54 60 36 38 45 22 54 45 37 52 39 37 31 17 -70 -20 -32 -20 11 9
51 83 89 70 26 88 72 102 146 110 91 48 30 24 60 75 55 81 60 34 24 50 29 27 49 54 56 47 53 36 54 75 78 62 33 41 33 34 -23 1 -42 -65 -3 -25 -26
21 26 57 56 74 67 52 58 80 53 64 42 46 49 58 81 69 71 59 74 16 44 47 31 22 22 23 27 29 44 49 86 90 66 61 54 43 41 54 -16 4 -20 22 -2 16
-12 4 28 55 80 78 63 44 32 40 51 69 71 48 48 46 49 47 56 66 73 73 86 34 6 34 28 26 24 20 23 52 95 122 50 48 58 129 68 36 11 42 20 -5 -24
1 4 -10 13 48 49 61 61 41 36 48 50 75 101 68 43 46 42 59 60 55 58 74 76 11 13 30 31 10 26 -1 12 26 29 72 107 122 112 39 -16 19 20 -20 -18 -10
3 5 -2 -16 39 33 41 71 73 40 46 46 43 54 98 104 43 56 61 63 36 62 75 55 24 28 31 42 32 29 17 49 117 96 106 85 139 40 9 -17 -2 22 -17 -2 -7

GFSSW_con_3kmhel_057.txt.gz
Helicity
57 43 61 78 122 126 88 51 37 40 18 22 77 141 147 174 235 57 57 73 38 36 146 164 148 191 221 223 218 233 222 150 101 95 65 45 66 84 96 97 100 96 134 136 77
71 83 82 94 73 61 33 37 28 41 37 27 103 89 124 22 136 159 71 29 15 37 112 150 152 192 243 239 234 251 206 133 138 120 87 92 76 91 111 140 132 149 136 87 66
109 115 58 33 39 41 33 28 31 47 47 29 23 92 125 28 37 -14 -4 13 21 43 91 127 128 172 213 249 256 234 180 169 145 128 112 84 109 98 100 110 122 158 155 110 130
95 45 32 15 45 39 31 46 53 42 45 45 43 53 113 67 91 46 47 9 16 66 88 145 152 176 176 223 232 211 187 158 146 122 119 95 116 129 86 95 87 111 148 123 116
27 19 10 23 23 24 22 25 24 30 40 43 47 30 65 126 95 56 139 199 36 76 83 134 168 186 152 156 204 173 144 151 143 121 97 69 72 85 65 77 93 102 137 150 139
22 16 26 26 18 8 6 -4 -6 3 3 17 30 48 76 164 20 11 49 200 65 72 81 105 135 206 153 128 167 93 124 105 110 83 92 50 45 58 69 44 56 89 109 120 137
17 21 21 18 19 2 -15 -28 -13 6 5 2 11 41 94 224 126 82 17 119 84 44 80 70 135 196 145 149 140 124 109 106 63 71 70 9 8 37 53 63 57 61 84 123 117
20 25 14 20 21 -8 -27 -20 6 18 19 -6 35 34 57 127 60 132 74 35 68 59 76 58 134 153 143 131 178 141 153 118 96 63 75 59 -1 22 87 43 55 72 78 106 107
18 15 16 -8 -25 -27 -18 -25 31 22 18 12 26 45 84 82 75 38 120 51 52 46 67 76 135 146 162 182 193 171 108 128 180 69 95 94 14 -29 96 40 76 86 94 78 97
22 -7 -14 -3 10 -8 -15 31 7 21 31 42 30 62 136 57 59 72 90 54 97 76 109 83 120 151 159 176 183 176 174 135 113 99 102 87 68 70 73 14 40 63 68 54 56
17 7 10 7 4 3 -11 16 69 43 16 23 28 142 96 53 62 91 90 53 87 109 141 87 122 72 102 161 163 91 135 123 106 114 100 63 34 49 57 41 42 59 78 90 88
4 10 33 9 20 43 59 58 51 -21 2 36 57 70 128 107 -44 144 81 103 134 97 83 132 59 81 104 130 138 127 146 140 149 129 82 77 37 57 59 54 45 54 64 64 60
20 23 23 10 111 69 49 28 17 -3 64 61 -45 66 108 116 42 122 69 120 94 52 79 167 105 102 100 111 150 176 138 146 140 124 58 26 -12 53 65 103 133 145 105 128 131
26 13 27 76 3 -20 14 14 8 34 147 127 -5 179 97 86 138 115 79 98 166 99 134 107 162 83 64 97 103 135 106 113 108 115 121 91 77 100 90 139 192 229 257 258 249
11 31 71 44 46 24 20 46 60 54 225 104 45 103 120 87 187 190 137 78 112 59 85 63 16 138 148 183 134 105 71 105 116 108 107 106 60 107 117 157 180 227 270 273 233
15 17 61 86 90 76 72 56 41 213 242 111 122 71 138 100 201 191 165 153 115 150 124 87 46 17 22 -32 28 17 133 134 123 115 129 117 92 136 136 137 145 165 230 232 214
52 19 36 74 69 71 35 75 194 158 172 182 120 54 169 180 184 163 170 147 92 81 122 164 180 110 79 96 63 52 80 157 222 209 138 94 93 97 88 110 89 139 204 151 70
56 45 62 64 58 53 119 149 178 205 164 147 72 57 162 164 174 149 188 152 139 88 92 68 92 99 83 67 34 93 66 76 106 121 94 80 96 91 78 78 59 100 87 23 19
70 89 65 73 83 145 144 235 152 174 137 34 131 139 130 123 95 116 138 131 102 101 68 91 87 95 89 70 75 68 74 65 73 93 100 71 72 57 56 60 66 105 73 34 -23
111 120 91 84 115 166 134 99 132 130 94 39 56 77 82 69 94 76 103 111 92 91 86 59 78 81 63 94 122 71 61 88 90 95 116 102 90 61 79 80 84 95 60 26 -11
79 27 130 91 73 86 90 98 151 99 36 30 37 31 36 39 62 90 86 81 75 77 61 54 47 80 62 60 46 85 81 88 76 64 99 136 100 37 25 27 25 14 -19 -35 -26
41 46 87 47 24 91 116 114 123 101 69 42 17 46 44 49 62 50 58 40 56 48 52 68 40 58 64 60 52 49 38 40 41 42 51 55 64 45 43 10 -12 -29 -26 -38 -48
44 48 74 53 49 78 104 115 109 71 61 42 22 8 47 60 48 74 46 48 50 71 41 37 57 66 54 30 55 35 50 57 54 54 29 48 44 39 41 -22 -25 -49 -26 -34 -20
24 35 3 17 33 38 49 65 49 43 42 32 27 25 46 46 58 49 66 74 32 75 62 57 39 38 33 34 36 39 49 64 53 49 48 41 51 4 7 8 15 -21 -18 -20 -26
7 25 17 7 40 33 21 40 23 27 39 62 50 20 14 46 50 58 61 63 83 75 78 46 24 37 33 32 39 39 35 36 47 72 34 40 35 81 53 28 11 22 2 -21 -13
26 -4 5 -11 -5 -6 17 20 33 27 28 50 68 80 31 25 29 -17 62 59 32 68 84 72 13 10 35 30 23 40 18 12 12 22 38 45 76 59 16 1 6 16 19 -2 -7
63 40 21 -5 15 13 7 7 2 -16 19 58 47 70 81 71 40 48 56 62 40 58 66 59 14 16 34 46 35 37 26 78 70 51 57 65 61 51 36 15 1 2 7 5 16

GFSSW_con_3kmhel_060.txt.gz
Helicity
63 75 69 90 89 88 95 107 96 45 39 52 69 120 139 92 158 130 171 73 32 51 160 112 137 144 170 178 203 249 171 110 54 49 39 49 50 53 76 70 69 89 116 129 102
61 75 98 77 59 43 56 60 61 47 41 27 28 60 138 165 84 119 140 61 39 47 111 120 127 145 187 182 184 182 137 89 99 80 83 23 49 44 75 67 59 69 87 91 85
59 61 39 31 51 35 54 41 39 45 45 49 50 40 63 92 155 44 51 -9 21 50 80 107 103 149 161 187 180 167 126 158 92 91 76 41 76 93 91 88 97 90 132 111 82
30 24 26 42 35 33 31 19 26 29 38 59 63 56 59 52 258 94 113 -3 21 48 83 94 91 146 154 155 143 191 150 180 109 114 128 77 106 95 94 123 106 123 159 144 114
25 16 13 37 40 27 17 6 2 8 13 21 33 58 82 80 133 104 275 131 36 56 69 95 95 139 136 136 131 167 133 127 119 125 120 125 111 105 89 93 107 131 132 125 144
25 18 22 28 28 15 12 -6 -7 -3 -24 -1 16 52 68 117 116 55 79 259 81 51 66 82 108 103 124 110 126 98 150 108 104 108 73 67 75 98 82 88 69 83 108 116 121
27 38 24 17 17 21 6 16 -6 -12 -32 4 12 42 49 52 91 -21 36 199 121 54 57 61 109 102 109 141 116 162 89 100 105 87 75 55 39 55 58 65 82 67 81 98 98
28 34 19 3 -14 -36 -15 -46 -17 11 10 -8 -18 35 19 41 111 66 -75 143 173 54 48 23 82 72 115 128 63 90 101 87 50 54 102 82 71 51 65 70 71 64 70 83 78
15 21 11 7 1 17 12 -31 15 27 2 -1 46 51 35 38 92 108 4 107 67 34 22 22 104 90 129 60 92 86 68 71 54 67 53 29 59 64 78 72 92 74 71 78 84
38 32 34 21 12 3 -3 -4 33 19 65 69 62 19 52 97 17 103 59 56 56 39 78 80 117 122 67 82 116 84 89 83 90 101 86 44 28 30 31 64 88 81 78 71 89
17 21 27 29 37 9 21 9 28 44 52 -2 18 62 98 57 38 130 176 76 71 63 160 60 103 129 65 55 182 103 57 81 109 89 80 50 46 50 56 48 45 58 73 89 89
11 18 1 -2 7 39 37 14 7 -15 -7 32 42 64 216 150 11 98 118 47 85 131 145 136 46 76 70 69 105 45 63 76 141 91 106 57 45 36 47 60 67 69 79 91 87
6 -6 -18 -7 37 -3 0 11 11 14 86 28 -32 161 162 121 -60 145 111 24 64 91 101 70 37 61 57 72 85 105 89 99 137 119 106 85 43 43 86 99 90 106 112 128 148
33 52 22 82 33 39 51 54 40 52 87 98 104 129 108 64 -8 165 112 139 179 71 98 74 142 22 27 53 51 80 138 125 131 125 146 123 98 90 80 105 115 149 187 207 206
33 34 60 25 63 89 78 51 50 67 327 157 140 92 67 144 115 49 62 188 81 60 89 61 70 58 45 31 48 134 110 131 143 136 134 107 133 105 74 98 131 199 227 238 230
45 39 40 36 33 35 51 66 110 295 277 169 169 128 49 146 207 99 91 281 210 126 56 111 205 253 170 242 138 74 119 142 129 136 152 119 146 80 94 101 132 191 226 208 197
27 50 67 52 88 73 86 172 297 282 234 214 134 96 66 156 120 126 95 31 78 51 121 166 165 234 170 132 213 154 123 188 187 202 200 142 142 167 121 138 144 197 190 169 126
63 79 77 36 79 112 139 161 179 166 143 164 99 126 167 141 122 148 88 88 102 47 97 180 79 71 56 92 73 88 153 262 225 185 159 126 147 143 107 118 139 184 161 109 75
70 75 106 89 126 131 86 69 58 42 101 78 78 101 100 67 91 111 147 100 78 103 40 53 69 64 55 52 66 59 80 98 129 141 148 110 100 82 101 70 100 140 108 79 56
62 57 122 101 64 97 76 48 34 36 62 65 75 74 35 28 60 82 104 101 81 67 50 51 69 70 55 66 81 68 63 84 101 116 147 86 102 103 92 102 108 116 85 43 25
66 52 97 57 62 68 78 23 51 48 46 71 73 35 21 27 39 74 55 46 60 59 44 28 59 66 66 54 48 71 76 84 92 93 117 111 83 63 67 78 87 76 34 0 -4
26 17 47 39 -11 42 83 60 83 71 56 43 34 28 26 40 38 38 39 40 56 63 54 64 39 52 66 50 56 64 75 82 122 81 85 126 94 63 75 38 30 46 7 -13 -26
21 16 53 42 2 0 42 71 55 42 42 30 13 11 27 41 28 38 55 63 54 68 33 24 55 62 41 43 48 41 42 64 60 65 68 94 67 64 55 18 -16 -2 -28 -22 -17
20 32 20 18 31 17 12 47 31 23 17 30 15 9 38 48 51 32 43 59 46 78 84 62 43 60 68 51 50 45 31 31 52 41 43 59 72 47 49 7 19 -9 -16 -17 -23
20 31 13 8 7 0 10 23 17 20 37 41 20 18 10 15 38 36 54 47 54 69 69 61 33 39 42 44 42 48 31 22 59 67 38 75 49 65 44 37 19 4 14 11 1
50 33 13 -2 -2 -3 -10 14 19 15 20 50 41 46 29 35 49 33 59 49 43 55 67 75 30 30 30 34 31 51 37 19 15 12 14 26 57 69 54 24 9 13 14 11 10
44 63 60 22 6 9 15 15 0 -26 -11 29 70 72 69 55 50 53 41 62 38 33 72 65 29 16 29 46 33 42 37 28 35 34 33 24 47 25 30 30 15 6 10 17 5

GFSSW_con_3kmhel_063.txt.gz
Helicity
60 37 56 68 86 52 42 44 46 66 64 43 58 76 118 147 162 74 148 154 9 86 107 89 112 137 112 139 142 234 164 103 54 52 50 40 35 60 82 97 56 68 164 119 92
53 34 37 28 20 34 41 44 41 56 59 54 54 48 61 114 182 147 152 111 42 76 111 86 92 123 127 141 177 186 156 83 59 52 84 48 77 47 79 56 51 52 72 89 83
46 38 26 39 30 34 25 40 58 39 30 38 52 45 63 52 191 167 69 63 33 38 97 162 67 103 110 158 136 135 128 98 95 162 176 163 45 63 60 70 62 49 58 67 80
28 22 26 37 32 33 29 25 27 31 19 36 53 62 74 47 177 88 107 13 42 27 51 141 87 119 136 129 134 173 86 207 107 144 188 123 58 77 68 110 121 215 191 100 68
12 23 27 28 35 32 16 9 24 12 16 24 30 39 46 52 75 73 212 145 59 23 48 103 84 102 129 81 109 127 130 180 194 112 81 62 77 64 83 119 157 112 114 110 121
30 41 36 31 21 17 13 13 20 12 2 9 10 35 35 51 48 96 98 286 75 35 49 63 82 75 142 101 134 102 203 136 164 89 113 90 77 103 94 96 82 88 105 104 107
27 42 41 38 10 -5 -5 -6 -7 -1 15 7 8 12 11 16 56 36 64 262 198 85 62 50 78 87 164 125 115 194 188 137 105 73 65 91 82 66 94 59 68 71 80 89 103
36 33 34 38 19 8 -6 5 -52 -13 8 14 9 16 36 13 43 117 -1 201 274 79 71 70 87 84 135 121 71 146 139 102 95 93 75 46 78 -1 32 55 63 59 71 74 65
40 24 13 26 31 17 9 -10 -27 -12 25 -2 -1 49 14 37 32 57 -16 215 198 41 77 65 107 142 114 88 71 110 106 83 56 34 86 55 72 35 58 66 66 67 67 72 65
34 28 33 17 23 23 -2 -7 -24 -9 6 55 13 5 13 34 27 46 -17 60 169 70 85 120 149 161 150 122 131 99 102 30 74 51 57 49 79 105 67 96 101 86 74 85 78
28 58 28 29 16 53 -5 3 19 9 -10 -11 6 25 68 49 31 14 65 121 146 60 175 103 221 126 44 56 52 74 51 146 97 48 61 66 52 60 4 39 72 74 73 68 71
32 83 35 27 43 28 1 6 -15 -6 23 17 27 36 87 2 64 2 44 102 123 102 122 146 112 112 56 54 103 218 68 99 148 84 73 46 56 80 72 32 47 68 85 96 116
37 68 84 72 77 45 21 15 19 20 66 30 51 99 65 60 90 70 87 100 132 83 116 87 70 80 80 92 115 131 85 63 107 105 84 143 46 28 62 116 90 71 73 104 114
30 45 55 109 101 47 60 11 29 25 218 169 134 88 67 112 62 127 86 91 204 65 81 80 78 75 107 71 72 97 138 122 119 66 115 52 100 27 55 77 72 80 112 126 124
27 54 56 28 105 59 40 21 10 85 182 110 114 96 69 53 43 104 138 105 231 214 160 130 96 13 89 68 61 134 92 89 114 142 158 81 162 63 54 82 99 123 143 154 160
24 47 57 117 68 92 71 83 119 246 165 119 98 124 63 135 95 94 116 184 188 213 182 84 116 117 89 182 116 74 103 118 135 147 142 77 135 69 49 76 109 132 136 165 173
24 38 52 65 65 92 101 128 237 134 196 97 141 78 103 81 125 76 153 112 72 60 59 23 130 295 193 221 233 134 83 189 183 173 166 169 138 228 101 114 100 139 158 174 148
19 34 83 86 78 80 118 173 9 151 92 56 77 15 82 77 43 31 12 71 47 88 156 72 155 211 244 225 141 150 147 214 200 160 140 132 154 155 157 141 202 171 157 144 131
38 79 91 92 51 52 69 32 36 61 96 74 52 24 69 28 10 21 32 11 14 109 111 80 76 118 129 141 152 133 156 158 228 194 153 121 147 96 114 122 131 156 147 131 108
80 52 66 33 11 34 40 22 37 50 67 68 77 70 47 39 45 45 64 47 28 26 10 20 49 43 47 86 80 166 89 162 174 173 156 102 117 130 89 121 121 128 111 82 65
56 25 40 26 40 -16 30 1 21 60 71 74 42 22 8 5 48 49 40 44 60 39 30 25 41 29 30 56 56 61 83 102 131 140 187 114 130 117 49 90 109 105 77 53 47
44 23 39 17 -0 4 15 7 27 48 50 41 29 24 15 19 15 37 36 43 55 56 43 60 49 50 40 41 83 97 79 65 105 60 93 141 87 41 85 133 96 59 32 18 6
12 27 39 22 -13 -18 4 5 9 13 19 22 8 22 23 20 24 43 37 49 68 90 56 24 30 56 51 43 36 45 48 85 92 97 67 104 41 42 67 65 32 28 -3 -2 -2
25 16 21 22 31 12 -8 4 21 6 1 -2 -0 -0 7 13 36 25 33 48 46 65 87 51 39 77 105 76 72 62 42 44 87 92 68 93 78 35 47 42 27 19 -8 -4 -8
43 42 29 23 36 19 22 13 9 14 7 5 1 -15 14 23 35 32 29 28 31 31 48 62 39 47 57 51 39 52 46 30 68 66 81 104 88 45 74 60 35 38 23 5 2
59 57 66 26 17 16 26 18 15 30 34 33 28 49 33 32 57 44 23 33 21 31 40 56 44 46 34 34 22 44 35 26 19 24 27 53 81 86 66 51 26 9 15 15 45
30 36 59 79 60 37 48 40 30 26 25 10 52 49 47 67 56 67 65 80 68 36 22 40 34 35 22 24 22 32 26 28 40 45 46 37 61 66 80 38 40 16 16 28 28

GFSSW_con_3kmhel_066.txt.gz
Helicity
23 33 24 36 42 34 20 28 22 23 33 38 47 44 63 85 111 98 84 131 80 57 81 73 95 151 161 172 128 131 125 74 66 152 72 52 83 136 83 97 77 44 59 99 80
64 41 34 45 44 35 31 33 37 39 41 39 35 59 64 71 122 135 165 66 68 9 73 87 91 125 205 156 179 201 156 113 50 65 98 75 67 78 130 120 129 99 57 72 48
40 20 24 35 42 29 32 27 36 37 58 43 50 73 66 57 105 64 -3 57 33 50 54 78 69 103 133 172 157 196 122 81 119 57 115 86 87 123 90 90 74 67 36 50 77
8 22 43 42 37 33 26 21 32 29 20 50 51 36 58 73 134 114 28 46 36 49 52 98 89 120 156 135 115 208 65 174 153 95 146 146 177 102 100 78 85 255 278 71 64
14 33 38 41 30 19 10 14 11 13 15 34 25 45 41 40 6 108 87 100 80 56 62 82 107 119 154 126 109 103 222 127 201 196 185 192 218 209 117 75 114 158 244 178 108
21 36 35 44 37 23 -6 -3 -6 -17 30 14 18 19 12 54 34 99 90 94 114 71 63 63 126 86 144 116 112 78 150 235 159 136 205 147 130 190 124 93 47 127 147 115 97
52 35 17 9 33 24 16 -15 -24 -34 -36 13 9 -8 2 -4 59 76 19 133 156 52 80 30 69 87 173 154 117 165 149 244 192 66 128 130 93 73 99 142 128 54 70 93 124
52 30 11 11 20 28 13 5 -33 -30 -37 16 8 5 23 -1 29 50 10 72 149 237 78 22 37 124 129 162 129 161 155 190 143 101 96 50 97 104 97 102 84 79 100 75 60
50 38 12 8 11 26 19 -1 -14 -13 -4 -2 -2 6 8 -11 15 43 101 55 197 217 20 33 103 144 148 159 158 146 115 134 106 123 159 65 39 73 86 65 76 73 74 76 86
40 54 36 5 41 57 31 8 -13 -10 -12 20 -38 -13 12 63 51 26 31 -3 204 173 67 87 147 136 146 194 170 120 117 69 94 79 117 115 59 129 99 120 90 85 81 91 86
26 45 61 24 41 33 28 28 19 0 -15 -16 -21 38 30 53 37 39 61 89 159 111 190 131 214 114 90 121 124 60 60 87 50 71 79 76 84 82 82 52 81 93 90 97 78
23 35 27 42 44 52 62 39 0 11 42 20 17 14 -1 11 72 -15 13 110 87 202 103 179 166 102 100 100 134 136 99 51 127 104 68 78 76 83 105 91 58 73 102 101 123
18 28 18 30 31 50 43 8 37 37 72 66 34 -10 -83 52 70 33 92 105 69 117 130 193 143 127 107 135 147 133 148 91 183 181 159 162 98 77 120 131 149 134 109 136 155
28 15 15 14 74 57 106 4 26 82 167 85 42 28 78 93 -3 60 54 125 144 42 203 216 135 100 152 139 102 129 148 89 141 133 127 117 111 46 78 150 115 75 63 83 125
37 12 25 54 82 163 102 38 62 79 176 53 95 81 46 51 55 96 76 99 236 186 112 146 112 81 78 78 115 180 151 224 148 123 168 100 144 77 134 126 102 101 173 171 151
36 28 23 76 108 134 87 34 96 153 222 177 160 99 81 82 70 92 65 75 214 248 214 125 166 114 109 83 209 140 243 233 144 141 139 120 118 107 142 90 99 171 142 136 139
38 33 53 53 95 84 85 73 93 145 90 99 117 113 127 78 155 93 159 191 127 109 110 100 96 133 102 55 90 154 225 201 175 168 157 158 124 118 90 100 161 149 127 144 126
49 34 66 69 88 32 39 39 12 49 48 61 71 15 50 89 123 8 61 118 107 62 90 34 23 70 142 109 108 157 144 211 177 149 160 209 144 188 209 175 152 210 214 151 164
48 81 56 83 60 15 32 13 20 35 22 42 87 35 10 -8 -10 -27 -32 27 51 80 42 60 48 76 120 171 228 179 146 118 213 176 175 154 160 196 246 300 270 166 109 132 135
41 50 35 44 37 43 52 58 -2 -34 -2 55 46 49 -19 7 1 -18 -10 2 -18 -24 96 27 41 58 115 258 232 177 122 130 162 202 164 115 89 134 137 214 177 165 128 136 129
37 31 65 55 41 11 40 39 19 -4 -9 -1 8 18 9 13 39 29 30 30 26 2 35 6 18 28 19 95 115 213 206 150 151 168 165 107 116 96 107 175 137 131 136 108 104
37 13 66 44 19 19 14 12 10 13 29 1 4 9 17 23 28 34 32 44 51 41 20 46 41 44 29 57 75 116 135 98 152 105 139 147 117 50 73 87 142 125 102 95 86
27 25 36 32 32 20 4 19 4 -5 0 -11 -25 -5 10 26 23 37 40 17 38 80 55 22 32 60 47 31 23 40 59 112 91 125 88 98 65 81 172 176 96 64 58 43 39
60 34 27 22 29 23 15 14 10 30 4 -9 -7 -22 -24 -4 15 24 45 41 47 53 65 73 43 75 72 43 55 41 49 68 114 114 79 97 106 90 71 64 33 44 43 44 39
60 79 61 33 48 29 21 0 -1 14 21 19 15 -11 -22 6 15 25 66 46 27 31 45 71 44 73 67 49 39 37 53 69 105 96 120 147 102 52 106 53 38 83 99 106 70
53 63 55 51 44 36 39 25 10 30 37 26 36 45 43 39 62 53 38 24 32 43 41 55 50 55 53 52 52 57 46 43 54 46 36 100 127 160 137 129 86 47 74 54 62
50 53 66 48 76 87 85 85 60 41 40 20 45 55 39 90 87 79 82 92 103 50 37 54 60 54 40 38 41 53 47 71 84 64 71 67 46 106 125 105 92 70 60 32 57

GFSSW_con_3kmhel_069.txt.gz
Helicity
60 53 23 27 36 33 37 26 32 41 39 50 63 51 78 58 57 83 90 85 80 98 92 106 93 136 216 230 222 198 154 237 119 117 -17 99 59 111 96 152 128 71 76 63 67
51 33 31 37 45 33 27 21 31 25 37 53 56 51 72 72 62 89 76 73 98 87 70 113 102 149 243 201 186 181 139 72 31 -2 65 48 51 325 142 146 126 114 92 80 85
40 29 48 41 33 30 17 20 31 26 40 55 81 76 56 64 65 32 94 51 59 34 78 82 84 147 194 209 227 162 79 96 62 39 52 91 99 120 74 124 128 41 42 71 75
36 57 45 36 24 23 16 8 23 32 31 39 47 43 54 78 115 56 211 -6 27 53 34 75 122 168 173 193 147 105 81 145 67 83 29 132 76 61 105 78 68 63 75 86 53
58 75 31 13 9 23 17 1 15 16 25 22 15 18 37 48 86 43 248 111 75 51 62 86 138 156 167 156 151 143 144 70 59 93 105 102 85 136 137 77 107 202 150 41 29
62 61 36 1 7 26 28 13 -4 7 -10 -4 -6 8 25 59 72 78 37 202 91 58 50 96 114 144 132 148 136 92 120 145 176 91 130 103 160 168 191 185 91 90 161 161 50
43 47 19 3 0 22 21 20 13 -15 -23 -21 -2 -9 1 20 42 96 37 170 87 75 66 77 98 105 118 160 108 144 104 157 206 142 121 145 180 181 194 226 151 116 67 115 130
34 36 23 9 34 24 -2 3 -17 -19 -18 -5 3 -4 21 31 45 55 63 84 65 52 90 33 40 126 138 164 161 124 153 219 215 148 130 106 63 52 75 158 159 132 103 99 97
24 27 24 29 33 32 21 12 -11 -2 2 0 -23 -14 20 49 51 45 76 102 90 54 81 46 79 125 136 145 204 204 154 177 203 108 112 133 87 95 94 102 102 106 108 110 100
26 14 15 44 26 32 28 21 8 -12 0 -4 -33 -17 4 39 71 81 67 53 87 85 114 120 158 146 137 173 134 183 184 158 197 168 122 107 92 85 130 97 84 73 84 78 65
30 8 14 28 75 46 53 37 37 29 -5 17 25 28 25 30 60 73 66 65 118 85 147 135 185 90 66 146 172 114 102 87 69 103 101 71 98 101 111 87 103 102 79 102 98
33 27 2 7 29 37 81 76 38 41 40 28 30 26 0 43 49 74 86 49 44 92 145 197 78 93 83 123 89 133 138 78 97 58 88 104 96 78 58 85 90 72 66 111 144
39 45 29 24 23 70 59 63 24 46 178 166 92 20 42 10 23 65 95 94 145 121 90 181 78 80 83 75 80 126 97 102 109 205 209 114 136 120 90 91 115 115 115 126 106
55 43 41 25 80 92 66 42 34 39 204 137 87 70 62 22 65 68 62 119 106 107 135 96 125 122 123 79 110 88 68 160 171 243 186 118 79 78 83 98 156 160 143 125 131
45 37 41 49 64 68 86 56 38 52 158 100 175 114 56 58 69 47 31 92 69 224 210 287 132 158 162 143 158 86 156 162 197 178 154 127 86 43 108 145 171 160 127 108 113
20 19 32 62 71 74 67 45 55 60 88 181 97 59 51 45 69 88 12 216 130 207 251 221 207 163 130 110 155 208 231 265 235 181 128 105 116 39 134 67 174 192 159 167 148
16 11 43 45 47 62 25 44 53 33 64 83 111 82 41 57 43 70 88 181 111 103 165 194 174 113 94 88 154 240 124 303 219 209 94 91 113 63 113 111 234 202 207 163 151
15 -2 59 42 32 -10 81 112 61 41 55 81 112 107 79 84 -5 66 47 104 161 101 135 82 116 91 94 80 107 80 314 186 182 192 118 125 95 83 86 117 189 207 160 139 159
1 59 67 26 54 46 67 32 23 69 59 79 64 39 45 14 8 52 38 32 48 63 47 44 47 47 61 95 93 143 254 177 168 147 140 157 141 129 214 260 236 199 199 174 149
49 41 41 88 87 37 35 -4 14 55 57 32 -10 3 6 20 7 11 -11 22 31 55 46 14 32 26 77 119 119 154 210 212 202 169 139 120 121 82 135 204 248 231 189 151 140
45 31 46 83 55 40 25 -1 -7 16 1 -18 -14 -22 -23 0 12 16 13 34 36 62 79 41 26 45 83 96 120 165 229 156 147 123 120 116 101 72 113 202 261 193 131 127 132
58 53 39 59 39 38 36 20 12 10 33 3 -29 -23 -12 -2 7 11 5 17 23 19 5 31 26 37 41 24 57 145 162 180 149 108 109 93 98 96 101 216 214 146 144 127 128
33 46 34 52 23 26 22 28 30 27 23 0 -13 -14 -6 11 10 18 26 -3 41 52 25 23 50 67 74 73 61 78 87 126 175 118 59 42 69 62 92 154 144 123 101 97 94
47 42 35 44 33 36 28 24 30 24 20 13 3 2 -2 1 19 16 32 37 41 49 49 49 45 44 41 40 63 93 87 87 111 136 103 79 73 72 83 95 74 57 50 73 80
47 67 63 59 44 45 47 33 30 34 22 28 23 9 -4 7 11 17 45 39 32 41 49 64 62 64 63 55 58 54 60 90 104 99 96 106 94 27 81 71 37 28 61 101 104
72 72 58 57 56 59 65 65 55 50 32 47 45 53 31 45 46 51 57 45 35 37 47 75 51 73 59 51 53 55 54 50 63 78 86 103 110 99 93 89 128 115 101 113 96
63 57 106 51 46 65 109 104 93 75 37 27 29 34 34 54 61 64 63 47 35 55 55 59 66 76 46 57 63 65 54 86 114 114 94 100 47 213 161 162 129 85 89 76 71

GFSSW_con_3kmhel_072.txt.gz
Helicity
51 50 46 61 59 39 25 13 31 22 34 42 66 73 57 63 69 71 88 87 59 126 130 121 142 172 230 222 254 273 152 112 129 160 113 125 108 127 86 144 156 156 114 97 132
53 58 70 36 43 34 11 6 19 29 28 41 60 64 52 86 100 67 52 79 92 135 102 128 123 151 210 222 201 212 228 167 131 155 24 104 243 278 195 186 229 206 203 133 170
54 72 60 20 24 27 2 6 -1 27 34 38 46 49 49 48 45 54 33 66 109 84 70 104 118 136 203 223 225 138 54 81 74 170 72 49 90 231 329 118 128 92 101 109 137
43 80 67 23 20 23 16 17 10 27 32 30 28 39 50 48 80 62 176 150 49 62 49 95 147 163 152 199 208 154 126 50 36 -29 40 -39 151 393 278 108 68 62 62 88 68
42 67 75 36 36 31 32 19 24 14 9 2 4 24 50 43 67 202 358 134 87 52 45 99 147 174 176 154 167 204 74 83 115 13 -103 -99 76 308 446 82 57 123 109 100 67
33 64 86 53 35 34 41 29 9 9 -4 -12 -9 -14 5 84 49 75 168 145 167 60 59 89 101 174 153 156 167 131 138 174 142 113 46 -72 13 237 169 108 100 109 128 93 75
27 52 66 31 36 40 30 21 -17 -26 -17 -20 -10 -27 6 44 48 116 107 212 220 72 76 55 78 120 147 154 148 133 99 119 98 69 55 55 -13 62 39 122 143 113 102 99 75
30 28 46 30 17 30 21 15 -2 -10 -19 -10 -16 -8 -0 55 69 59 22 144 214 57 82 56 111 100 151 136 181 140 143 104 82 86 98 74 50 2 29 104 158 165 142 147 121
23 20 27 30 27 11 12 17 8 7 12 6 -20 -4 26 58 56 78 44 109 152 27 91 129 91 112 148 168 240 164 146 123 126 99 133 98 56 69 54 45 119 130 115 137 134
22 23 9 7 23 12 13 24 17 11 2 14 5 21 21 40 46 42 87 80 77 39 105 132 141 130 144 169 170 197 187 187 183 145 128 71 75 119 164 76 38 101 97 110 117
22 19 9 2 -3 26 23 42 49 38 35 28 23 36 59 59 49 64 84 86 125 132 108 81 149 49 124 167 109 139 153 95 126 124 142 95 74 84 79 140 121 97 100 85 93
20 13 11 13 8 24 59 72 16 34 57 -23 1 19 21 39 56 105 102 139 126 128 147 124 74 84 93 125 128 89 104 89 94 88 100 91 86 103 87 86 99 103 99 93 114
21 10 8 27 23 64 85 115 54 31 75 114 85 27 9 42 57 88 128 115 37 36 71 167 92 106 107 91 102 132 100 84 88 116 82 87 104 124 107 103 81 79 94 105 89
9 7 -4 1 77 94 99 64 70 41 87 56 29 32 15 40 73 88 107 110 30 74 177 192 61 64 85 63 106 121 69 77 106 96 90 115 53 95 117 99 76 83 104 138 159
16 6 15 30 96 104 82 75 41 47 48 47 71 34 59 57 63 64 65 108 17 143 156 154 117 86 83 107 116 68 95 95 107 130 115 149 112 -6 127 139 72 70 133 158 170
9 12 32 65 89 106 77 41 41 29 -2 113 70 59 49 29 22 -18 54 123 100 42 120 203 228 186 140 163 163 89 115 158 152 204 162 120 119 11 95 102 114 140 179 187 206
-0 30 52 65 64 64 81 74 72 53 32 59 75 46 28 4 -26 -23 117 110 106 140 122 182 209 176 156 169 158 127 158 162 142 149 121 122 132 126 64 59 88 184 208 237 233
17 37 64 60 43 21 38 56 61 30 21 35 55 81 36 37 59 33 38 32 62 78 174 130 121 115 113 131 88 133 160 164 134 148 135 213 127 109 29 34 95 175 223 251 221
35 57 45 52 88 44 43 19 22 37 26 7 36 32 45 25 -12 5 -21 21 68 64 80 114 117 111 86 120 96 141 138 143 169 163 116 109 150 146 50 45 129 173 244 232 200
80 70 19 63 86 46 42 12 3 15 22 17 1 6 -2 -4 4 20 11 10 23 25 34 39 62 87 93 112 127 119 178 223 234 124 113 93 69 81 56 80 131 187 208 198 172
58 81 39 79 42 42 57 25 9 29 27 13 1 -27 -27 -14 16 7 9 -19 5 61 63 43 62 46 80 94 92 128 149 263 248 228 190 116 30 23 56 99 161 209 200 168 138
25 83 49 71 44 24 43 42 25 13 10 -4 4 -17 -23 -6 11 10 17 29 23 10 45 38 51 77 91 70 67 98 76 154 181 210 209 142 34 40 3 103 195 213 175 133 114
50 35 42 54 81 33 16 36 54 45 28 16 8 1 -7 3 6 11 18 16 45 32 17 41 62 81 64 63 76 106 101 118 211 215 149 123 64 80 41 115 160 202 148 134 125
24 44 55 64 52 65 48 33 36 47 45 27 28 17 22 12 14 15 22 44 51 52 55 63 55 45 41 31 65 89 103 106 149 144 185 163 89 40 15 55 122 137 120 112 110
-47 -21 56 87 115 69 66 60 56 26 37 59 65 58 54 38 28 14 39 54 62 65 65 65 34 54 37 48 54 53 95 127 132 106 93 11 -57 -15 -9 42 85 72 88 96 85
-25 -3 34 38 102 127 97 98 84 54 51 59 50 67 69 43 42 39 47 45 35 71 68 73 49 72 63 54 57 68 62 67 81 144 -28 80 32 61 42 89 102 71 73 82 106
-5 30 77 26 51 123 199 152 82 49 37 52 66 48 59 49 57 58 49 44 47 44 56 68 69 81 57 85 90 66 35 92 122 134 116 144 123 119 90 79 65 64 97 110 123

GFSSW_con_3kmhel_075.txt.gz
Helicity
37 78 91 56 17 29 25 21 10 10 23 20 44 55 20 64 82 66 122 71 75 133 88 117 161 177 184 206 195 274 236 163 105 168 37 59 53 136 250 145 115 134 116 123 129
44 72 89 43 15 20 14 12 8 22 23 33 39 44 42 50 72 121 83 102 123 133 126 145 166 170 191 228 229 197 226 165 170 130 69 77 60 155 233 345 148 128 221 212 132
41 65 82 58 26 9 25 17 16 26 15 30 34 50 53 10 43 37 100 109 101 108 89 165 138 148 187 194 230 242 113 123 174 97 163 -33 47 111 256 338 146 89 110 154 150
29 57 73 51 15 14 40 29 43 19 19 21 27 40 59 36 92 89 230 184 143 52 95 116 171 183 179 168 207 195 151 169 224 126 127 -45 -65 156 244 309 239 145 104 133 99
27 47 46 21 24 27 30 23 25 21 -7 -17 4 6 20 39 67 124 330 168 98 63 83 110 162 173 206 186 173 201 95 81 136 170 139 16 -48 98 298 414 276 69 89 102 113
23 38 34 43 24 28 27 11 -15 1 -22 -35 -29 -17 3 50 22 86 277 133 128 62 60 85 116 167 169 161 150 146 97 69 -30 -2 21 50 -50 -36 190 315 262 89 81 82 73
22 23 32 38 56 21 18 -0 -28 -14 -11 -13 -13 -25 -16 -1 8 73 135 151 270 90 66 64 115 156 173 153 123 139 125 62 -6 67 23 -14 9 -15 196 405 392 114 81 122 97
24 24 13 10 31 19 19 11 -3 -3 1 6 7 11 -14 19 51 26 43 195 207 110 39 79 144 134 170 155 185 145 170 81 24 74 49 8 107 -16 212 542 376 116 106 121 124
25 26 12 -7 -8 13 29 24 14 3 8 3 -7 -8 7 43 39 39 34 92 80 124 73 86 132 106 169 157 202 200 137 112 79 32 88 30 17 -85 -0 279 217 86 72 62 106
29 33 13 -3 -22 -22 12 42 31 19 14 20 24 1 20 28 33 47 45 49 81 98 52 64 128 157 183 174 119 224 190 150 96 68 86 92 92 62 75 -5 -57 3 50 74 103
23 32 35 2 -3 -29 15 43 70 52 48 15 1 20 35 66 32 69 76 77 143 106 118 109 172 87 160 165 115 135 143 108 124 91 103 81 69 55 35 63 -26 18 73 73 78
18 16 17 37 -0 27 77 109 64 77 58 12 -6 11 19 26 42 85 84 153 115 64 157 165 101 106 119 146 117 109 100 99 107 104 95 59 34 36 33 7 32 42 62 90 130
19 16 24 31 44 80 118 125 38 44 67 49 37 21 31 24 59 94 99 69 65 94 127 141 104 117 127 149 120 120 100 74 96 99 71 67 36 16 6 25 18 77 104 122 113
9 23 23 50 114 106 115 78 45 15 80 61 57 39 33 37 84 83 110 119 50 73 172 139 62 90 78 104 107 107 93 93 78 103 97 72 3 24 57 11 21 29 87 100 126
-11 12 40 67 108 125 101 67 33 23 39 59 60 70 19 78 55 112 83 141 108 46 89 114 74 99 80 76 83 95 106 82 78 89 42 97 71 7 87 85 41 52 95 122 118
-32 12 70 86 69 61 85 53 28 24 36 25 36 4 23 41 78 87 107 115 95 91 89 144 186 129 84 118 103 77 110 150 125 76 46 79 71 -66 121 77 100 108 88 141 183
-15 27 87 83 74 60 69 54 35 55 9 18 16 -8 -10 -11 22 75 62 34 13 151 120 187 182 146 168 157 142 94 110 112 118 115 41 55 85 91 39 76 71 99 83 133 236
-15 65 62 73 76 73 40 41 83 21 20 4 38 -6 -19 8 26 52 52 27 12 33 151 143 138 117 153 152 99 131 83 123 109 59 53 134 54 58 37 49 59 78 117 152 246
34 51 55 52 97 63 59 86 56 32 2 2 1 32 -33 -33 -26 13 6 35 52 53 57 73 107 133 148 184 167 141 124 124 137 120 92 88 78 46 88 93 69 61 140 127 205
67 57 41 61 78 58 69 66 37 33 20 20 4 -0 -9 -47 -48 -35 -21 19 45 38 94 52 79 103 118 124 173 164 172 150 162 98 88 69 28 57 37 18 105 128 139 167 196
59 77 50 54 47 68 149 68 42 33 43 24 9 -10 -9 -5 -16 -14 -25 37 41 60 90 72 86 127 144 146 125 157 125 135 144 176 99 19 43 57 9 -0 46 130 195 196 158
40 44 35 38 104 121 190 98 57 53 43 20 17 -0 -9 12 17 -4 -1 41 26 77 79 76 76 73 93 86 87 93 120 176 204 202 282 160 71 111 19 -16 60 126 147 128 103
-28 -8 14 63 82 82 122 149 86 62 64 51 35 26 10 2 18 22 19 32 37 32 44 85 73 67 77 116 122 109 128 152 172 177 124 150 115 109 77 43 65 117 139 133 125
-19 -23 4 59 74 102 148 181 156 60 44 58 55 50 45 25 21 29 30 37 52 40 53 53 57 49 37 33 66 107 114 127 149 112 173 136 128 143 82 -6 25 81 144 118 114
7 18 33 40 70 101 135 171 214 173 57 43 50 73 70 62 48 29 40 57 62 78 92 91 36 62 48 32 54 40 85 94 56 89 119 72 50 76 54 35 30 26 115 126 109
55 56 60 54 77 80 136 215 220 221 211 99 58 63 59 40 58 52 47 62 58 103 109 114 63 67 56 58 48 44 49 64 93 77 102 -16 -52 23 30 135 131 106 119 105 71
24 41 93 81 106 115 147 196 194 210 98 81 125 118 90 43 45 63 49 54 67 74 100 117 96 90 47 85 86 56 8 91 134 136 164 85 84 140 65 78 50 83 98 72 63

GFSSW_con_3kmhel_078.txt.gz
Helicity
36 65 82 62 46 16 11 17 8 7 23 15 37 35 27 -0 127 72 137 101 88 161 119 111 139 178 174 204 228 289 279 181 168 165 122 89 67 165 124 175 194 133 88 77 159
35 47 58 33 16 27 22 10 -7 4 24 16 27 39 36 -12 -32 94 99 234 173 118 111 126 150 191 219 180 234 245 200 202 166 178 165 75 13 157 189 305 214 217 185 116 136
26 37 37 12 38 48 49 19 12 3 10 24 27 31 33 -7 -25 10 37 268 174 85 76 139 158 162 221 182 214 234 178 259 295 127 91 62 -31 65 153 251 214 351 303 148 69
24 35 20 33 34 54 54 51 26 6 5 2 10 20 41 28 -4 32 96 280 235 70 72 101 157 175 185 170 197 194 167 256 202 159 76 99 -24 46 118 232 274 276 235 95 32
26 35 26 25 47 47 43 40 10 -0 -2 -7 -7 2 20 40 71 83 127 138 154 94 69 124 137 188 191 181 191 197 155 171 173 134 72 94 5 -99 121 153 208 273 230 69 56
30 33 40 40 50 31 31 13 -1 -11 -22 -12 -14 -26 -19 19 22 64 75 179 127 62 66 106 101 156 152 201 165 142 166 139 175 153 166 35 64 -65 -48 14 242 339 281 102 77
25 37 33 32 37 33 22 16 3 -5 -12 -8 -1 12 -25 -14 8 93 94 150 158 82 88 71 120 187 185 178 157 164 185 199 146 115 99 112 75 5 -143 12 216 361 287 124 50
19 39 35 21 9 13 8 11 12 14 9 7 10 22 9 4 3 33 111 105 138 127 71 68 128 189 180 184 204 169 184 150 145 60 71 21 32 21 -166 130 318 337 294 123 53
15 26 34 25 4 -9 -23 10 19 28 23 7 18 26 23 19 26 26 108 121 96 80 106 57 140 204 192 203 231 197 167 160 120 50 57 23 -1 34 -309 142 283 416 255 157 94
10 11 30 26 24 -7 -10 15 23 29 49 29 40 22 15 15 30 43 31 85 159 94 139 122 144 196 224 230 170 195 215 174 143 51 47 15 73 -27 -65 121 319 414 236 162 79
21 10 20 28 39 31 51 40 37 51 53 67 27 43 45 41 32 49 15 86 193 145 155 74 152 155 186 193 134 174 179 142 99 54 61 -6 50 -22 -53 -27 314 448 336 259 116
15 21 19 32 44 84 90 116 54 37 68 40 18 30 48 32 48 53 53 215 204 128 126 112 143 122 111 164 133 140 157 134 111 61 52 32 33 32 44 36 -8 220 307 128 64
1 19 37 36 59 115 128 103 35 9 28 50 33 12 40 48 36 72 93 209 127 37 69 105 125 112 129 134 146 159 121 133 100 103 101 62 45 58 42 106 105 79 21 19 29
-6 10 45 57 109 124 140 80 26 -7 87 53 59 32 31 59 53 57 111 137 138 112 121 65 99 92 98 140 122 155 113 80 104 139 95 79 52 29 23 5 71 9 -9 11 57
-11 12 56 81 118 117 114 64 24 15 92 54 62 16 18 35 38 68 124 128 89 33 136 86 94 131 119 104 117 105 113 99 98 102 106 101 29 -9 50 -6 -70 -17 -10 -1 63
-7 29 92 100 88 88 96 58 23 75 80 46 23 31 16 48 34 31 125 91 35 38 32 129 120 123 74 122 103 82 136 144 112 98 18 21 39 -45 66 47 58 74 66 59 101
5 45 96 103 99 96 83 56 98 130 46 43 24 12 3 -10 30 65 77 98 63 117 157 133 119 99 119 142 125 115 141 146 113 86 13 52 47 42 21 72 62 73 78 89 136
35 93 75 80 83 90 59 71 205 67 41 30 37 8 3 -9 24 67 81 113 80 54 76 86 86 79 95 104 68 118 98 152 120 69 17 75 -49 -11 9 8 15 43 42 71 113
96 45 65 55 86 58 95 143 135 68 53 46 46 31 7 -8 -40 35 55 99 47 89 59 77 107 134 117 136 143 123 129 114 136 94 56 46 33 8 13 35 68 52 53 66 115
88 68 47 39 73 75 135 117 71 38 46 51 64 44 28 4 -29 -11 65 29 28 59 49 74 81 101 129 122 162 138 153 165 167 72 37 -16 -20 50 42 60 8 28 64 81 137
43 26 38 57 75 116 117 115 77 47 49 53 37 39 32 22 12 -27 -47 71 63 68 67 53 67 75 90 102 134 202 179 197 182 154 61 -15 27 -5 2 54 6 -7 46 105 160
40 13 27 70 66 96 99 109 91 76 67 37 25 21 27 44 27 28 8 21 50 83 84 81 82 41 86 132 136 125 130 142 152 102 128 113 96 59 17 -36 -11 -9 51 114 123
40 14 23 64 46 23 68 78 99 90 81 75 58 35 21 40 46 43 42 48 48 74 79 124 113 105 84 113 120 123 125 104 126 106 91 127 79 60 54 107 22 38 49 61 101
64 35 18 60 47 67 57 81 85 110 104 113 81 42 22 -0 61 70 51 50 58 52 51 86 119 86 85 69 106 109 120 119 154 157 133 135 87 119 96 62 -6 -35 14 77 106
54 53 60 56 59 77 99 129 106 144 151 119 105 86 50 3 6 80 70 74 73 67 104 80 45 60 36 45 64 60 72 96 113 123 130 65 30 70 16 -18 20 -4 45 88 109
75 77 76 100 99 100 112 147 152 154 237 161 183 84 58 -2 13 62 81 76 59 106 125 118 70 65 50 55 46 57 61 68 87 15 7 24 62 18 52 91 30 84 87 126 95
56 54 86 104 143 167 164 167 211 228 228 185 237 159 29 17 111 80 67 78 63 73 111 136 110 80 21 61 56 -23 4 50 172 180 178 77 201 145 74 29 63 63 114 76 47

GFSSW_con_3kmhel_081.txt.gz
Helicity
8 21 33 40 33 34 44 49 52 40 10 6 32 48 32 -2 20 14 113 130 154 192 138 105 119 164 219 231 243 313 177 114 98 99 137 128 101 96 110 165 168 160 201 169 54
13 19 25 58 49 54 44 46 69 50 23 5 26 30 28 -20 10 10 22 206 286 161 139 105 137 189 247 206 222 251 187 100 124 131 150 131 113 123 125 166 229 213 247 208 85
17 19 20 51 67 61 48 44 54 51 35 16 19 32 38 11 -1 54 -8 200 255 152 157 134 144 182 244 207 226 198 143 142 289 216 163 128 96 111 129 187 210 291 303 270 165
29 23 27 52 69 57 51 25 32 32 28 22 19 15 28 21 13 32 -7 252 287 140 80 150 135 189 220 159 225 159 196 199 192 255 209 145 115 103 130 110 182 213 150 175 130
41 39 35 40 56 47 48 23 8 9 10 18 16 -4 1 12 26 29 87 108 266 117 69 116 160 183 218 157 199 198 139 174 172 158 159 81 92 77 103 79 106 229 157 225 146
46 57 34 38 43 37 42 40 11 -1 -1 14 14 19 14 26 39 55 117 65 188 106 102 88 81 160 176 138 148 182 138 112 118 120 112 97 80 -33 20 96 140 212 234 286 214
38 51 44 27 32 31 28 37 20 -0 -0 11 17 39 27 7 52 70 77 78 129 93 98 102 98 155 186 144 175 131 192 190 185 129 57 23 53 10 -38 24 48 173 191 280 269
39 40 49 37 26 19 19 30 33 19 6 10 20 34 23 -0 38 76 88 83 144 104 90 59 110 137 179 189 211 147 175 129 152 130 141 102 14 36 -41 -88 -0 141 206 262 252
46 45 44 38 34 19 7 41 36 32 19 7 25 26 18 17 59 58 75 99 158 118 66 61 130 145 180 167 235 198 145 159 160 127 111 136 12 72 52 -54 -82 97 207 235 232
44 54 46 41 41 30 13 49 49 52 30 13 42 29 13 52 46 66 129 117 128 139 113 52 150 149 167 195 167 218 173 168 134 93 111 91 80 129 25 -24 30 111 136 212 253
37 51 59 55 46 45 59 59 66 33 35 32 27 32 46 74 34 32 86 101 139 140 73 110 135 132 147 159 147 181 157 117 109 92 127 78 83 99 13 12 27 145 128 222 280
35 48 60 72 61 77 92 131 94 38 54 54 26 38 53 63 13 46 54 104 138 103 124 116 78 114 132 134 137 178 144 110 104 58 66 104 74 88 38 25 -47 93 243 218 249
31 43 61 76 64 104 128 119 33 24 81 53 50 38 48 49 8 67 83 182 121 67 146 139 81 85 135 156 164 178 134 125 79 93 107 92 100 73 62 58 40 53 244 241 196
29 43 68 81 107 104 114 71 28 1 111 85 60 42 51 56 48 63 137 169 143 79 80 135 93 107 120 132 122 132 108 100 99 110 97 130 120 40 69 57 35 98 107 119 109
23 52 81 99 114 105 90 51 8 15 166 68 56 30 42 30 26 56 164 161 88 66 58 34 73 83 107 97 104 122 99 78 100 115 119 129 85 -1 68 14 47 87 46 -11 52
25 67 109 87 81 74 90 55 21 113 110 66 38 17 40 37 9 21 138 127 133 65 123 91 112 97 75 130 126 61 141 147 115 106 51 90 110 -39 26 53 74 72 99 48 54
35 79 86 73 87 96 79 68 95 148 54 57 46 40 10 -3 8 44 126 77 -1 99 109 92 122 112 110 141 143 118 138 120 112 98 10 72 93 41 -1 43 70 54 53 80 69
67 107 64 56 76 92 64 65 89 86 46 47 41 40 36 6 -25 38 68 -15 96 71 103 150 124 98 88 79 84 101 113 130 89 65 55 112 -12 -5 11 -2 30 9 46 77 77
90 76 42 43 82 71 73 55 103 114 67 57 47 36 47 11 -18 -20 19 31 70 73 88 99 95 97 86 104 119 89 91 96 90 84 58 55 64 27 -9 16 31 43 50 40 45
48 72 45 56 76 76 66 52 81 67 75 78 67 73 31 40 -9 -16 -19 47 69 63 74 37 87 100 100 83 124 93 133 118 132 54 26 41 29 44 3 23 65 78 57 18 42
10 41 51 75 65 57 39 39 59 76 82 101 74 48 35 23 26 -27 -22 52 57 79 103 89 103 93 104 107 118 155 143 153 132 122 54 14 26 -7 23 92 151 95 16 7 43
23 34 62 72 35 39 53 68 65 69 96 79 59 53 45 16 -0 -37 -41 41 39 129 92 86 111 103 101 96 110 119 105 126 130 69 116 86 49 59 30 -1 -8 -22 7 10 36
48 40 9 52 59 30 19 38 63 94 100 129 123 84 64 54 22 -5 31 56 67 93 86 124 91 133 64 115 130 119 144 162 185 145 80 83 23 74 123 55 40 47 20 -16 43
62 55 21 60 49 67 51 68 69 86 130 116 126 127 122 81 61 11 51 48 54 73 73 117 125 123 93 57 88 139 134 136 156 153 115 98 102 75 13 22 22 -3 -35 -34 9
38 56 59 86 94 110 97 116 129 140 139 176 210 217 160 143 77 55 36 81 65 61 85 61 67 103 105 100 90 75 87 119 144 116 153 62 26 79 50 31 15 -67 -6 3 67
81 83 77 105 119 137 131 158 174 185 241 276 336 234 189 197 113 62 97 102 80 113 120 119 67 70 91 80 64 75 75 93 100 90 64 44 78 53 123 150 61 26 46 57 61
57 87 121 102 139 149 134 181 222 248 216 285 354 361 160 127 48 26 99 74 45 64 120 133 101 71 40 76 51 -20 19 129 155 178 187 86 143 131 119 112 114 127 121 97 133

GFSSW_con_3kmhel_084.txt.gz
Helicity
25 30 31 42 70 78 74 78 74 59 39 34 28 37 40 28 15 20 55 151 223 166 140 69 124 139 157 148 190 232 207 138 119 148 134 108 118 109 122 137 163 172 173 193 165
33 43 44 55 76 73 69 68 59 44 33 26 20 25 23 4 26 -98 8 137 242 261 156 48 86 134 174 171 160 221 187 96 111 160 176 73 98 94 93 114 151 191 188 140 135
34 58 61 65 65 69 63 56 38 30 22 18 15 8 16 -10 6 14 -7 123 192 258 153 128 93 126 154 177 168 151 137 130 116 155 139 63 70 104 54 143 177 205 237 160 180
31 59 74 68 61 61 58 45 30 21 16 14 8 9 -19 -9 47 25 42 155 221 256 172 122 92 141 171 158 155 137 134 126 87 138 88 42 74 89 132 112 74 99 173 173 162
33 57 55 71 60 55 51 48 34 21 12 15 5 -2 -41 -6 7 41 96 136 226 160 219 144 70 127 185 154 112 149 107 133 135 150 135 64 112 82 99 98 83 72 112 182 197
42 58 51 56 57 57 44 44 46 35 22 17 7 10 20 24 17 1 38 121 209 136 185 94 87 135 134 124 84 113 73 128 140 143 124 106 80 100 97 95 101 106 102 137 194
44 50 62 47 44 45 27 34 40 50 32 21 8 20 29 8 29 63 49 51 238 123 127 96 133 138 150 120 161 96 125 99 121 112 88 97 70 74 66 99 107 112 89 112 198
46 46 64 62 41 40 16 24 33 46 32 8 10 12 25 21 40 47 85 70 214 102 88 38 141 157 184 181 147 76 80 82 74 79 67 68 102 53 27 78 133 99 82 100 164
39 43 46 64 46 38 14 14 40 40 23 9 30 23 34 37 59 85 87 100 139 81 73 46 60 166 154 136 132 102 79 71 48 100 86 49 71 91 66 81 66 107 79 97 140
38 45 36 61 52 36 19 25 24 41 40 36 62 43 26 46 72 108 80 106 138 84 68 117 87 129 142 130 111 112 91 66 59 73 73 58 60 55 52 112 131 81 84 116 127
38 43 34 58 61 47 55 40 59 62 37 38 24 12 22 56 72 97 102 121 136 103 108 139 146 105 91 133 212 85 58 64 88 86 73 63 73 80 97 114 189 190 137 84 126
31 43 39 63 65 83 77 94 56 19 83 48 39 34 45 62 105 115 84 71 127 26 -11 77 115 108 103 109 140 124 82 61 75 66 68 95 88 86 100 116 146 184 118 114 112
35 40 36 66 81 114 111 83 4 4 34 40 44 42 36 63 92 138 110 76 25 21 34 35 67 100 100 121 106 103 54 53 82 56 51 123 117 100 90 85 107 132 140 125 122
37 39 46 66 103 120 113 55 -3 -13 72 34 54 48 43 76 48 103 117 96 104 31 104 58 46 36 111 100 76 70 108 84 57 26 63 68 108 97 50 38 46 79 117 125 143
37 42 58 78 127 105 94 34 -11 9 81 61 53 47 47 16 -4 28 101 96 23 35 126 90 39 28 56 80 78 92 82 66 93 70 78 38 62 72 61 30 45 37 39 15 177
35 56 97 89 78 85 91 41 19 51 62 52 37 38 26 6 2 33 111 137 92 84 60 62 79 61 70 98 103 81 90 88 73 67 48 40 49 47 60 23 9 34 33 66 -63
41 51 67 76 86 83 73 46 54 18 46 83 47 45 23 -3 -11 -28 -22 13 75 36 53 98 88 81 83 76 102 93 76 116 78 75 57 68 39 37 24 22 4 64 68 58 115
75 75 62 62 70 71 49 47 -16 61 54 41 51 36 44 28 -4 -29 -78 -79 -35 79 71 89 97 92 76 67 85 51 70 135 86 47 34 69 31 33 22 45 -9 34 68 74 66
88 36 51 66 79 55 46 16 22 78 70 62 64 33 48 53 3 -15 -46 -122 -93 -12 59 50 91 124 120 98 109 85 107 141 97 67 40 27 26 19 11 7 28 28 19 36 41
32 17 25 61 68 49 20 24 34 73 88 79 83 55 39 60 43 10 -17 -50 12 14 58 39 78 93 106 114 120 127 94 94 111 56 34 5 22 27 67 125 136 109 67 61 29
11 12 23 53 36 24 50 35 34 72 96 105 100 121 97 65 39 35 10 8 76 75 108 48 63 77 93 101 108 135 92 114 118 101 82 54 13 41 67 99 172 159 104 61 48
9 12 43 33 13 13 56 48 39 62 102 86 97 116 129 146 97 40 19 13 56 102 130 111 87 54 50 84 94 69 52 58 83 37 69 87 67 50 34 42 32 92 46 27 30
6 22 7 19 51 46 47 60 55 80 118 114 150 160 149 155 149 79 22 46 51 62 57 121 79 110 83 102 110 100 74 74 51 124 84 69 42 61 60 95 135 136 157 125 67
6 22 39 47 51 57 62 108 112 121 131 118 192 229 237 149 112 90 68 43 34 53 96 63 131 116 81 102 88 118 67 65 113 120 54 60 49 76 -18 19 13 43 24 -19 8
6 26 36 70 87 86 79 114 143 155 185 195 303 335 376 284 99 26 50 5 66 69 108 110 77 107 117 126 117 78 30 47 96 80 70 39 15 -7 -18 -2 2 -11 -1 2 25
52 51 66 98 109 108 111 141 151 168 207 243 325 396 287 284 94 64 42 29 48 82 74 85 106 67 81 105 105 88 76 69 40 20 8 2 44 -33 47 91 94 64 53 38 51
40 50 64 112 130 115 127 147 163 204 188 229 357 426 191 106 73 19 17 -84 75 126 90 78 77 55 22 39 63 61 42 38 64 63 48 51 68 20 29 39 60 66 103 110 60

GFSSW_con_3kmhel_087.txt.gz
Helicity
35 54 50 67 66 67 69 68 67 49 38 25 14 2 16 7 -4 -16 47 69 211 176 88 189 118 135 102 251 197 213 236 202 82 66 46 93 141 175 159 121 164 175 220 150 150
45 69 67 70 66 61 56 62 60 41 31 13 8 -0 -0 -1 10 15 12 86 246 212 182 56 110 116 111 144 242 205 194 123 103 89 100 49 97 105 122 95 119 122 101 108 109
53 71 73 70 67 57 49 45 54 40 27 10 10 1 -21 28 6 50 23 69 291 226 334 119 132 118 111 77 203 141 120 131 113 358 84 90 145 113 118 160 163 166 156 93 133
46 67 66 66 65 55 40 41 50 48 19 8 4 3 11 34 22 34 56 87 141 225 229 162 147 140 160 41 30 165 169 154 174 100 354 47 107 102 98 106 81 81 97 79 145
38 60 71 55 58 58 38 36 53 52 27 8 2 -0 30 -9 -17 7 93 88 184 173 190 156 92 148 137 103 66 49 176 152 211 150 70 174 109 106 72 73 67 68 64 71 121
34 51 60 62 36 42 25 34 49 53 26 9 4 3 28 24 -17 -41 -12 96 221 161 137 165 155 104 191 90 71 64 25 119 147 87 94 63 63 157 73 50 54 61 65 53 97
44 44 54 65 44 29 19 13 46 49 18 9 8 17 28 -16 -2 -7 41 101 219 143 119 155 219 189 156 175 96 73 69 65 29 40 109 132 70 75 89 31 56 36 48 58 42
38 46 44 49 54 29 12 3 47 48 13 17 2 15 41 5 34 13 28 110 120 117 112 176 132 268 223 101 125 88 64 95 61 145 106 116 89 66 64 44 82 61 51 50 47
35 39 41 38 43 30 6 -11 42 51 9 27 31 2 31 21 49 55 55 83 67 71 116 97 104 160 188 113 127 138 92 64 37 54 81 72 88 177 45 99 82 102 84 61 51
37 37 41 34 36 38 4 1 16 39 85 53 50 62 -5 33 71 99 24 106 40 27 55 140 191 121 132 120 120 83 142 52 59 20 84 49 65 96 88 26 67 95 98 85 74
37 33 43 32 34 41 28 38 74 88 24 26 17 27 18 64 88 40 63 49 26 12 50 142 122 90 101 114 220 54 86 59 60 61 20 66 73 44 93 26 98 106 110 119 106
36 35 39 36 36 47 47 43 -13 -17 54 37 37 43 36 70 60 62 135 102 85 41 -8 75 55 57 87 91 180 126 84 103 97 75 46 74 40 39 57 62 75 96 126 129 85
36 34 37 42 37 71 57 38 -39 -20 1 52 46 20 13 -8 23 38 100 90 47 73 64 75 117 150 121 125 156 151 100 64 83 26 44 108 78 54 46 52 60 79 97 121 171
31 32 49 46 43 76 71 27 -27 -20 53 35 54 37 43 34 -7 54 96 105 74 71 1 111 75 80 87 91 109 72 133 115 59 65 120 -2 99 -9 19 34 42 60 92 92 145
25 34 55 47 74 64 63 11 -13 21 8 38 36 30 19 -59 -23 -39 61 66 35 -8 42 23 31 -16 50 101 92 141 76 110 85 62 111 28 79 104 59 58 42 42 42 63 122
10 40 66 60 56 71 48 15 26 29 37 37 14 8 -0 -17 -21 -31 -9 65 82 63 120 51 77 42 53 97 134 77 69 86 72 97 67 60 48 74 69 21 35 27 28 39 68
13 46 49 32 52 59 45 48 52 12 40 63 46 32 11 19 11 -13 -27 -12 -28 8 69 102 59 92 107 41 119 99 90 125 108 120 64 90 86 56 61 71 75 78 66 50 74
48 43 37 29 48 45 37 50 26 33 62 39 54 36 36 69 22 19 -5 1 10 102 55 85 92 59 49 84 89 86 81 149 91 71 58 76 42 43 26 42 31 51 39 116 138
68 9 27 46 45 25 17 31 42 45 65 53 81 61 93 82 44 35 7 -5 13 71 71 78 88 109 102 92 112 54 80 98 170 176 232 73 3 29 -1 19 54 68 57 76 62
29 4 22 36 29 17 3 38 34 48 58 59 60 86 81 171 104 66 38 8 7 18 48 80 83 73 109 106 59 116 105 123 155 140 89 37 33 58 22 51 74 68 82 52 56
19 7 24 29 8 -1 50 51 42 57 58 66 60 94 98 109 124 110 60 9 -33 -11 27 78 126 61 112 84 68 88 125 134 122 91 109 91 -17 93 95 84 146 137 136 109 71
15 9 26 11 14 12 49 53 50 66 93 78 70 121 142 136 91 125 59 25 -6 50 123 87 60 115 35 71 59 56 31 63 95 91 75 128 130 14 54 82 125 118 119 129 91
-5 15 11 1 40 53 48 58 70 100 112 149 165 196 172 178 186 89 60 18 -15 52 97 216 128 114 71 77 75 128 92 58 32 59 51 48 35 107 59 53 15 63 86 99 97
9 22 16 17 24 39 69 83 85 113 113 132 175 210 256 202 94 160 43 12 24 33 50 197 207 171 122 130 86 116 75 78 105 134 80 71 42 57 54 41 28 72 86 71 37
23 25 20 36 46 63 75 103 97 116 148 173 235 284 267 263 185 56 8 -55 -12 13 32 78 153 139 95 134 88 60 34 43 92 90 94 36 1 10 2 5 29 35 64 -21 -9
64 46 41 53 59 76 95 107 101 133 157 169 271 250 249 219 153 44 35 -84 -55 -16 75 69 69 69 64 89 130 82 90 54 25 49 16 -28 3 -20 48 77 61 63 37 22 -19
48 71 50 67 63 73 91 109 125 143 152 195 301 276 126 71 77 40 40 -32 -89 -121 -49 18 122 112 89 8 38 105 41 64 52 35 33 33 21 20 19 34 60 89 98 61 33

GFSSW_con_3kmhel_090.txt.gz
Helicity
38 54 58 81 70 78 68 64 68 58 23 11 16 8 -9 23 18 6 70 53 62 143 65 143 251 255 158 215 199 224 249 247 269 149 135 133 206 290 219 212 239 211 196 118 79
32 44 56 68 62 71 68 62 60 55 24 3 10 14 -6 29 36 26 61 66 71 142 139 132 268 206 185 119 311 208 262 227 171 109 80 143 101 152 198 149 190 72 135 104 98
28 34 55 51 66 58 59 60 62 52 21 -0 -0 3 6 26 10 18 46 56 78 156 144 175 259 166 140 160 210 212 232 234 109 80 358 216 40 82 109 129 155 208 100 109 84
30 34 48 52 47 59 55 48 59 53 21 -2 -5 -6 18 5 -47 -8 5 39 85 169 203 62 259 270 126 100 245 186 140 229 155 134 196 276 140 135 135 170 142 117 67 94 90
38 40 39 54 49 35 40 34 52 46 14 -11 -13 -13 39 18 6 -31 1 39 92 179 188 90 118 209 165 138 124 136 193 157 234 94 86 207 283 164 238 162 94 94 56 45 95
48 38 39 48 49 29 25 22 36 35 8 -6 -18 -27 56 -10 -1 -14 53 36 167 189 158 113 97 190 264 88 66 70 194 278 115 149 112 197 41 155 144 112 113 96 90 62 59
44 43 31 36 42 22 11 14 28 30 2 -1 -26 18 13 1 27 33 48 77 171 117 182 114 135 200 339 203 36 -74 -27 97 108 198 141 187 168 86 105 41 62 71 77 53 61
53 39 31 37 30 14 2 -1 27 43 4 -3 -6 34 50 23 39 31 136 176 123 89 100 133 199 201 377 293 185 49 26 126 128 77 89 98 67 66 102 77 83 65 36 31 38
49 36 30 35 23 9 8 -15 -5 49 22 26 50 35 31 57 27 13 160 103 34 71 106 82 131 210 239 230 171 89 36 8 59 175 214 116 126 101 49 89 39 65 85 58 20
47 39 25 37 21 4 10 10 32 29 76 71 59 22 -13 -8 76 61 111 108 39 61 93 115 146 169 171 153 93 90 91 -5 4 25 96 99 108 185 98 158 174 105 141 133 88
44 34 20 28 20 8 11 47 67 86 35 26 -11 -9 -46 20 88 47 168 34 27 48 57 75 89 98 105 92 156 103 85 105 12 28 -2 -8 106 62 115 99 112 98 81 111 119
38 30 26 22 17 16 31 63 10 17 37 63 28 15 10 48 -21 66 145 108 47 76 29 99 101 69 63 113 145 151 130 126 129 58 25 35 58 60 121 109 51 45 120 119 120
37 25 24 24 21 38 32 58 -0 1 22 66 8 -4 5 9 -22 -32 74 131 51 51 44 66 76 140 145 121 110 138 75 114 89 50 73 88 91 78 82 73 102 85 90 143 175
25 22 25 30 39 49 42 38 12 11 44 14 24 -25 -8 7 -4 -3 66 79 81 1 -8 40 75 113 90 101 143 135 146 179 194 79 100 50 105 43 42 73 73 83 103 98 113
16 19 32 40 21 42 41 19 12 33 40 18 19 -6 -30 -24 -0 -6 -17 14 -55 22 64 65 104 65 93 83 133 223 100 93 159 113 129 104 125 119 156 89 57 87 89 86 89
5 17 34 37 31 32 21 12 38 47 38 30 5 3 14 -5 8 -7 8 6 45 -27 19 71 71 85 89 137 122 118 168 137 94 79 105 87 70 81 135 121 69 68 81 77 81
8 18 28 -6 11 15 20 57 58 45 41 40 29 19 25 58 36 15 -19 -22 -41 -44 -67 4 40 59 69 98 108 137 131 163 129 121 66 59 77 85 92 111 95 102 151 101 97
28 22 7 -8 10 9 23 33 60 49 75 54 54 42 50 79 55 62 30 -13 -11 -58 -91 37 105 59 43 75 99 135 132 171 150 106 27 74 76 73 63 54 124 90 53 86 190
50 -2 4 -2 -8 -26 -6 50 58 65 64 51 63 35 48 109 84 79 62 38 6 -2 -31 22 137 92 82 87 143 93 103 116 82 108 132 98 71 50 -0 49 51 110 103 71 71
59 15 41 14 -17 -14 13 48 50 42 48 52 76 121 70 201 192 124 69 19 62 -13 76 111 90 89 129 194 130 142 179 155 129 132 122 135 66 53 37 63 43 98 110 90 90
78 58 39 19 -3 12 68 52 41 50 54 81 80 131 124 146 252 198 111 17 58 54 73 81 79 102 169 173 142 167 149 148 147 155 157 124 103 71 132 236 215 129 101 107 103
73 60 37 18 31 38 48 48 38 61 79 79 72 126 166 135 135 134 164 46 -16 -34 105 90 125 128 98 61 89 98 86 141 179 128 125 125 133 60 111 138 99 54 70 89 104
60 65 31 18 34 39 50 40 47 69 100 119 138 182 209 236 298 120 94 36 17 -5 -26 95 25 147 134 157 111 118 101 90 116 167 123 125 91 62 40 52 56 41 30 13 8
74 64 52 15 10 21 50 57 65 73 71 119 142 180 239 219 132 216 100 53 -8 -44 -26 57 161 132 133 102 106 113 90 97 153 161 140 100 109 78 52 19 7 15 21 69 10
67 55 41 32 24 35 62 83 89 116 102 134 152 180 278 368 203 81 37 59 -73 -80 -84 -1 -77 52 66 73 132 53 95 101 114 135 154 95 38 21 12 28 -11 -1 35 95 -44
96 59 69 62 64 39 76 74 85 126 155 132 171 233 243 251 215 82 99 93 66 -60 -164 81 -49 17 63 125 176 128 107 46 62 103 92 57 -2 30 20 -3 -9 22 47 92 64
118 80 52 53 48 62 61 67 108 147 119 135 209 198 166 140 85 60 81 69 105 -27 -175 -140 81 27 64 68 75 57 49 86 93 74 81 91 49 69 44 50 58 71 68 57 69

GFSSW_con_3kmhel_093.txt.gz
Helicity
31 43 66 60 72 67 60 61 36 42 44 18 7 2 0 -7 56 12 19 54 63 66 53 177 134 263 130 116 218 151 247 255 257 223 173 191 220 288 289 243 245 236 163 100 125
31 44 56 55 65 67 53 50 37 38 32 10 -5 -7 -3 33 -7 32 55 79 57 27 95 173 192 278 184 142 235 148 231 207 182 315 127 184 190 186 273 252 226 196 203 169 117
29 38 53 54 56 49 55 49 41 42 24 6 -8 -10 -10 15 35 3 64 66 42 69 17 135 240 283 141 127 251 131 176 194 308 240 133 239 140 146 147 205 177 140 133 120 108
33 34 51 40 61 38 34 33 40 40 20 2 -15 -17 2 41 4 24 58 43 50 66 27 22 257 302 174 156 136 218 184 211 219 359 214 244 233 146 132 148 141 78 90 91 76
13 41 42 42 52 39 24 22 28 30 18 0 -16 -18 37 30 48 17 75 56 58 55 -13 162 292 257 175 114 73 201 192 187 270 329 241 243 364 283 158 137 116 91 130 74 87
24 32 45 31 36 32 20 16 19 25 18 10 -11 0 41 14 54 97 102 114 110 60 -39 -16 262 276 308 85 49 96 168 155 209 247 364 179 280 396 180 147 131 97 77 119 128
18 36 36 20 27 25 9 3 8 23 17 18 0 21 26 62 83 120 72 87 89 137 55 11 93 363 278 171 77 30 50 178 252 89 355 268 235 492 147 118 108 100 93 83 102
15 30 27 26 23 14 -1 -26 -28 21 15 13 10 22 46 107 78 61 158 71 88 95 73 57 104 150 303 218 162 117 102 79 130 111 103 169 248 95 151 137 120 77 85 100 95
13 24 25 16 14 6 -7 -26 -44 32 24 33 16 66 5 105 63 159 138 37 72 98 90 70 104 141 273 228 194 171 111 106 91 92 133 81 65 152 4 84 95 85 58 58 75
15 27 26 10 13 3 -11 -14 -5 16 42 56 80 26 -5 35 112 119 109 60 87 111 112 131 109 104 164 185 149 85 166 145 45 39 119 131 54 46 118 94 84 52 63 75 82
18 21 19 12 10 13 -5 -4 13 18 9 5 3 3 12 53 45 91 133 54 63 67 91 99 102 79 98 117 69 37 -26 43 -2 8 94 55 87 147 137 153 128 109 103 81 63
15 17 9 5 14 15 23 47 18 23 74 25 25 21 34 43 1 12 95 45 107 53 46 83 94 115 136 110 117 156 27 27 147 67 77 62 50 186 172 193 119 135 129 104 87
18 9 -4 6 12 25 45 40 -8 3 49 45 12 7 17 8 -6 -6 -1 37 -3 59 78 84 101 141 169 174 140 112 67 68 77 94 69 18 39 59 69 26 100 132 109 94 88
15 5 -10 16 32 32 46 13 -2 -1 75 35 23 7 11 18 -7 -5 12 -22 -41 -40 69 127 104 103 140 169 140 144 122 97 93 152 84 28 1 41 54 61 92 130 91 88 83
15 1 -10 25 31 23 31 -3 -5 2 83 38 33 6 -16 -2 11 -1 -10 -21 -84 -75 13 74 111 102 119 114 123 174 93 101 141 115 133 119 50 70 87 94 69 70 113 96 88
16 1 -5 9 13 13 1 -13 -2 51 68 55 51 47 49 17 19 11 3 -13 -14 -66 -3 36 86 78 90 109 131 79 170 139 214 175 151 88 61 41 108 85 89 87 64 85 125
17 7 -3 -3 6 11 6 7 50 86 33 44 54 70 84 83 60 25 12 7 -13 -44 -91 -25 96 112 85 130 169 144 158 197 197 143 107 129 141 85 71 120 180 78 60 69 106
35 25 -14 -1 -3 -1 -14 12 71 58 62 24 30 33 56 84 64 70 5 7 14 -20 -55 -50 -56 94 64 68 72 102 181 157 152 132 79 103 93 71 6 56 141 96 116 119 135
68 34 19 15 6 -14 28 46 63 55 50 45 50 79 71 108 116 91 90 87 9 42 8 -42 -71 94 73 97 111 100 92 151 111 93 94 99 110 96 30 84 100 98 122 129 129
97 55 43 25 15 32 53 40 56 48 52 48 97 131 189 236 259 215 92 47 28 94 52 -32 -112 91 133 162 178 142 166 144 187 108 110 92 108 95 103 38 123 153 168 179 165
81 95 52 52 53 61 62 41 46 37 56 87 102 133 173 212 310 256 190 40 50 73 -25 52 -8 72 133 151 197 199 173 172 151 121 102 93 84 78 44 137 152 122 100 106 128
78 90 63 71 71 49 47 48 37 79 63 66 80 122 189 194 190 209 206 133 72 19 -34 8 5 -44 114 140 158 192 173 180 164 176 148 99 95 76 96 115 119 89 73 74 67
111 127 88 68 41 23 32 31 46 57 77 85 100 123 183 245 284 157 117 49 44 -20 -59 -84 21 67 66 90 76 146 169 165 188 176 139 153 114 78 96 88 44 42 36 33 29
96 102 104 35 33 17 23 31 38 41 51 84 90 128 166 187 142 224 172 123 37 -31 -23 -33 -86 14 -48 93 108 131 89 92 146 165 173 131 148 136 76 43 43 40 40 11 -8
101 85 58 33 -18 8 32 30 58 63 71 93 90 123 206 266 217 162 133 77 86 0 -23 -77 -198 -58 42 28 63 78 87 87 123 109 105 54 50 27 55 47 9 25 39 67 35
118 113 96 71 57 53 40 34 63 82 124 95 138 165 221 253 252 163 130 120 108 56 17 -31 -169 -40 21 28 29 52 52 14 13 67 67 76 20 70 53 -9 -29 -61 -37 5 10
123 127 137 50 52 57 34 51 67 128 122 145 153 152 144 135 85 82 116 104 143 146 105 -18 -81 -69 -163 20 119 81 88 86 133 45 56 48 26 71 22 -2 -1 5 3 16 61

GFSSW_con_3kmhel_096.txt.gz
Helicity
-2 5 17 43 36 69 61 59 49 56 37 31 20 3 0 -4 27 -26 -20 2 12 -25 168 136 73 97 -37 228 384 227 371 299 272 290 269 262 248 100 113 187 243 210 186 153 169
4 -2 9 22 39 43 60 55 57 42 28 19 12 3 -3 -5 29 -5 11 31 34 -11 112 189 84 102 47 66 249 394 297 309 311 334 310 235 295 134 180 203 261 231 254 213 218
1 9 4 13 39 44 37 46 41 33 22 9 9 5 -3 9 26 25 49 42 41 -12 26 201 210 150 68 -15 242 307 330 350 361 410 303 202 222 229 183 209 153 108 161 181 203
12 8 11 6 18 39 36 34 33 20 13 5 18 4 -18 43 37 57 83 30 48 38 -1 194 220 201 34 -192 247 189 252 282 332 401 358 319 231 247 200 170 139 133 136 222 176
8 24 17 4 3 23 28 37 27 5 2 5 9 -11 12 29 64 138 130 51 25 52 9 206 251 196 109 -13 158 248 224 334 386 384 527 301 300 263 205 108 103 146 155 110 147
16 27 31 7 -8 14 13 30 6 -10 -5 0 5 -4 45 -3 136 113 126 74 16 -2 -28 139 255 226 184 133 32 153 159 436 369 322 393 372 304 266 250 176 127 107 119 103 126
23 33 29 5 2 -2 1 6 -6 -14 -17 -5 7 14 21 59 118 106 87 33 17 -55 -17 60 158 227 216 117 122 -2 123 306 280 331 260 451 329 332 323 213 121 113 108 118 101
25 40 28 8 -6 -7 -7 -17 -17 -17 -23 5 20 53 54 106 93 95 107 53 59 -10 -67 57 116 234 217 111 197 -1 25 10 181 307 416 392 354 271 329 350 191 151 134 109 101
31 39 38 16 -13 -18 -12 -22 -3 3 -15 14 19 31 12 39 67 96 99 117 86 61 24 24 143 200 151 161 202 200 45 95 44 61 135 339 231 336 313 410 316 137 127 126 122
36 45 38 13 -14 -25 -22 -20 -1 21 -2 40 42 17 5 47 53 102 93 118 95 74 28 16 40 119 138 157 127 103 44 86 109 31 -49 151 256 297 229 322 338 162 84 108 114
33 42 33 22 -15 -22 -8 -7 6 14 -2 39 22 52 50 62 33 63 64 94 73 73 96 74 32 54 124 144 166 101 23 43 11 -28 -20 15 19 47 274 163 218 221 151 106 93
42 45 29 37 -3 -15 18 20 11 13 74 4 27 30 41 28 -4 33 53 42 49 63 119 111 62 77 87 142 182 151 72 72 86 123 85 27 52 35 14 27 43 105 111 93 94
53 42 29 57 20 7 24 25 -13 -16 42 40 27 33 27 11 1 12 -2 25 -4 2 56 46 114 112 86 106 159 141 48 39 28 44 139 140 68 36 60 3 166 123 96 98 105
53 46 35 85 45 24 14 15 -13 -15 59 45 32 32 19 30 1 16 10 -8 -26 -49 5 11 116 116 121 125 104 116 95 52 70 42 104 33 144 104 11 17 83 85 141 132 120
61 46 48 82 42 26 7 16 -21 -11 69 42 50 24 9 23 17 7 5 -33 -62 -62 -7 22 123 106 109 154 158 134 176 126 130 174 126 71 99 81 66 16 28 54 75 70 76
61 47 76 80 48 9 6 18 -10 40 60 41 56 52 55 39 16 9 6 -11 -28 -55 -41 -24 105 87 106 131 116 118 193 235 215 187 106 103 67 27 54 54 68 81 72 57 60
56 51 81 62 51 29 39 38 43 59 26 55 56 52 51 74 65 47 21 7 5 -15 -79 -78 -53 72 75 112 156 139 191 195 144 145 150 168 141 64 66 75 77 112 74 39 69
64 65 72 69 61 48 73 53 34 42 37 14 28 19 55 83 64 53 34 20 1 11 -20 -55 -56 53 83 110 122 128 77 155 132 97 132 118 123 100 70 30 62 106 85 60 47
105 124 92 68 69 59 82 39 24 32 44 56 48 78 69 85 117 127 55 70 7 49 56 -16 -30 117 96 112 121 124 115 100 105 110 107 102 97 105 53 87 94 94 145 150 137
150 117 77 65 83 87 84 25 41 47 51 47 69 86 111 138 188 197 130 63 46 57 79 -3 -59 -7 106 93 105 83 127 140 150 93 100 93 94 71 62 72 124 156 165 157 148
151 138 98 91 123 119 46 32 47 53 55 60 58 94 114 170 223 211 170 103 86 49 104 59 0 -65 102 118 141 192 193 187 122 117 84 68 66 63 18 54 88 90 104 102 140
158 152 75 109 139 70 43 43 58 73 53 52 58 76 102 139 199 193 199 189 80 108 75 21 -26 -26 41 119 134 99 128 164 154 162 188 121 91 76 53 94 127 122 88 83 68
230 224 132 146 80 37 54 51 49 70 41 48 56 66 101 151 155 153 165 137 112 108 42 -7 -34 -12 14 66 96 157 189 199 247 169 107 129 109 59 91 82 72 70 55 37 40
156 182 161 90 67 54 43 34 22 19 56 62 58 67 111 155 165 169 187 151 93 34 -11 -19 -128 -123 -71 69 94 63 156 135 233 191 141 105 98 105 95 71 76 76 74 69 68
152 110 121 105 7 -25 41 28 37 46 44 65 59 66 115 124 127 172 167 130 94 38 48 -7 -56 -172 -177 -27 -5 27 35 102 184 186 128 87 76 86 102 120 105 85 69 50 42
137 128 182 44 75 10 39 12 44 52 72 59 87 107 153 178 183 137 114 119 140 102 163 113 120 -101 -203 -48 21 15 -3 16 33 89 48 82 14 41 64 59 95 74 33 28 28
101 150 170 104 92 73 43 38 31 86 65 95 99 118 133 127 104 85 90 92 127 151 145 133 63 -21 -136 -129 -49 43 51 53 69 80 54 55 27 91 47 39 45 25 2 -35 -6

GFSSW_con_3kmhel_099.txt.gz
Helicity
-10 6 19 23 27 24 12 29 34 70 51 33 7 6 -4 -1 8 -12 -47 -10 -11 -93 33 251 76 68 71 52 113 112 213 214 333 243 288 216 285 361 216 240 245 179 118 201 226
-9 10 21 33 20 32 14 1 31 48 29 14 -2 1 -2 -1 50 56 15 23 -21 -38 88 192 122 36 96 80 132 118 29 378 381 384 281 197 231 480 218 261 208 181 177 264 162
-2 14 22 29 33 29 12 4 16 25 10 -2 -7 -2 -9 38 74 38 60 31 -14 21 132 243 80 87 3 -55 -6 262 164 408 392 429 352 281 263 411 209 207 178 131 140 159 190
-16 7 24 35 31 23 4 -0 8 2 -6 -9 -2 10 2 45 51 60 70 37 19 -46 52 186 137 113 -83 84 77 501 169 272 361 446 410 380 357 301 290 154 82 103 102 129 88
-26 -2 22 42 36 23 -3 -2 -3 -20 -22 -14 -2 -4 30 39 53 128 115 45 39 -37 80 198 162 157 -73 -119 -91 429 298 389 394 418 523 300 384 317 398 267 193 166 140 152 116
-21 -16 22 36 33 29 -9 -10 -10 -28 -28 -13 -0 -2 33 12 116 135 97 43 37 -11 -34 125 114 118 -1 -183 -187 195 324 515 376 414 409 393 401 353 459 372 231 176 174 195 163
-6 -21 11 25 15 27 -6 -21 -23 -28 -29 -13 5 43 57 92 111 107 71 48 59 -4 45 48 36 94 40 -208 -127 45 237 508 518 518 447 493 372 370 370 328 298 209 169 151 147
10 1 17 17 3 30 -9 -29 -23 -19 -21 -6 8 38 58 76 102 76 66 76 92 38 -69 49 85 89 57 -21 -15 27 -23 514 486 473 424 401 350 305 276 241 296 295 278 193 159
46 12 22 18 -2 19 -2 -21 -10 -13 -16 3 26 50 18 24 29 88 68 93 77 40 64 35 113 95 39 -1 -4 43 -74 165 331 231 335 330 360 392 316 296 341 338 294 184 153
54 27 23 22 4 18 20 2 -25 -15 -15 27 34 19 -6 12 41 54 84 74 54 37 22 4 87 66 35 54 -15 -32 -12 34 76 182 115 412 408 415 348 313 332 370 355 215 143
63 37 20 22 7 31 67 41 27 12 -1 28 43 31 17 23 31 42 24 40 53 13 12 39 32 86 71 81 70 13 19 -45 9 -87 53 62 146 548 472 340 325 332 386 306 156
74 61 29 29 19 44 85 64 35 18 30 17 21 8 17 26 -33 26 21 -12 -31 -35 -17 44 87 55 96 101 102 102 32 85 65 -140 -110 -151 87 56 158 206 165 188 245 302 264
47 79 40 27 37 53 76 68 35 12 21 31 25 20 21 10 7 1 7 7 -17 -53 -50 -55 38 59 63 81 133 128 74 93 55 -21 13 -194 -70 23 50 73 101 115 108 174 229
102 49 25 32 56 58 66 90 51 22 27 32 30 24 10 20 6 21 10 -12 -23 -35 -33 -55 83 81 66 72 65 100 104 78 83 71 -26 15 -43 13 17 18 56 151 34 71 159
121 63 28 11 55 48 58 100 64 15 24 42 46 21 16 29 16 12 8 3 -26 -42 -51 -51 -42 118 89 87 108 68 98 73 97 140 111 83 66 66 79 53 13 37 50 88 104
146 88 35 52 72 59 70 98 65 45 11 33 30 36 52 53 32 20 15 10 1 2 -11 -24 31 78 110 127 124 101 128 166 163 148 68 92 75 131 83 76 110 69 47 73 94
109 99 56 72 40 65 82 109 72 33 38 19 27 25 31 55 52 52 50 48 59 64 24 6 -17 54 82 126 130 134 177 117 112 137 91 119 140 106 102 91 49 18 33 60 45
99 117 37 80 70 76 126 142 28 18 27 28 32 38 55 68 60 72 54 76 53 86 84 84 53 29 85 91 106 144 116 103 89 111 123 140 129 190 98 59 35 93 70 61 50
125 188 70 86 57 78 143 89 23 3 52 60 56 37 38 49 79 113 76 88 63 77 140 116 45 7 113 136 130 133 111 69 25 192 100 76 98 147 76 83 76 48 76 87 86
176 169 82 82 71 120 127 48 38 20 50 70 46 42 52 67 115 131 112 90 102 88 61 50 31 2 18 105 128 118 120 132 108 35 77 51 35 26 12 65 105 91 91 90 122
182 150 132 79 105 142 69 42 41 21 35 65 35 55 49 81 128 147 161 136 112 80 97 91 72 4 -7 31 106 159 147 156 92 119 61 37 28 20 31 42 42 71 89 119 129
147 220 64 102 141 90 32 39 38 45 32 64 70 59 59 86 113 144 189 161 115 120 158 87 58 45 -28 -7 90 136 100 124 130 93 124 65 47 51 42 32 53 88 104 104 106
161 151 114 121 91 62 60 54 32 41 20 50 43 39 47 82 104 138 174 137 143 145 144 57 117 52 -72 -49 59 93 115 86 142 169 103 93 47 117 68 80 82 91 78 75 70
220 200 142 98 68 89 63 53 31 14 28 46 45 51 45 62 81 123 173 138 118 120 72 48 99 60 -114 -124 -110 114 85 67 98 111 103 92 131 132 104 97 96 122 113 87 80
249 103 112 88 -11 33 56 37 45 21 12 26 46 37 61 68 94 121 133 153 137 80 100 164 181 27 -108 -128 -72 17 49 87 100 166 134 54 86 79 74 96 119 100 114 97 68
217 94 127 15 34 33 65 29 14 33 30 14 33 45 73 101 108 109 133 106 153 136 157 161 180 44 -102 -130 -117 -13 -22 -34 15 65 62 154 101 110 157 151 167 98 94 97 57
198 127 116 40 117 81 56 35 -3 66 35 16 57 59 46 61 81 80 89 100 119 140 140 140 98 92 98 -63 -126 -95 -23 -10 9 17 45 88 42 108 145 139 148 143 79 29 -2

GFSSW_con_3kmhel_102.txt.gz
Helicity
-11 -1 -20 -7 -9 14 36 34 37 38 9 2 -1 -2 -2 -1 8 60 37 56 15 54 57 17 93 59 72 73 32 171 -232 166 20 401 326 330 367 369 242 260 268 -10 -29 54 119
32 0 -2 -1 -3 -13 34 36 45 9 -15 -14 -6 2 6 -1 60 54 36 28 4 55 -34 54 59 42 107 56 68 112 -29 -3 174 176 284 180 283 448 304 221 232 100 61 126 86
56 22 13 -3 12 -17 6 27 41 -1 -29 -34 -21 1 -5 43 44 37 31 -12 -11 47 69 131 81 93 88 76 62 92 39 29 15 157 112 109 218 367 269 219 185 119 92 90 171
50 40 19 16 11 1 -23 14 29 -3 -40 -44 -34 -19 -32 65 7 54 40 -31 7 43 42 78 69 85 43 -37 -14 -41 47 225 140 176 233 126 198 316 376 291 147 211 165 221 307
56 43 37 26 14 -3 -18 0 19 -8 -36 -41 -27 -28 25 52 26 76 35 4 7 18 80 100 58 60 -12 -70 31 47 519 367 222 408 388 179 267 277 332 318 172 197 199 124 194
44 48 43 39 24 -10 -14 -9 11 -7 -22 -35 -13 -12 58 47 73 59 44 6 4 63 139 101 68 35 -52 -55 -91 32 182 493 207 339 561 238 373 308 339 291 155 160 144 156 121
61 43 51 44 21 -9 -10 -13 6 -12 -13 -21 -8 39 45 73 42 35 26 -36 -52 -24 19 47 51 16 -59 -25 22 28 105 473 379 501 447 566 428 396 441 344 299 199 125 129 125
56 44 33 40 20 -8 -13 -26 9 -7 -2 1 8 46 20 56 27 24 41 -23 -14 24 63 61 57 14 -40 -112 -104 -120 -210 189 529 640 339 352 480 470 455 349 405 285 224 170 175
69 52 29 66 29 0 -24 -20 -1 -4 -5 6 30 30 -12 -13 8 29 17 16 7 40 64 102 49 12 -45 -89 -100 -238 -158 130 376 465 425 364 433 505 493 462 422 405 297 223 216
98 43 32 96 30 10 -21 3 -2 -4 34 44 35 14 18 8 27 29 16 17 19 14 -41 -11 39 20 40 13 -149 -131 -119 2 11 330 392 455 468 506 446 475 468 442 417 340 247
41 50 89 78 32 18 21 45 25 29 27 33 33 32 7 21 43 28 14 9 -24 -30 -14 1 33 44 62 71 16 -71 -105 -15 -76 73 261 351 323 423 346 372 432 394 336 332 285
223 120 90 15 72 33 36 42 23 39 8 10 16 26 15 -1 7 2 -11 -26 -32 -9 -5 37 46 17 52 52 31 -14 -84 -37 -58 -43 -15 129 355 340 261 224 293 344 322 301 353
351 129 78 82 58 53 19 34 40 43 10 -7 12 14 16 9 11 11 -16 -17 -47 -73 -77 -27 4 27 1 10 39 61 3 -32 10 -34 2 -72 111 174 161 92 311 305 246 243 248
278 105 95 86 48 49 31 39 38 24 13 -14 18 1 10 14 21 14 7 -12 -43 -75 -138 -109 43 39 26 18 13 16 62 48 70 -29 -2 -43 -61 38 202 54 141 152 159 147 150
107 95 55 109 61 47 32 39 30 27 40 25 46 26 8 41 30 12 12 3 -5 -45 -138 -132 -109 4 35 45 53 36 54 49 81 102 116 75 -21 -18 -10 2 -31 88 119 78 127
114 27 79 109 55 54 23 23 42 56 29 4 19 0 10 24 39 26 28 20 13 -2 -25 -74 -46 19 88 89 93 36 88 121 128 96 14 64 53 26 2 -25 -25 -17 53 9 14
105 98 92 129 56 54 35 53 66 42 33 -6 -24 7 11 17 33 54 64 58 60 59 36 -32 -28 -11 84 122 136 129 109 120 54 83 22 104 43 46 80 110 51 40 49 74 63
-12 88 51 104 42 78 63 101 78 26 10 2 17 60 31 43 42 85 94 99 73 96 118 126 80 28 37 102 107 115 83 87 39 56 63 88 18 25 56 93 105 85 60 55 117
45 120 132 86 47 74 93 75 60 11 10 32 68 46 7 22 45 78 87 107 101 113 205 198 107 31 -2 51 115 119 127 102 77 68 92 62 68 66 45 113 150 141 104 86 51
98 46 52 87 86 77 106 53 57 13 22 18 37 35 29 24 55 73 82 109 121 109 89 126 136 30 -7 -1 110 134 98 145 141 106 114 81 85 39 66 85 90 113 121 97 86
113 -9 0 146 104 104 65 17 19 16 20 7 27 52 37 29 65 79 100 134 112 131 106 161 187 53 -5 7 -7 134 148 138 113 109 19 28 36 10 48 48 54 46 80 121 105
98 25 37 220 142 120 30 51 36 28 40 21 30 37 22 32 57 78 118 125 107 118 193 137 225 150 44 -52 -40 42 52 126 149 105 105 61 80 83 35 15 32 68 109 139 122
58 50 88 238 93 54 36 43 26 27 15 12 9 -7 -33 28 40 91 131 131 146 177 180 157 240 287 48 -10 -55 -61 43 59 90 163 93 85 68 39 49 70 110 83 89 124 119
84 107 108 110 108 49 53 52 51 32 15 26 7 22 13 18 47 102 121 110 110 141 99 130 234 304 213 -54 -113 -105 48 74 72 75 74 91 107 115 87 56 76 90 129 146 147
91 122 156 87 35 57 70 42 52 15 23 21 11 -13 18 31 56 81 109 115 108 104 118 209 299 201 60 -65 -154 -100 -17 114 82 84 41 -13 28 64 50 82 72 57 86 119 139
76 114 114 72 61 9 15 50 30 32 21 -2 -10 38 38 46 66 77 103 85 107 112 160 171 246 130 145 10 -80 -68 -47 2 23 47 37 65 66 40 79 90 143 90 144 149 176
121 192 35 42 84 30 19 36 24 29 29 3 -8 49 45 54 86 81 84 88 95 122 138 138 123 143 125 33 -66 -63 -12 -7 59 38 25 55 62 57 130 142 139 125 131 115 92

GFSSW_con_3kmhel_105.txt.gz
Helicity
48 44 37 28 29 16 12 28 24 16 -6 -13 7 -10 -5 -12 -19 20 44 66 49 32 77 18 -21 5 77 62 83 84 -93 113 -235 -5 98 92 156 83 137 151 316 271 244 149 58
56 55 36 19 33 32 24 20 5 23 -20 -20 1 -14 -12 -21 18 6 56 11 -37 46 35 -18 -0 16 86 66 111 77 -22 -84 122 20 56 279 166 92 133 180 247 308 294 254 114
71 58 45 27 39 43 24 11 6 16 -20 -20 -1 -30 -28 11 14 26 14 -26 -44 23 52 -14 3 16 80 61 71 58 33 1 110 -6 112 315 354 148 129 155 169 133 140 246 -13
60 50 56 31 42 49 33 12 5 3 -13 -13 3 -37 -43 70 48 35 2 -21 -3 -14 -25 -23 33 26 56 53 61 25 -8 -218 70 100 137 120 295 142 145 179 125 150 -1 22 31
62 67 64 49 16 51 39 19 3 -24 -2 2 8 -23 15 26 36 62 -16 -7 10 -8 -12 31 25 40 44 18 37 44 55 -10 80 203 141 11 227 167 212 294 131 131 2 20 122
39 98 84 52 26 39 45 26 5 -31 4 5 15 6 43 36 53 34 -36 -20 10 15 27 44 15 39 -9 3 38 25 98 129 239 331 313 -32 210 152 147 395 182 139 86 75 173
179 86 79 29 21 21 49 49 8 -16 -6 10 32 44 35 62 36 32 -19 -24 -14 4 15 20 40 14 -32 -16 -3 72 -49 110 -14 138 292 119 48 142 189 218 148 125 144 116 123
248 41 95 41 41 43 40 74 20 -6 -10 6 53 56 28 29 18 -10 -3 15 27 -2 24 16 19 9 -7 -45 9 13 -10 87 136 48 469 221 58 203 245 204 296 196 141 119 143
274 382 94 59 56 14 38 40 42 5 -10 5 90 73 18 3 4 -5 26 27 28 30 31 51 22 34 -33 -65 -39 30 107 -25 48 -50 468 229 160 294 292 349 281 304 183 74 108
169 232 110 60 57 49 46 9 75 14 25 57 96 28 30 22 18 4 17 13 6 -5 20 16 35 28 -43 21 7 10 46 -20 75 -120 309 403 299 332 319 351 376 306 236 198 124
141 152 238 115 48 41 33 48 85 -12 23 -47 -15 23 29 18 9 15 -0 -8 -17 -47 -35 -20 -11 10 52 75 110 49 59 -14 -31 -136 192 361 399 389 373 365 394 388 339 267 208
101 140 88 84 85 80 9 58 49 10 -21 -26 -40 -10 19 21 19 23 -0 -0 -29 -21 -37 -15 8 6 46 19 56 45 54 18 -33 -74 72 126 525 318 349 353 331 370 398 365 265
87 182 42 118 28 21 55 59 68 37 -38 -8 -4 -16 21 13 26 27 18 13 -0 -64 -38 1 18 -17 1 54 43 24 -23 -33 -46 -54 29 51 281 164 267 253 274 262 313 349 353
81 154 99 99 -4 59 58 25 97 40 -20 -15 9 21 23 9 17 17 14 27 16 35 -35 -55 33 42 35 26 2 2 4 -9 10 -19 31 24 229 199 215 183 199 191 170 217 254
40 131 67 79 30 29 47 40 89 38 70 8 24 34 16 24 28 17 19 24 38 34 38 29 -48 -72 35 39 38 12 27 4 25 47 45 28 124 142 190 160 134 94 109 112 179
21 92 78 62 34 27 37 50 65 65 64 13 13 1 -11 5 23 25 36 33 34 36 22 34 14 9 48 82 68 47 95 119 87 31 -22 13 47 94 95 126 154 89 29 105 127
45 83 77 130 28 70 41 107 82 62 24 10 7 -8 -19 -11 -6 36 50 50 56 69 53 30 34 13 22 51 134 108 105 67 36 57 21 85 59 73 76 106 187 92 -16 16 118
65 54 101 98 21 85 98 137 63 65 15 15 -4 -3 -30 -24 -17 22 52 57 66 80 111 125 154 50 30 43 97 82 81 72 13 22 50 71 51 84 53 58 63 124 91 14 83
55 127 111 45 -9 84 114 79 73 37 20 -3 27 -2 -15 -32 -37 -13 21 63 78 111 177 209 160 56 25 16 44 101 81 93 97 121 80 84 64 44 21 81 91 112 86 81 132
25 62 60 -14 28 128 125 80 58 31 16 21 11 -10 -25 -35 -23 -1 26 86 92 115 111 173 182 84 35 31 1 46 69 105 117 64 83 96 87 62 120 119 134 144 146 124 124
33 39 22 -17 86 147 69 59 57 6 6 3 -7 -3 -16 -42 -10 11 53 90 83 121 133 193 224 126 40 20 3 -28 58 78 56 140 80 101 147 27 82 106 128 127 83 91 113
34 44 16 32 93 74 45 67 22 23 8 12 -12 -0 -31 -32 -11 24 60 74 68 100 168 152 233 195 167 -2 -60 -38 -18 45 89 82 112 82 72 37 109 107 80 59 54 104 110
34 70 61 122 43 62 60 36 34 17 22 2 -8 -7 -12 -31 -16 31 62 80 94 112 162 136 250 321 173 104 -46 -57 -91 -15 72 63 130 115 69 100 91 61 82 81 101 132 136
60 66 64 49 77 107 66 31 49 4 14 6 -8 -2 6 -4 23 49 78 60 72 105 105 153 247 345 344 215 -45 -68 -82 -44 24 55 68 134 137 87 126 66 67 100 95 110 132
30 49 68 21 56 64 81 61 88 41 23 11 7 1 -15 -10 -0 42 60 71 72 71 98 174 268 205 132 79 -0 -75 -43 -78 -92 31 54 71 94 94 26 53 71 39 95 140 190
113 65 78 26 37 52 64 30 101 40 19 22 8 -11 4 -10 2 44 61 47 61 63 103 97 152 130 150 73 4 -52 -44 -24 -8 57 22 13 18 20 68 70 108 89 59 100 160
49 43 45 3 75 65 11 54 66 20 22 13 -19 7 25 16 69 83 71 73 71 86 94 78 96 106 91 29 11 66 28 -26 -35 -25 26 32 22 81 49 37 78 136 112 120 136

GFSSW_con_3kmhel_108.txt.gz
Helicity
29 32 21 28 28 17 22 17 32 29 38 -0 -14 -11 -20 -9 -73 -61 -6 21 46 26 33 47 38 19 -6 15 35 57 120 77 9 -60 17 56 44 62 138 102 104 44 101 93 324
52 30 38 35 29 21 16 37 36 22 36 7 -19 -13 -17 -28 -36 -8 33 -0 2 14 -6 6 16 38 29 40 46 80 94 28 1 62 19 155 137 32 174 184 116 83 132 227 266
127 60 31 50 29 26 25 21 49 32 36 17 -15 -12 -6 3 10 43 51 21 16 54 31 -1 -15 18 -1 29 17 51 74 -57 -6 58 161 41 232 190 154 213 76 49 49 135 323
155 131 63 69 36 34 32 3 27 28 46 37 -9 -0 11 44 56 29 21 1 29 15 -10 -18 16 22 -7 18 14 32 -36 -78 -59 -48 113 102 75 264 73 273 77 21 87 207 178
171 152 62 96 48 28 19 26 -2 24 52 55 -5 16 36 46 52 24 5 18 14 -12 -55 -47 -1 10 -8 -8 -12 -4 -94 -14 -23 -8 78 127 -6 182 185 72 112 54 71 105 148
144 221 83 91 67 31 30 26 49 21 44 57 2 34 43 20 55 12 -6 26 21 8 -10 -70 -2 14 -5 -6 5 -18 -50 -67 -20 -128 3 102 63 141 206 76 104 59 36 83 79
117 178 258 121 45 41 54 47 58 14 7 71 23 42 38 24 26 -19 16 23 9 12 21 10 11 16 -33 -23 21 -35 -28 -15 15 -4 83 78 43 62 223 163 111 48 73 60 18
101 151 158 100 43 38 66 21 25 15 11 24 46 54 12 30 -6 2 -1 -0 4 -12 10 10 -2 29 8 -12 -0 -5 -12 -20 -5 97 30 34 3 22 128 161 150 53 40 66 40
79 116 143 178 71 57 45 22 21 20 12 29 65 11 -7 2 5 -28 -7 5 26 14 29 24 7 31 16 -18 -10 -31 -16 -58 -26 -75 -9 96 145 52 83 124 137 129 91 66 99
84 100 112 165 58 62 51 15 25 51 72 66 81 -39 -9 21 -9 -28 -22 1 8 28 35 14 26 39 14 51 38 17 -6 78 57 10 43 -6 206 154 61 122 117 145 142 221 106
77 87 77 77 55 57 91 60 10 22 54 -46 -38 -49 -40 -8 -5 7 -32 5 -2 -8 13 21 37 -11 58 101 125 62 27 -29 112 2 -3 -45 214 266 98 93 116 159 211 200 169
55 89 109 6 45 74 65 38 46 47 -25 -54 -19 -29 -25 -17 25 8 -13 12 -6 -8 10 26 16 -17 17 54 41 47 16 45 21 23 -66 20 181 297 188 103 119 127 181 118 72
28 69 117 63 76 71 36 -0 45 42 -24 -44 -3 -23 -31 -13 29 16 1 7 15 24 2 -0 14 -8 -10 17 37 29 32 22 23 7 -6 8 75 208 159 163 147 156 161 166 111
17 38 53 83 32 46 23 39 41 34 -51 -56 -26 13 4 -16 17 -0 11 20 44 58 24 27 3 22 36 39 44 38 8 -2 -12 -2 41 2 59 100 129 198 160 118 116 146 182
5 20 42 41 51 49 19 -1 40 81 -8 -1 23 33 19 11 -0 15 8 41 44 57 67 62 33 12 -10 66 69 82 56 8 -19 17 58 18 85 9 163 257 193 148 139 129 140
-2 35 35 45 83 63 -16 -4 55 65 39 21 32 23 12 7 -7 10 29 34 45 45 46 48 33 39 33 42 85 67 71 37 25 16 80 71 77 68 83 112 110 173 159 93 102
21 44 11 42 21 31 37 23 54 67 54 37 34 20 14 3 -7 -4 23 52 43 72 76 58 50 43 51 85 62 46 25 49 59 47 73 65 90 113 85 72 199 176 129 135 120
36 60 -0 20 63 37 56 63 33 46 88 38 31 13 11 -8 -4 -13 18 46 40 44 77 142 194 64 38 57 50 10 71 92 49 40 63 93 122 116 88 98 127 171 125 80 -14
39 26 62 62 36 5 39 72 33 131 56 35 27 22 5 1 1 -7 6 37 39 57 87 127 207 86 50 21 11 7 35 91 74 79 82 104 84 76 59 92 100 162 120 71 45
20 25 65 61 29 66 72 38 72 70 20 42 54 36 10 -1 7 5 5 25 37 55 62 112 165 118 68 32 -6 -55 1 43 76 40 59 71 101 99 150 153 133 155 125 103 106
14 67 -2 37 59 79 41 30 67 37 12 41 41 22 13 9 15 11 12 32 21 71 86 141 118 178 83 82 36 -23 -101 -39 42 149 74 45 80 81 152 152 156 143 107 107 121
19 85 19 71 70 66 20 49 66 -0 -15 22 13 12 7 4 20 12 21 17 12 63 110 113 161 192 186 59 -17 -41 -86 16 30 -7 71 164 93 52 69 79 89 85 86 87 105
47 60 20 72 54 62 59 53 67 37 -2 17 17 7 -6 9 30 11 9 23 11 66 105 108 200 231 251 167 41 -5 -89 -162 81 53 41 48 63 113 88 90 84 89 93 95 116
71 79 43 25 43 71 72 50 76 37 21 14 4 -3 4 19 23 16 28 12 32 71 78 112 172 215 225 195 20 -27 -50 -98 -83 -86 63 85 126 121 151 166 140 96 97 133 135
36 91 49 28 40 52 62 45 46 41 24 11 15 25 17 23 23 19 20 27 35 38 68 101 163 147 130 98 13 -64 -22 -47 -66 -60 -96 56 125 190 122 107 134 108 87 110 142
66 87 43 6 15 25 13 19 81 41 42 37 40 7 14 25 26 22 19 20 23 33 59 47 112 99 118 63 30 42 12 -12 -19 -20 -28 20 16 -2 105 67 98 95 91 104 157
33 127 80 41 38 28 24 59 95 46 29 20 13 7 22 22 21 29 16 46 32 34 54 55 89 88 85 38 75 176 41 -16 -25 -26 -29 -14 50 38 85 65 111 162 133 146 127

GFSSW_con_3kmhel_111.txt.gz
Helicity
117 98 67 73 35 24 22 25 16 17 7 20 26 4 -8 -31 -18 -34 -19 50 56 46 26 15 29 34 38 72 48 50 100 34 0 54 73 -18 -17 102 111 51 149 96 40 120 149
87 106 82 72 59 24 29 26 25 19 4 6 31 19 -23 -23 -13 -19 65 41 25 46 18 20 35 83 67 36 69 65 36 5 47 126 15 22 -15 12 103 182 313 135 98 106 188
109 153 81 82 66 45 36 24 18 13 13 -15 44 24 -17 -23 -23 50 74 37 17 52 38 14 5 24 17 31 37 22 5 12 7 50 6 139 -43 3 89 203 190 102 135 241 74
70 105 137 147 94 51 46 37 25 33 20 -2 27 25 -9 -26 45 102 51 22 -11 13 0 11 6 21 22 52 28 17 6 29 9 -13 -20 25 217 15 19 42 64 120 116 95 74
82 86 117 178 103 69 55 42 21 26 19 22 32 15 -6 6 34 105 41 17 1 21 -7 9 -8 23 29 41 -5 -14 -52 -36 -46 -80 -64 -165 211 76 38 115 113 25 114 99 54
71 84 101 106 72 66 49 33 16 15 20 19 53 7 -28 -66 117 60 33 16 13 3 -8 -4 -22 -3 28 8 -11 -10 -57 -66 -136 -237 -128 -295 187 18 34 134 32 58 44 79 27
57 65 102 111 53 56 21 34 38 18 9 11 34 8 -86 -30 70 34 34 5 25 7 -2 -1 -39 -35 10 -25 0 -11 -65 -63 -109 -139 -155 -25 116 -14 27 204 161 170 73 8 37
37 46 56 91 167 49 41 31 45 12 3 14 32 7 -99 78 30 20 32 -3 33 -10 -2 -11 -15 33 5 -15 -10 -14 -15 -51 -101 -54 -103 29 83 80 7 180 141 125 59 24 34
27 42 67 63 81 67 37 44 54 9 -3 39 22 -15 -94 30 37 39 21 15 0 14 20 29 9 5 -11 36 16 22 8 14 -19 -51 -34 -110 8 43 117 28 188 161 31 33 60
16 44 74 74 24 37 42 55 64 49 44 50 41 -67 -50 -43 13 10 18 -1 -2 2 8 30 15 31 27 45 40 84 49 6 48 -9 -3 -5 0 49 199 44 166 142 25 58 49
25 43 58 107 41 16 52 80 51 30 37 -34 -14 -31 -33 -8 -5 27 21 -5 -3 12 51 59 57 93 13 13 47 49 28 18 -7 75 11 8 3 16 216 79 151 130 118 75 62
26 44 39 76 72 56 51 72 68 65 -2 -28 -15 -28 -22 -1 -24 3 -7 19 21 27 33 29 54 25 16 86 60 50 14 -15 48 -3 -17 20 17 8 50 107 117 104 109 99 175
32 41 26 53 61 43 37 45 50 44 -3 -26 -7 -21 -24 -29 -18 -11 0 0 22 33 41 11 4 -11 -5 40 61 43 67 46 26 -43 -35 -38 -53 -10 91 87 92 89 101 91 142
20 25 19 37 30 37 26 48 19 37 5 -38 -36 -23 -2 2 -10 -14 -14 16 41 38 21 35 -2 -6 -20 14 65 99 56 31 5 -25 0 4 -18 -65 74 44 63 55 72 125 118
26 19 16 32 51 41 16 26 33 66 -13 -7 -16 17 23 27 -5 -15 -15 34 50 38 74 68 27 9 18 3 74 99 74 71 48 31 43 -22 -9 -31 39 48 68 46 62 74 95
38 20 21 25 11 24 -21 29 61 78 12 0 -8 24 21 6 -4 -15 9 34 39 43 61 36 34 50 44 -23 -7 52 31 18 41 40 64 64 65 -53 14 0 63 78 12 53 70
-3 5 2 1 14 47 40 29 100 106 40 24 46 34 27 -3 -8 -7 15 48 30 79 92 54 64 39 38 38 26 -4 42 69 43 55 111 59 102 151 85 66 64 101 106 54 30
10 20 2 58 36 34 51 87 112 69 76 61 59 34 34 -8 2 -15 11 35 48 43 77 143 198 77 17 25 31 -27 15 44 58 75 85 38 101 94 49 92 63 174 243 214 122
20 -21 44 54 35 43 107 136 79 83 71 96 53 67 28 7 18 -10 -1 11 23 26 71 150 215 71 40 9 3 -12 -44 69 73 70 70 53 54 27 67 93 73 86 139 134 114
-12 26 63 26 41 62 125 116 76 117 65 84 89 81 47 15 14 1 7 1 24 29 37 101 202 152 79 21 21 -49 -66 11 51 34 13 15 86 126 96 109 131 101 124 97 91
1 98 49 43 61 69 75 94 106 79 110 109 72 61 45 25 24 6 12 14 21 42 58 68 153 208 118 144 65 -8 -86 -49 -13 64 52 43 108 107 133 114 114 121 134 126 82
47 129 34 76 57 86 58 76 116 67 50 64 45 41 40 21 13 7 18 32 18 45 66 83 111 198 128 91 16 -23 -58 -134 -130 31 46 63 51 40 67 77 77 88 101 118 114
51 60 39 94 75 90 56 48 105 90 51 61 39 25 18 23 29 8 16 -2 8 48 63 68 156 126 304 184 103 39 -42 -73 -37 24 19 93 31 49 75 64 104 95 97 97 122
57 96 60 55 93 113 78 38 90 42 40 41 20 11 16 27 24 19 37 17 32 55 55 69 109 132 107 107 92 4 -78 -74 -61 -67 36 62 23 61 136 157 125 105 106 114 132
60 70 70 53 78 109 53 88 154 95 25 26 22 27 39 47 28 28 31 37 27 41 50 59 98 100 93 73 37 21 -27 -69 -74 -50 -60 12 25 77 120 137 145 106 113 124 182
61 73 68 96 61 100 47 133 119 64 70 34 36 17 25 45 40 52 35 31 21 37 46 27 84 87 97 70 66 118 26 4 -22 -27 -45 -29 -3 58 62 95 92 80 78 121 141
29 46 83 100 33 31 25 101 108 60 30 25 23 18 29 26 11 10 10 8 20 33 38 44 76 74 89 77 108 186 100 27 -3 -19 -35 -52 -45 54 45 36 82 129 129 97 102

GFSSW_con_3kmhel_114.txt.gz
Helicity
92 98 91 97 49 47 32 32 34 11 4 -3 6 7 -2 -9 -8 7 -15 25 83 94 95 10 19 36 21 45 -9 51 189 157 40 55 25 75 81 134 107 -85 -96 -127 -76 178 137
91 92 113 127 96 61 39 54 31 19 8 6 -3 5 10 -2 -15 -7 21 72 60 82 38 29 27 53 36 19 55 92 142 50 34 11 23 27 58 30 80 24 -49 6 34 78 257
76 60 66 83 89 42 63 38 23 23 18 20 13 1 16 0 5 38 89 69 41 45 42 7 -21 15 -11 2 34 44 35 8 -4 -7 40 95 123 56 -62 144 -148 30 118 102 203
55 37 58 66 57 56 71 52 32 32 22 14 16 2 6 -1 -29 149 93 58 29 42 25 23 11 14 14 -5 74 31 48 59 8 -11 33 1 -82 -2 -70 -16 30 -43 74 1 142
28 39 60 79 112 120 97 30 34 24 21 10 14 10 20 5 -53 134 67 49 30 60 64 24 13 27 33 1 -11 62 54 -12 -19 -43 -38 -70 -65 -53 61 105 -101 37 85 25 -150
19 17 47 67 63 147 33 73 22 31 34 31 15 30 18 -90 94 96 52 55 36 67 26 3 4 3 19 13 15 -11 23 28 16 -19 -68 -54 -65 -78 132 186 94 51 -2 -53 -94
22 10 9 47 67 75 82 31 53 26 45 25 4 27 -13 -76 80 42 41 44 63 87 23 5 9 -6 3 -1 -19 -6 -2 25 94 19 -56 -88 -110 62 215 66 30 -44 -39 -31 -142
19 9 4 17 61 59 91 32 66 64 35 27 2 20 -18 27 50 0 31 35 77 42 7 -7 12 -5 2 -12 -6 9 -5 -42 38 76 -28 9 76 9 63 30 15 166 123 87 119
19 13 8 13 58 100 63 46 48 55 49 32 20 -6 -34 23 9 39 39 31 40 39 39 19 19 8 5 27 34 72 53 111 31 161 47 20 -9 11 -11 72 24 101 165 272 57
20 20 25 25 59 110 29 43 50 38 48 29 18 -10 -28 -14 41 32 19 25 36 40 45 8 3 18 26 9 11 28 35 41 108 175 89 12 102 -8 4 30 71 37 96 36 109
9 4 46 35 42 81 39 55 61 27 26 14 -14 -10 -6 8 16 33 27 6 15 5 19 112 57 51 25 28 7 72 78 77 36 215 49 80 95 22 6 74 15 125 125 134 148
9 18 35 43 32 23 30 45 89 66 31 36 14 -4 14 -7 -6 -5 2 11 26 36 36 25 61 12 -21 -23 61 86 95 39 65 96 -51 14 57 26 -4 44 8 73 108 99 121
25 33 32 28 26 15 31 48 75 78 25 -9 -14 -8 -3 -28 0 -5 0 1 30 23 17 28 9 -18 -18 -11 50 93 112 73 79 -33 -35 3 22 32 4 14 23 60 77 102 113
23 23 36 15 7 31 38 73 38 41 51 0 -4 -4 -7 15 -7 -5 -8 2 26 31 10 34 -6 -18 -12 -21 46 80 55 110 60 41 39 -52 2 -2 21 10 30 48 97 167 150
-21 -5 -19 -10 17 7 39 125 58 51 66 14 2 15 21 47 6 -10 -7 18 66 26 27 65 26 20 26 47 33 44 73 79 59 37 10 4 -1 15 11 16 31 40 82 125 169
-25 -6 -20 20 12 27 26 106 80 95 78 35 15 18 26 29 7 -7 2 18 49 49 63 82 51 61 52 3 13 -2 45 52 22 28 40 46 53 161 47 42 38 33 61 77 101
-13 -2 17 26 42 -10 48 62 136 137 67 44 40 58 75 16 7 5 3 35 29 62 75 93 99 64 49 41 21 -2 6 43 49 52 58 33 55 84 32 6 37 128 77 74 77
45 43 71 68 30 5 46 169 185 102 80 71 67 56 54 16 15 -10 20 31 48 59 114 182 182 121 45 56 26 -29 -33 -36 1 54 53 32 89 137 32 66 0 74 118 124 43
14 29 61 36 34 46 72 291 139 142 116 98 84 93 53 29 30 3 13 25 34 45 105 155 199 108 65 34 26 -10 -99 33 7 48 226 -3 13 74 105 200 73 -88 144 158 158
35 61 116 70 30 64 129 146 188 83 129 151 127 130 21 23 11 27 27 22 50 36 57 140 186 145 85 26 16 -10 -37 -67 60 76 66 46 67 124 142 108 139 106 87 66 88
69 89 53 87 92 154 166 137 208 110 103 124 143 61 49 13 37 15 20 21 30 45 55 78 147 138 135 152 53 0 -67 -50 24 25 31 76 59 75 88 84 61 60 61 56 78
87 113 77 87 74 151 128 154 138 132 120 105 89 65 58 39 27 15 26 40 34 53 76 69 135 139 175 139 105 14 -30 -54 -58 -30 -22 41 61 51 56 50 71 36 31 46 56
111 112 111 100 102 122 96 127 96 108 110 97 70 51 47 27 29 23 17 18 26 43 65 71 118 90 272 217 136 71 -16 -28 -31 15 12 10 -24 154 73 126 96 68 53 57 80
84 86 119 82 102 115 174 131 117 53 83 59 50 41 30 19 26 19 27 22 36 39 53 59 98 127 150 171 130 131 -15 -22 -24 -26 12 8 3 41 96 98 122 124 78 86 92
64 105 70 76 93 114 93 152 138 106 65 55 28 35 50 29 7 26 29 45 39 43 56 62 91 75 73 103 86 104 69 2 -12 -18 -51 -35 -15 55 56 120 132 85 96 108 113
34 68 60 73 70 112 118 152 123 89 79 57 40 42 41 22 32 62 51 39 40 47 50 43 90 78 96 92 82 113 86 52 6 -2 -19 -38 -27 53 40 35 57 80 152 142 128
55 31 24 39 19 69 81 122 101 75 36 32 51 44 36 19 5 4 6 14 33 39 44 57 80 88 119 123 99 117 116 104 64 15 -4 -22 -46 -70 -16 42 45 105 110 104 137

GFSSW_con_3kmhel_117.txt.gz
Helicity
75 89 94 105 137 138 92 45 29 32 18 15 13 4 7 8 3 3 1 12 21 34 102 74 49 5 57 46 61 69 58 40 63 93 131 114 116 91 127 120 63 -70 -173 -166 -31
83 77 82 76 111 128 114 55 59 6 25 23 25 19 15 10 -8 18 -7 8 70 81 88 70 24 64 68 39 49 85 89 31 148 52 43 53 77 116 154 209 72 37 -171 -249 -149
60 57 48 64 93 112 57 28 50 36 19 27 19 21 18 15 -12 6 7 32 72 63 57 25 33 42 42 47 45 39 87 73 8 16 30 1 5 59 77 122 87 138 -49 -170 -138
45 46 52 66 79 89 116 35 83 56 45 40 15 18 19 25 11 31 61 49 44 35 10 34 64 75 28 31 51 68 65 43 24 36 -13 -36 7 80 74 60 -2 33 107 -28 -170
28 37 44 53 71 79 133 37 76 -18 24 33 33 32 39 38 10 80 55 39 35 37 31 55 56 53 63 29 56 51 45 64 76 31 81 49 41 133 82 109 37 59 29 -15 -218
14 23 38 35 59 80 102 141 20 64 67 35 47 41 33 -7 30 52 40 47 30 49 51 33 46 39 15 56 53 17 -19 65 96 60 144 113 98 -20 176 137 -3 50 36 -30 -66
48 23 21 20 42 68 87 123 107 76 66 15 56 29 26 -4 36 72 43 39 71 67 58 45 6 29 -31 -7 -4 -2 44 10 24 84 115 5 141 149 210 44 41 26 34 -38 11
37 36 19 23 11 58 96 84 94 17 69 3 33 24 27 -1 51 4 21 4 98 66 58 14 -10 1 7 -20 -23 37 43 51 45 76 143 186 92 -39 -10 -28 54 119 11 22 10
10 10 14 23 24 50 108 59 45 32 46 12 35 9 27 22 20 27 17 11 55 55 51 58 -15 18 -11 -7 19 47 42 87 58 72 203 248 164 45 -20 -62 29 -4 -27 41 25
12 -2 8 21 34 34 74 42 59 56 54 24 49 32 12 7 15 28 23 0 -4 19 37 44 31 10 4 13 -23 -17 -9 59 141 66 281 299 363 193 47 34 39 46 51 92 49
15 6 10 30 34 15 41 56 69 63 57 21 26 47 26 16 -3 2 5 10 7 -16 -9 22 53 44 41 -25 2 25 24 21 38 -17 185 236 290 241 114 135 44 65 40 58 112
26 33 25 35 23 15 37 73 78 64 75 80 56 37 44 -11 11 -3 -4 8 13 46 26 16 43 80 19 15 15 23 33 70 14 46 92 22 193 166 49 113 81 74 28 80 117
28 30 23 27 34 2 36 57 64 76 78 71 39 32 9 -7 32 -1 -6 8 29 37 39 36 17 -23 -26 -42 31 39 35 44 65 34 118 19 38 36 11 80 48 88 153 100 81
26 2 -17 -9 13 31 41 72 50 6 79 36 27 28 8 13 20 1 -8 12 24 55 30 48 23 17 -17 -14 81 22 48 56 81 56 5 27 19 54 209 54 33 95 56 60 74
11 -4 -8 13 32 58 51 104 53 58 90 77 53 39 37 40 19 16 2 4 50 51 65 97 59 40 51 51 17 11 52 67 58 51 50 12 90 155 68 85 79 64 24 73 97
45 22 38 55 42 39 55 90 65 140 133 92 54 46 49 57 31 23 17 15 34 51 71 133 64 78 69 66 88 34 46 70 36 37 79 51 46 188 177 15 44 47 76 46 98
77 62 53 51 72 47 50 58 146 169 137 114 84 83 100 48 31 32 29 24 18 50 87 85 107 59 36 59 43 16 14 32 54 83 114 76 40 118 129 -4 -6 135 183 91 83
42 57 30 74 90 52 34 131 177 151 134 121 111 120 86 61 37 24 18 28 28 79 145 166 183 105 43 55 61 3 -47 -34 30 32 122 98 81 88 97 -2 -63 69 387 140 109
59 84 76 144 72 42 187 261 208 184 212 154 167 156 83 62 31 20 8 31 64 71 121 142 180 88 68 20 41 19 -26 14 44 178 114 149 136 53 163 84 -101 -84 182 323 218
110 127 158 131 113 156 262 205 183 108 144 160 164 112 68 57 46 36 27 48 80 76 76 137 170 100 92 46 30 25 96 -14 58 124 71 96 101 144 106 53 5 -24 -100 73 114
39 114 142 159 132 205 280 230 196 134 99 101 163 79 59 49 44 35 48 57 67 103 94 100 163 145 109 91 27 13 42 22 36 55 77 89 43 127 128 48 -9 16 22 43 49
71 108 121 118 107 235 244 261 189 145 109 93 63 69 74 60 48 36 57 62 65 76 104 94 159 189 176 132 44 6 13 25 -33 38 3 -10 29 163 189 84 21 49 51 47 5
100 101 142 85 77 143 192 157 154 125 119 91 76 62 49 46 40 28 40 51 50 56 84 88 98 141 116 113 38 -4 12 30 12 -26 28 23 -2 104 119 125 84 59 50 57 77
95 50 104 101 103 96 126 174 126 96 67 71 64 45 45 40 18 22 39 46 57 63 57 80 88 123 139 156 122 30 -28 4 -2 -51 -26 2 -2 25 69 73 81 120 114 62 63
68 48 38 -13 73 70 87 102 89 75 71 50 44 45 55 42 32 23 27 41 44 52 56 60 87 80 73 70 51 80 52 -2 -23 -11 0 4 -22 -4 43 31 31 55 67 82 107
60 46 48 25 70 69 65 88 64 65 41 50 32 38 29 21 19 38 30 18 35 36 48 44 74 76 64 88 68 62 59 76 50 15 6 -2 -12 -16 -16 12 22 58 82 70 74
16 73 44 46 34 44 76 62 54 21 24 12 32 37 26 6 3 -2 -7 11 26 35 40 53 70 62 66 66 65 82 117 103 101 108 64 146 53 -13 -30 -71 -69 72 71 72 80

GFSSW_con_3kmhel_120.txt.gz
Helicity
55 73 66 77 115 130 162 102 41 30 43 40 14 12 17 18 22 24 29 16 25 -8 44 58 59 78 110 134 132 145 114 58 28 6 73 79 162 199 89 138 62 13 97 -52 -166
28 41 50 64 96 108 134 104 95 66 60 22 9 19 28 28 23 24 39 -4 -9 31 75 56 34 79 91 96 111 106 55 2 59 57 28 15 46 79 88 122 136 52 120 33 -130
23 24 39 54 86 110 106 77 32 59 53 46 12 22 28 32 22 34 -10 -62 27 53 59 37 63 128 90 112 92 71 23 43 53 64 89 45 29 48 37 105 58 71 26 85 -105
25 21 29 55 73 103 117 143 48 91 57 48 29 19 13 31 70 33 32 -22 36 68 49 39 76 94 74 75 63 85 70 90 49 56 38 38 33 28 43 48 89 84 71 33 -79
39 33 14 28 38 76 101 96 55 53 32 25 63 17 23 58 14 36 48 34 47 42 18 25 42 42 81 57 38 113 103 92 82 63 31 29 -2 47 -8 25 52 61 74 123 94
31 35 31 19 22 39 80 72 94 14 54 55 60 39 46 62 51 27 36 29 34 27 11 12 34 38 34 52 109 101 35 50 56 66 71 70 51 109 82 158 114 61 74 83 113
20 23 21 24 23 20 64 101 91 122 93 64 30 26 53 16 76 72 13 26 23 52 19 20 36 39 43 38 7 32 57 75 116 135 128 68 136 203 243 37 -32 41 13 95 69
8 15 22 37 27 17 54 108 62 86 73 53 26 29 49 52 59 16 4 13 30 51 32 40 38 40 50 14 -30 3 9 -5 -10 9 59 213 205 98 104 82 69 66 183 136 78
31 42 37 46 34 42 39 77 38 18 -19 52 47 9 56 52 39 5 -7 -6 45 20 16 35 49 47 38 -3 -13 -6 -23 -15 16 41 52 200 176 186 65 112 93 57 55 74 65
3 2 24 26 37 61 65 47 38 57 50 21 36 36 40 60 34 19 1 11 3 20 14 29 36 39 41 47 9 -21 -36 -32 35 7 28 173 381 387 222 137 89 47 63 28 -27
37 -25 50 14 33 40 42 55 102 89 71 29 53 56 70 84 9 2 3 -18 -5 -6 -5 10 17 22 46 70 112 91 13 33 101 17 19 103 219 279 97 103 89 58 -38 -14 68
1 -4 24 -8 4 31 28 62 66 59 61 67 80 93 52 33 12 11 -9 8 16 20 20 22 52 100 26 21 54 26 23 49 36 58 43 101 166 -31 80 40 102 51 58 105 32
-5 45 24 9 32 34 47 75 91 86 104 110 52 35 31 -0 25 15 8 11 29 31 45 79 34 9 37 13 76 68 38 52 42 70 10 16 13 76 287 96 71 47 74 32 51
23 21 10 14 50 66 67 84 109 69 85 95 43 36 20 5 10 12 7 8 33 62 58 66 46 45 27 37 64 24 57 50 49 40 53 36 31 151 233 134 143 108 124 49 31
24 18 37 52 85 89 114 86 88 63 105 107 75 43 32 22 37 33 4 18 82 72 80 107 103 93 89 76 65 13 52 38 50 46 61 39 38 175 200 57 176 134 139 94 46
32 42 51 70 63 97 109 77 69 156 119 115 79 54 54 56 49 28 31 39 46 60 75 119 45 72 46 74 43 20 34 46 36 54 53 61 57 80 236 84 93 245 222 169 26
60 52 67 65 157 141 101 43 174 157 188 126 79 76 67 65 55 56 63 26 41 87 133 118 109 45 62 96 33 70 18 50 80 105 81 69 40 65 85 34 98 154 369 250 172
95 60 30 81 85 54 79 162 208 200 174 134 109 100 68 74 64 49 51 46 46 97 155 214 236 102 54 82 135 115 71 5 51 36 131 81 78 70 6 -68 -13 19 215 280 240
57 61 88 139 132 163 166 224 229 223 179 139 123 78 73 66 75 65 55 43 69 78 121 169 212 91 69 85 81 73 74 105 121 131 142 129 78 -4 121 28 -44 27 93 392 158
70 112 190 126 142 179 182 199 169 145 125 98 86 71 73 74 69 65 46 56 96 114 128 139 189 129 83 51 79 66 91 123 118 95 99 117 91 62 78 52 9 39 39 272 123
55 74 155 82 183 107 155 195 164 127 87 81 83 46 51 57 49 52 62 81 85 109 89 120 141 104 32 47 39 69 47 42 84 43 -5 35 55 26 32 19 30 28 21 56 123
120 60 129 93 66 140 173 128 114 110 75 48 52 42 46 42 43 53 63 78 74 99 112 108 131 125 105 65 62 51 77 49 -21 -9 -9 -27 -20 37 25 15 25 51 47 46 39
123 115 103 76 74 120 122 109 103 82 70 47 42 49 37 39 34 46 48 63 49 57 92 99 103 87 32 34 4 40 77 24 12 17 28 -8 -41 9 57 35 32 13 36 37 54
21 22 116 106 96 89 85 93 61 63 60 46 37 33 27 27 23 28 38 41 49 57 24 70 86 106 100 95 107 97 64 43 9 24 37 3 -44 -11 37 26 19 36 34 35 38
23 6 -15 59 115 137 77 51 52 45 44 29 24 45 34 16 11 14 25 28 33 29 36 55 67 51 61 67 70 106 111 99 99 58 102 54 27 -9 5 -5 7 24 27 44 72
4 -2 32 48 105 102 101 70 36 24 18 25 3 27 17 5 9 17 15 14 30 29 35 42 74 55 52 48 31 73 82 103 130 142 103 62 40 -11 -24 -41 11 30 44 44 55
5 31 6 32 30 68 101 94 69 18 12 11 14 -0 9 5 12 9 9 12 14 25 26 36 72 61 55 26 12 46 109 124 113 138 150 159 110 26 -4 -28 -52 -64 48 66 61

GFSSW_con_3kmhel_123.txt.gz
Helicity
23 21 23 42 86 110 122 134 123 79 49 75 29 30 5 11 22 35 53 15 33 31 84 81 82 80 91 108 130 148 126 102 99 75 27 42 54 71 84 123 157 60 103 69 -33
30 22 30 28 41 79 107 101 74 88 31 43 43 39 12 39 29 36 47 8 37 13 103 84 96 88 83 83 106 118 110 93 81 108 93 106 110 99 63 129 140 144 80 53 31
57 44 25 17 24 41 72 100 54 21 51 47 52 50 32 35 46 36 33 -34 6 28 94 82 81 70 61 85 94 96 118 130 49 106 87 78 89 119 77 142 54 116 150 110 111
70 62 70 26 29 34 59 71 144 40 51 48 29 43 27 35 106 50 20 -34 18 97 92 70 71 47 62 58 99 67 41 70 82 94 91 58 72 9 59 73 71 114 162 176 197
30 31 39 46 9 49 39 40 150 53 53 53 41 69 18 72 54 32 28 -5 72 71 63 68 39 41 30 64 82 11 67 79 103 102 83 72 44 78 14 77 122 92 67 61 114
2 10 8 14 22 14 46 34 51 54 36 35 41 53 21 50 33 10 61 56 45 51 31 1 25 3 57 64 61 81 57 75 76 127 115 77 46 104 115 151 95 76 44 36 55
8 11 11 -4 24 8 72 55 60 54 46 52 43 33 53 23 76 52 37 24 24 28 51 18 -2 50 41 46 30 -5 11 9 54 40 -22 55 104 114 326 84 34 1 12 33 37
9 1 22 45 28 -14 62 62 92 57 40 16 37 32 30 36 55 15 7 0 13 45 56 24 43 35 43 42 29 49 24 39 14 40 25 85 30 106 52 34 49 36 54 56 42
-3 16 15 38 48 36 55 77 38 25 41 18 33 42 45 28 25 2 16 35 37 57 29 28 39 53 48 46 43 52 19 4 -1 26 -15 84 61 185 106 82 -35 -40 -22 -2 58
0 22 40 31 16 82 96 31 53 55 56 40 31 53 61 61 42 23 26 23 -23 1 -5 7 23 52 58 68 57 58 25 36 27 55 62 52 155 132 -15 -14 -34 -9 -4 -63 -26
-8 25 49 -30 13 33 72 30 82 87 49 62 64 66 78 105 25 0 -18 -20 -31 -14 21 11 18 12 25 62 61 59 53 12 67 130 43 22 63 14 -1 122 68 56 2 -70 -136
21 24 15 -24 38 55 30 74 67 61 76 72 89 70 97 48 0 -6 -24 -6 11 37 29 41 35 89 48 54 56 50 47 46 21 60 0 39 34 -5 106 130 69 -2 -18 -20 -50
25 17 15 21 36 48 80 129 126 102 113 108 79 50 56 24 5 -6 -20 6 35 37 51 71 55 28 67 68 75 87 61 41 7 65 34 5 57 -4 294 193 192 180 26 57 53
37 31 20 62 64 111 89 141 100 84 83 108 78 40 36 12 9 -8 -10 18 24 50 43 80 44 66 75 89 43 46 55 68 30 44 71 32 14 -37 188 262 198 192 269 272 -2
76 56 66 34 89 100 123 90 80 87 57 104 73 44 42 14 21 4 1 24 87 85 93 89 83 63 71 61 47 34 62 46 30 40 61 73 43 12 56 219 308 226 598 260 -8
11 30 75 95 109 113 133 84 68 64 85 94 62 37 36 25 22 19 15 21 50 98 94 132 60 56 70 110 34 39 49 39 40 47 45 140 17 12 200 158 286 232 508 301 134
47 52 104 116 126 123 70 74 60 76 101 89 67 54 48 41 34 39 73 22 79 141 169 119 89 51 56 92 67 45 18 36 57 82 43 122 25 73 125 97 95 185 230 301 321
50 52 100 66 81 68 48 64 85 123 111 76 63 55 49 53 63 49 71 82 88 116 177 175 65 46 38 89 108 70 56 28 67 57 86 69 43 60 24 14 8 41 194 343 438
77 84 115 137 75 48 55 102 121 118 83 56 50 55 65 63 83 73 77 98 118 98 154 155 83 43 55 99 79 72 65 121 58 96 82 71 10 -7 73 72 47 50 141 238 468
112 157 195 172 130 104 88 94 75 72 47 45 71 56 58 59 77 75 70 98 104 115 113 128 96 22 60 45 69 68 59 30 31 24 62 51 18 42 87 129 59 45 64 146 139
150 118 188 128 106 48 95 71 72 52 39 47 43 35 45 55 62 68 79 93 91 92 92 105 117 31 -3 29 113 63 29 19 30 0 15 36 17 -2 20 49 23 23 20 10 81
90 82 144 83 43 123 77 48 45 48 35 25 27 29 40 43 45 54 70 94 60 91 110 96 115 136 124 67 72 72 71 59 34 42 -13 -14 19 6 15 11 -10 17 17 27 11
40 74 62 25 95 212 146 89 53 18 29 22 14 20 24 41 47 51 52 65 50 62 99 108 87 63 44 52 44 38 79 32 34 14 14 24 9 -18 6 -7 10 21 52 39 48
-5 39 54 33 71 74 91 85 56 59 33 19 9 10 22 20 18 43 41 47 42 46 30 78 97 117 102 101 109 111 101 86 61 90 81 15 -5 9 40 7 7 34 47 55 59
12 -1 5 24 37 39 64 55 67 54 43 21 2 9 18 22 24 21 29 21 43 21 35 63 99 88 105 89 70 104 110 106 151 148 185 125 61 8 7 4 2 10 27 36 61
16 13 -10 55 50 -6 21 35 30 -9 38 41 -20 21 -5 8 9 17 17 24 38 25 31 34 97 89 80 68 66 81 73 88 127 143 137 145 137 39 -12 -29 12 24 21 8 30
8 10 10 2 28 29 11 15 18 14 11 9 17 -10 5 -9 2 2 10 12 14 22 27 37 69 74 95 52 54 75 104 107 88 113 148 189 140 91 73 30 -24 -35 -10 35 37